[[{"header":{"parameterUnit":"m.s-1","parameterCategory":1,"la1":30.6,"la2":29.2853,"lo1":-89.7004,"lo2":-87.6739,"dy":0.0162,"dx":0.0183,"nx":112,"ny":82,"refTime":"2023-10-22T06:00:00:Z","depth":0,"parameterNumber":2,"parameterNumberName":"U-component_of_WINDS"},"data":[0.0,0.0,0.0,0.0,0.0,0.0,0.0,0.0,0.0,0.0,0.0,0.0,0.0,0.0,0.0,0.0,0.0,0.0,0.0,0.0,0.0,0.0,0.0,0.0,0.0,0.0,0.0,0.0,0.0,0.0,0.0,0.0,0.0,0.0,0.0,0.0,0.0,0.0,0.0,0.0,0.0,0.0,0.0,0.0,0.0,0.0,0.0,0.0,0.0,0.0,0.0,0.0,0.0,0.0,0.0,0.0,0.0,0.0,0.0,0.0,0.0,0.0,0.0,0.0,0.0,0.0,0.0,0.0,0.0,0.0,0.0,0.0,0.0,0.0,0.0,0.0,0.0,0.0,0.0,0.0,0.0,0.0,0.0,0.0,0.0,0.0,0.0,0.0,0.0,0.0,-3.4636,-3.4267,-3.3501,-3.2898,-3.2727,-3.2669,-3.2504,-3.2112,0.0,0.0,0.0,0.0,0.0,0.0,0.0,0.0,0.0,0.0,0.0,0.0,0.0,0.0,0.0,0.0,0.0,0.0,0.0,0.0,0.0,0.0,0.0,0.0,0.0,0.0,0.0,0.0,0.0,0.0,0.0,0.0,0.0,0.0,0.0,0.0,0.0,0.0,0.0,0.0,0.0,0.0,0.0,0.0,0.0,0.0,0.0,0.0,0.0,0.0,0.0,0.0,0.0,0.0,0.0,0.0,0.0,0.0,0.0,0.0,0.0,0.0,0.0,0.0,0.0,0.0,0.0,0.0,0.0,0.0,0.0,0.0,0.0,0.0,0.0,0.0,0.0,0.0,0.0,0.0,0.0,0.0,0.0,0.0,0.0,0.0,0.0,0.0,0.0,0.0,0.0,0.0,0.0,0.0,0.0,0.0,0.0,0.0,0.0,0.0,0.0,0.0,0.0,0.0,-3.5168,-3.3161,-3.3706,-3.3818,-3.2784,-3.2669,-3.2649,-3.2566,0.0,0.0,0.0,0.0,0.0,0.0,0.0,0.0,0.0,0.0,0.0,0.0,0.0,0.0,0.0,0.0,0.0,0.0,0.0,0.0,0.0,0.0,0.0,0.0,0.0,0.0,0.0,0.0,0.0,0.0,0.0,0.0,0.0,0.0,0.0,0.0,0.0,0.0,0.0,0.0,0.0,0.0,0.0,0.0,0.0,0.0,0.0,0.0,0.0,0.0,0.0,0.0,0.0,0.0,0.0,0.0,0.0,0.0,0.0,0.0,0.0,0.0,0.0,0.0,0.0,0.0,0.0,0.0,0.0,0.0,0.0,0.0,0.0,0.0,0.0,0.0,0.0,0.0,0.0,0.0,0.0,0.0,0.0,0.0,0.0,0.0,0.0,0.0,0.0,0.0,0.0,0.0,0.0,0.0,0.0,0.0,0.0,0.0,0.0,0.0,0.0,0.0,0.0,-3.5801,-3.4576,-3.3215,-3.3576,-3.3585,-3.2747,-3.2555,-3.2555,-3.2669,-3.2178,0.0,0.0,0.0,0.0,0.0,0.0,0.0,0.0,0.0,0.0,0.0,0.0,0.0,0.0,0.0,0.0,0.0,0.0,0.0,0.0,0.0,0.0,0.0,0.0,0.0,0.0,0.0,0.0,0.0,0.0,0.0,0.0,0.0,0.0,0.0,0.0,0.0,0.0,0.0,0.0,0.0,0.0,0.0,0.0,0.0,0.0,0.0,0.0,0.0,0.0,0.0,0.0,0.0,0.0,0.0,0.0,0.0,0.0,0.0,0.0,0.0,0.0,0.0,0.0,0.0,0.0,0.0,0.0,0.0,0.0,0.0,0.0,0.0,0.0,0.0,0.0,0.0,0.0,0.0,0.0,0.0,0.0,0.0,0.0,0.0,0.0,0.0,0.0,0.0,0.0,0.0,0.0,0.0,0.0,0.0,0.0,0.0,0.0,0.0,0.0,0.0,0.0,-3.488,-3.3986,-3.3575,-3.3534,-3.341,-3.2963,-3.2748,-3.2649,-3.272,-3.2238,0.0,0.0,0.0,0.0,0.0,0.0,0.0,0.0,0.0,0.0,0.0,0.0,0.0,0.0,0.0,0.0,0.0,0.0,0.0,0.0,0.0,0.0,0.0,0.0,0.0,0.0,0.0,0.0,0.0,0.0,0.0,0.0,0.0,0.0,0.0,0.0,0.0,0.0,0.0,0.0,0.0,0.0,0.0,0.0,0.0,0.0,0.0,0.0,0.0,0.0,0.0,0.0,0.0,0.0,0.0,0.0,0.0,0.0,0.0,0.0,0.0,0.0,0.0,0.0,0.0,0.0,0.0,0.0,0.0,0.0,0.0,0.0,0.0,0.0,0.0,0.0,0.0,0.0,0.0,0.0,0.0,0.0,0.0,0.0,0.0,0.0,0.0,0.0,0.0,0.0,0.0,0.0,0.0,0.0,0.0,0.0,0.0,0.0,0.0,0.0,0.0,0.0,-3.4821,-3.4111,-3.4031,-3.4069,-3.3891,-3.3552,-3.3493,-3.3309,-3.2881,-3.2567,0.0,0.0,0.0,0.0,0.0,0.0,0.0,0.0,0.0,0.0,0.0,0.0,0.0,0.0,0.0,0.0,0.0,0.0,0.0,0.0,0.0,0.0,0.0,0.0,0.0,0.0,0.0,0.0,0.0,0.0,0.0,0.0,0.0,0.0,0.0,0.0,0.0,0.0,0.0,0.0,0.0,0.0,0.0,0.0,0.0,0.0,0.0,0.0,0.0,0.0,0.0,0.0,0.0,0.0,0.0,0.0,0.0,0.0,0.0,0.0,0.0,0.0,0.0,0.0,0.0,0.0,0.0,0.0,0.0,0.0,0.0,0.0,0.0,0.0,0.0,0.0,0.0,0.0,0.0,0.0,0.0,0.0,0.0,0.0,0.0,0.0,0.0,0.0,0.0,0.0,0.0,0.0,0.0,0.0,0.0,0.0,0.0,0.0,0.0,0.0,0.0,0.0,-3.5365,-3.4431,-3.3983,-3.4064,-3.3961,-3.3376,-3.3115,-3.2975,-3.3032,0.0,0.0,0.0,0.0,0.0,0.0,0.0,0.0,0.0,0.0,0.0,0.0,0.0,0.0,0.0,0.0,0.0,0.0,0.0,0.0,0.0,0.0,0.0,0.0,0.0,0.0,0.0,0.0,0.0,0.0,0.0,0.0,0.0,0.0,0.0,0.0,0.0,0.0,0.0,0.0,0.0,0.0,0.0,0.0,0.0,0.0,0.0,0.0,0.0,0.0,0.0,0.0,0.0,0.0,0.0,0.0,0.0,0.0,0.0,0.0,0.0,0.0,0.0,0.0,0.0,0.0,0.0,0.0,0.0,0.0,0.0,0.0,0.0,0.0,0.0,0.0,0.0,0.0,0.0,0.0,0.0,0.0,0.0,0.0,0.0,0.0,0.0,0.0,0.0,0.0,0.0,0.0,0.0,0.0,0.0,0.0,0.0,0.0,0.0,0.0,0.0,0.0,-3.5909,-3.5273,-3.4551,-3.4021,-3.4165,-3.4044,-3.3436,-3.3152,-3.3031,-3.3155,0.0,0.0,0.0,0.0,0.0,0.0,0.0,0.0,0.0,0.0,0.0,0.0,0.0,0.0,0.0,0.0,0.0,0.0,0.0,0.0,0.0,0.0,0.0,0.0,0.0,0.0,0.0,0.0,0.0,0.0,0.0,0.0,0.0,0.0,0.0,0.0,0.0,0.0,0.0,0.0,0.0,0.0,0.0,0.0,0.0,0.0,0.0,0.0,0.0,0.0,0.0,0.0,0.0,0.0,0.0,0.0,0.0,0.0,0.0,0.0,0.0,0.0,0.0,0.0,0.0,0.0,0.0,0.0,0.0,0.0,0.0,0.0,0.0,0.0,0.0,0.0,0.0,0.0,0.0,0.0,0.0,0.0,0.0,0.0,0.0,0.0,0.0,0.0,0.0,0.0,0.0,0.0,0.0,0.0,0.0,0.0,0.0,0.0,0.0,0.0,0.0,0.0,-3.4423,-3.4423,-3.4423,-3.436,-3.4423,-3.4235,-3.3922,-3.3922,-3.3743,0.0,0.0,0.0,0.0,0.0,0.0,0.0,0.0,0.0,0.0,0.0,0.0,0.0,0.0,0.0,0.0,0.0,0.0,0.0,0.0,0.0,0.0,0.0,0.0,0.0,0.0,0.0,0.0,0.0,0.0,0.0,0.0,0.0,0.0,0.0,0.0,0.0,0.0,0.0,0.0,0.0,0.0,0.0,0.0,0.0,0.0,0.0,0.0,0.0,0.0,0.0,0.0,0.0,0.0,0.0,0.0,0.0,0.0,0.0,0.0,0.0,0.0,0.0,0.0,0.0,0.0,0.0,0.0,0.0,0.0,0.0,0.0,0.0,0.0,0.0,0.0,0.0,0.0,0.0,0.0,0.0,0.0,0.0,0.0,0.0,0.0,0.0,0.0,0.0,0.0,0.0,0.0,0.0,0.0,0.0,0.0,0.0,0.0,0.0,0.0,0.0,0.0,0.0,-3.4047,-3.4047,-3.3985,-3.3733,-3.3922,-3.3922,-3.3607,-3.3544,-3.3485,-3.3368,0.0,0.0,0.0,0.0,0.0,0.0,0.0,0.0,0.0,0.0,0.0,0.0,0.0,0.0,0.0,0.0,0.0,0.0,0.0,0.0,0.0,0.0,0.0,0.0,0.0,0.0,0.0,0.0,0.0,0.0,0.0,0.0,0.0,0.0,0.0,0.0,0.0,0.0,0.0,0.0,0.0,0.0,0.0,0.0,0.0,0.0,0.0,0.0,0.0,0.0,0.0,0.0,0.0,0.0,0.0,0.0,0.0,0.0,0.0,0.0,0.0,0.0,0.0,0.0,0.0,0.0,0.0,0.0,0.0,0.0,0.0,0.0,0.0,0.0,0.0,0.0,0.0,0.0,0.0,0.0,0.0,0.0,0.0,0.0,0.0,0.0,0.0,0.0,0.0,0.0,0.0,0.0,0.0,0.0,0.0,0.0,0.0,0.0,0.0,0.0,0.0,0.0,-3.4246,-3.4246,-3.4118,-3.3926,-3.4118,-3.4118,-3.3926,-3.3769,-3.3691,-3.3691,0.0,0.0,0.0,0.0,0.0,0.0,0.0,0.0,0.0,0.0,0.0,0.0,0.0,0.0,0.0,0.0,0.0,0.0,0.0,0.0,0.0,0.0,0.0,0.0,0.0,0.0,0.0,0.0,0.0,0.0,0.0,0.0,0.0,0.0,0.0,0.0,0.0,0.0,0.0,0.0,0.0,0.0,0.0,0.0,0.0,0.0,0.0,0.0,0.0,0.0,0.0,0.0,0.0,0.0,0.0,0.0,0.0,0.0,0.0,0.0,0.0,0.0,0.0,0.0,0.0,0.0,0.0,0.0,0.0,0.0,0.0,0.0,0.0,0.0,0.0,0.0,0.0,0.0,0.0,0.0,0.0,0.0,0.0,0.0,0.0,0.0,0.0,0.0,0.0,0.0,0.0,0.0,0.0,0.0,0.0,0.0,0.0,0.0,0.0,0.0,0.0,0.0,-3.4707,-3.4707,-3.4707,-3.4707,-3.4707,-3.4707,-3.4707,-3.4355,-3.4121,-3.3927,0.0,0.0,0.0,0.0,0.0,0.0,0.0,0.0,0.0,0.0,0.0,0.0,0.0,0.0,0.0,0.0,0.0,0.0,0.0,0.0,0.0,0.0,0.0,0.0,0.0,0.0,0.0,0.0,0.0,0.0,0.0,0.0,0.0,0.0,0.0,0.0,0.0,0.0,0.0,0.0,0.0,0.0,0.0,0.0,0.0,0.0,0.0,0.0,0.0,0.0,0.0,0.0,0.0,0.0,0.0,0.0,0.0,0.0,0.0,0.0,-3.6211,-3.6016,0.0,0.0,0.0,0.0,0.0,0.0,0.0,0.0,0.0,0.0,0.0,0.0,0.0,0.0,0.0,0.0,0.0,0.0,0.0,0.0,0.0,0.0,0.0,0.0,0.0,0.0,0.0,0.0,0.0,0.0,0.0,0.0,0.0,0.0,0.0,0.0,0.0,0.0,0.0,0.0,-3.4707,-3.4707,-3.4707,-3.4707,-3.4707,-3.4707,-3.4707,-3.4609,-3.4093,-3.2935,-3.2728,0.0,0.0,0.0,0.0,0.0,0.0,0.0,0.0,0.0,0.0,0.0,0.0,0.0,0.0,0.0,0.0,0.0,0.0,0.0,0.0,0.0,0.0,0.0,0.0,0.0,0.0,0.0,0.0,0.0,0.0,0.0,0.0,0.0,0.0,0.0,0.0,0.0,0.0,0.0,0.0,0.0,0.0,0.0,0.0,0.0,0.0,0.0,0.0,0.0,0.0,0.0,0.0,0.0,0.0,0.0,0.0,0.0,0.0,0.0,-3.5478,-3.5314,0.0,0.0,0.0,0.0,0.0,0.0,0.0,0.0,0.0,0.0,0.0,0.0,0.0,0.0,0.0,0.0,0.0,0.0,0.0,0.0,0.0,0.0,0.0,0.0,0.0,0.0,0.0,0.0,0.0,0.0,0.0,0.0,0.0,0.0,0.0,0.0,0.0,0.0,0.0,0.0,-3.4288,-3.3594,-3.3188,-3.3188,-3.3188,-3.3188,-3.3188,-3.3022,-3.2557,-3.1812,-3.1346,0.0,0.0,0.0,0.0,0.0,0.0,0.0,0.0,0.0,0.0,0.0,0.0,0.0,0.0,0.0,0.0,0.0,0.0,0.0,0.0,0.0,0.0,0.0,0.0,0.0,0.0,0.0,0.0,0.0,0.0,0.0,0.0,0.0,0.0,0.0,0.0,0.0,0.0,0.0,0.0,0.0,0.0,0.0,0.0,0.0,0.0,0.0,0.0,0.0,0.0,0.0,0.0,0.0,-3.3466,-3.3397,-3.2176,-3.2246,-3.2281,-3.2351,-3.3945,-3.3927,-3.2947,-3.4574,0.0,0.0,0.0,0.0,0.0,0.0,0.0,0.0,0.0,0.0,0.0,0.0,0.0,0.0,0.0,0.0,0.0,0.0,0.0,0.0,0.0,0.0,-2.8612,-2.9923,-2.9269,-2.8536,-2.9271,0.0,0.0,0.0,0.0,0.0,0.0,0.0,0.0,0.0,0.0,0.0,-3.3276,-3.2141,-3.135,-3.1508,-3.135,-3.135,-3.1367,-3.1007,-3.0698,-3.0419,-2.9771,-2.9244,0.0,0.0,0.0,0.0,0.0,0.0,0.0,0.0,0.0,0.0,0.0,0.0,0.0,0.0,0.0,0.0,0.0,0.0,0.0,0.0,0.0,0.0,0.0,0.0,0.0,0.0,0.0,0.0,0.0,0.0,0.0,0.0,-3.5059,-3.5059,0.0,0.0,0.0,0.0,0.0,0.0,0.0,0.0,0.0,0.0,0.0,0.0,0.0,-3.0946,-3.0892,-3.0892,-3.0805,-3.0593,-3.0805,-3.0805,-3.061,-3.0926,-3.1004,-3.1021,-3.1281,0.0,-3.1181,-3.1605,0.0,0.0,0.0,0.0,0.0,0.0,0.0,0.0,0.0,0.0,0.0,0.0,0.0,0.0,0.0,0.0,0.0,0.0,0.0,0.0,0.0,0.0,-2.6025,-2.6177,-2.6101,-2.6012,-2.6068,-2.8547,-3.0716,-3.0788,-3.0596,-3.061,0.0,0.0,0.0,0.0,0.0,0.0,-3.1262,-3.0822,-3.0751,-3.1437,-3.0909,-3.061,-3.098,-3.063,-2.9835,-2.8567,-2.8377,-2.7731,-2.6387,-2.584,0.0,0.0,0.0,0.0,0.0,0.0,0.0,0.0,0.0,0.0,0.0,0.0,0.0,0.0,0.0,0.0,0.0,0.0,0.0,0.0,0.0,0.0,0.0,0.0,0.0,0.0,0.0,0.0,0.0,-3.499,-3.4921,-3.4921,-3.4921,-3.499,0.0,0.0,0.0,0.0,0.0,0.0,0.0,0.0,0.0,-3.1051,-3.0397,-2.99,-2.9686,-2.9686,-2.9274,-2.8413,-2.9465,-2.9488,-2.865,-2.8989,-2.9143,-2.9084,-2.8385,-2.8066,-2.8236,-3.0399,-3.0745,-3.0087,0.0,0.0,0.0,0.0,-3.0162,-2.9831,-2.8687,-2.7725,-2.6985,-2.6985,0.0,0.0,0.0,0.0,0.0,0.0,0.0,-2.6246,-2.6246,-2.6155,-2.6012,-2.6012,-2.6012,-2.6012,-2.6012,-2.7115,-2.8102,-2.8148,-2.8074,-2.8339,-2.9555,-2.9774,0.0,0.0,0.0,-2.9711,-2.9592,-2.8619,-2.8049,-2.8243,-2.7996,-2.7852,-2.7996,-2.7852,-2.749,-2.6867,-2.6575,-2.6152,-2.552,-2.5308,-2.5167,0.0,0.0,0.0,0.0,0.0,0.0,0.0,0.0,0.0,0.0,0.0,0.0,0.0,0.0,0.0,0.0,0.0,0.0,0.0,0.0,0.0,0.0,0.0,0.0,0.0,0.0,0.0,0.0,-3.4352,-3.4057,-3.4057,-3.3692,-3.3484,0.0,0.0,0.0,0.0,0.0,0.0,-3.0026,-2.9615,-2.9329,-2.9059,-2.8701,-2.8341,-2.7996,-2.7996,-2.7433,-2.6298,-2.7834,-2.7925,-2.6858,-2.7169,-2.7354,-2.7293,-2.6475,-2.6066,-2.63,-2.8951,-2.9396,-2.8505,-3.0269,-3.0977,-3.0792,-2.9348,-2.8567,-2.8154,-2.6647,-2.5976,-2.5732,-2.5732,-2.5732,-2.5785,-2.5999,0.0,0.0,0.0,0.0,-2.6386,-2.6386,-2.6386,-2.6386,-2.6386,-2.6386,-2.6386,-2.6386,-2.6226,-2.6141,-2.6076,-2.6031,-2.642,-2.7951,-2.8177,0.0,-2.9716,-2.8911,-2.8088,-2.7926,-2.6723,-2.594,-2.594,-2.5621,-2.5506,-2.5653,-2.558,-2.5506,-2.5506,-2.5294,-2.516,-2.5092,-2.516,-2.5012,-2.4636,0.0,0.0,0.0,0.0,0.0,0.0,0.0,0.0,0.0,0.0,0.0,0.0,0.0,0.0,0.0,0.0,0.0,0.0,0.0,0.0,0.0,0.0,0.0,0.0,0.0,0.0,0.0,0.0,0.0,-3.1649,-3.0359,0.0,0.0,0.0,0.0,-2.9916,-2.9488,-2.9274,-2.9274,-2.7852,-2.7085,-2.7085,-2.5639,-2.4844,-2.4844,-2.4844,-2.477,-2.471,-2.5154,-2.5302,-2.5241,-2.5819,-2.6087,-2.6101,-2.6318,-2.6373,-2.636,-2.6596,-2.6596,-2.6517,-2.6689,-2.6702,-2.6689,-2.661,-2.6517,-2.6517,-2.6425,-2.6346,-2.6346,-2.6346,-2.6346,-2.6346,-2.636,-2.6373,0.0,0.0,-2.6386,-2.6386,-2.6386,-2.6386,-2.6386,-2.6386,-2.6386,-2.6386,-2.6386,-2.6373,-2.6279,-2.6063,-2.5782,-2.5671,-2.6129,0.0,-2.6281,-2.6343,-2.6281,-2.6267,-2.6254,-2.5629,-2.5439,-2.6084,-2.5242,-2.4784,-2.5226,-2.4857,-2.4636,-2.4636,-2.4978,-2.493,-2.4649,-2.4903,-2.493,-2.4636,-2.4636,0.0,0.0,0.0,0.0,0.0,0.0,0.0,0.0,0.0,0.0,0.0,0.0,0.0,0.0,0.0,0.0,0.0,0.0,0.0,0.0,0.0,0.0,0.0,0.0,0.0,0.0,0.0,0.0,-2.9987,-2.956,0.0,-2.9417,-2.8357,-2.7795,-2.7939,-2.6852,-2.621,-2.621,-2.5712,-2.5433,-2.5433,-2.4931,-2.4636,-2.4636,-2.4636,-2.473,-2.493,-2.5224,-2.5451,-2.5651,-2.6052,-2.6239,-2.6239,-2.6346,-2.6386,-2.6386,-2.6386,-2.6386,-2.6386,-2.6386,-2.6386,-2.6386,-2.6386,-2.6386,-2.6386,-2.6386,-2.6386,-2.6386,-2.6386,-2.6386,-2.6386,-2.6386,-2.6386,-2.6386,-2.6386,-2.6386,-2.6386,-2.6386,-2.6253,-2.6106,-2.6106,-2.5959,-2.5825,-2.5825,-2.5825,-2.5798,-2.5692,-2.5745,-2.5876,-2.603,-2.5868,-2.5747,-2.5747,-2.5747,-2.568,-2.5491,-2.5219,-2.516,-2.5181,-2.4837,-2.4636,-2.4784,-2.471,-2.4636,-2.4636,-2.473,-2.4743,-2.4562,-2.4743,-2.4743,-2.4562,-2.4636,-2.4636,0.0,0.0,0.0,0.0,0.0,0.0,0.0,0.0,0.0,0.0,0.0,0.0,0.0,0.0,0.0,0.0,0.0,0.0,0.0,0.0,0.0,0.0,0.0,0.0,0.0,-2.9433,-2.8429,-2.8429,-2.7996,-2.7635,-2.7635,-2.6721,-2.6152,-2.6152,-2.5212,-2.4636,-2.4636,-2.4636,-2.4636,-2.4636,-2.4636,-2.4636,-2.4636,-2.4636,-2.4783,-2.5077,-2.5371,-2.5665,-2.605,-2.6253,-2.6386,-2.6386,-2.6386,-2.6386,-2.6386,-2.6386,-2.6386,-2.6386,-2.6386,-2.6386,-2.6386,-2.6386,-2.6386,-2.6386,-2.6386,-2.6386,-2.6386,-2.6386,-2.6386,-2.6386,-2.6386,-2.6319,-2.6239,-2.6239,-2.6172,-2.6092,-2.6092,-2.5945,-2.5812,-2.5812,-2.5651,-2.5518,-2.5518,-2.5518,-2.5518,-2.5518,-2.5678,-2.5812,-2.5812,-2.5638,-2.5518,-2.5518,-2.5518,-2.5451,-2.5251,-2.5144,-2.501,-2.481,-2.469,-2.4636,-2.4636,-2.4636,-2.4636,-2.4636,-2.473,-2.4743,-2.4562,-2.473,-2.4743,-2.4562,-2.4636,-2.4636,-2.4636,0.0,0.0,0.0,0.0,0.0,0.0,0.0,0.0,0.0,0.0,0.0,0.0,0.0,0.0,0.0,0.0,0.0,0.0,0.0,0.0,0.0,0.0,0.0,-2.8916,-2.7795,-2.6794,-2.6794,-2.5492,-2.4636,-2.4636,-2.4636,-2.4636,-2.4636,-2.4636,-2.4636,-2.4636,-2.4636,-2.4636,-2.4636,-2.4636,-2.4636,-2.4636,-2.4636,-2.4783,-2.5077,-2.5371,-2.5665,-2.605,-2.6253,-2.6386,-2.6386,-2.6386,-2.6386,-2.6386,-2.6386,-2.6386,-2.6386,-2.6386,-2.6386,-2.6386,-2.6386,-2.6386,-2.6386,-2.6386,-2.6386,-2.6386,-2.6386,-2.6386,-2.6386,-2.6386,-2.6199,-2.605,-2.605,-2.5758,-2.5545,-2.5545,-2.5531,-2.5531,-2.5531,-2.5518,-2.5518,-2.5518,-2.5518,-2.5518,-2.5518,-2.5518,-2.5504,-2.5504,-2.5491,-2.5491,-2.5491,-2.5491,0.0,-2.5491,-2.5237,-2.5064,-2.5064,-2.481,-2.4636,-2.4636,-2.4636,-2.4636,-2.4636,-2.4903,-2.493,-2.4649,-2.4917,-2.493,-2.4649,-2.4636,-2.4636,-2.4636,0.0,0.0,0.0,0.0,0.0,0.0,0.0,0.0,0.0,0.0,0.0,0.0,0.0,0.0,0.0,0.0,0.0,0.0,0.0,0.0,0.0,-2.7157,-2.7085,-2.7433,-2.621,-2.5212,-2.5212,-2.4857,-2.4636,-2.4636,-2.4636,-2.4636,-2.4636,-2.4636,-2.4636,-2.4636,-2.4636,-2.4636,-2.4636,-2.4636,-2.4636,-2.4636,-2.4636,-2.4783,-2.5077,-2.5371,-2.5665,-2.605,-2.6253,-2.6386,-2.6386,-2.6386,-2.6386,-2.6386,-2.6386,-2.6386,-2.6386,-2.6386,-2.6386,-2.6386,-2.6386,-2.6386,-2.6386,-2.6386,-2.6386,-2.6386,-2.6386,-2.6386,-2.6386,-2.6386,-2.6333,-2.6266,-2.6266,-2.6213,-2.6146,-2.6146,-2.5999,-2.5838,-2.5838,-2.5665,-2.5518,-2.5518,-2.5518,-2.5518,-2.5518,-2.5518,-2.5451,-2.5237,-2.5024,-2.4877,-2.4877,-2.4877,-2.4877,-2.4877,-2.481,-2.4756,-2.4756,-2.469,-2.4636,-2.4636,-2.4636,-2.4636,-2.4636,-2.4716,-2.4716,-2.4562,-2.4716,-2.4716,-2.4636,-2.4636,-2.4636,0.0,0.0,0.0,0.0,0.0,0.0,0.0,0.0,0.0,0.0,0.0,0.0,0.0,0.0,0.0,0.0,0.0,0.0,0.0,0.0,0.0,0.0,-2.5932,-2.5932,-2.5932,-2.5139,-2.4636,-2.4636,-2.4636,-2.4636,-2.4636,-2.4636,-2.4636,-2.4636,-2.4636,-2.4636,-2.4636,-2.4636,-2.4636,-2.4636,-2.4636,-2.4636,-2.4636,-2.4756,-2.497,-2.5264,-2.5558,-2.5852,-2.6146,-2.6319,-2.6386,-2.6386,-2.6386,-2.6386,-2.6386,-2.6386,-2.6386,-2.6386,0.0,0.0,0.0,0.0,-2.6386,-2.6386,-2.6386,-2.6386,-2.6386,-2.6386,-2.6386,-2.6386,-2.6386,-2.6306,-2.6213,-2.6213,-2.6119,-2.6026,-2.6026,-2.5892,-2.5772,-2.5772,-2.5638,-2.5518,-2.5518,-2.5518,-2.5518,-2.5518,-2.5518,0.0,-2.5291,-2.5024,-2.4823,-2.4823,-2.4823,-2.4823,-2.4823,-2.493,-2.4957,-2.4836,-2.4823,-2.477,-2.4649,-2.4636,0.0,0.0,0.0,-2.4636,-2.4636,-2.4636,0.0,0.0,0.0,-2.4267,-2.3574,-2.267,0.0,0.0,-2.0864,-2.0714,0.0,0.0,0.0,0.0,0.0,0.0,0.0,0.0,0.0,0.0,0.0,0.0,0.0,0.0,0.0,0.0,-2.4636,-2.4636,-2.4636,-2.4636,-2.4636,-2.4636,-2.4636,-2.4636,-2.4636,-2.4636,-2.4636,-2.4636,-2.4636,-2.4636,-2.4636,-2.4636,0.0,0.0,0.0,-2.469,-2.469,-2.4983,-2.5251,-2.5518,-2.5812,-2.6092,-2.6346,-2.6373,-2.6386,-2.6386,-2.6386,-2.6386,-2.6386,-2.6386,-2.6386,-2.6386,-2.6386,-2.6386,-2.6386,-2.6386,-2.6386,-2.6386,-2.6386,0.0,0.0,-2.6386,-2.6386,-2.6386,-2.6386,-2.6213,-2.609,-2.609,-2.5812,-2.5611,-2.5611,-2.5611,-2.5611,-2.5611,-2.5611,-2.5611,-2.5611,-2.5611,-2.5611,-2.5611,-2.5611,-2.5611,-2.5611,-2.5344,-2.513,-2.513,-2.513,-2.513,-2.513,-2.5358,-2.5411,-2.5157,-2.513,0.0,-2.4756,-2.473,-2.473,-2.473,-2.473,-2.4716,-2.469,-2.4467,-2.4367,-2.4341,-2.4179,-2.3351,-2.1924,-2.1775,-2.0188,-1.7407,-1.883,-1.9434,0.0,0.0,0.0,0.0,0.0,0.0,0.0,0.0,0.0,0.0,0.0,0.0,0.0,0.0,0.0,-2.4636,-2.4636,-2.4636,-2.4636,-2.4636,-2.4636,-2.4636,-2.4636,-2.4636,-2.4636,-2.4636,-2.4636,-2.4636,-2.4636,-2.4636,-2.4636,-2.4636,-2.4636,-2.4636,-2.4863,-2.4997,-2.4997,-2.5291,-2.5464,-2.5518,-2.5812,0.0,-2.6052,-2.6279,-2.6386,-2.6386,-2.6386,-2.6386,-2.6386,-2.6386,-2.6386,-2.6386,-2.6386,-2.6386,-2.6386,-2.6386,-2.6386,-2.6386,-2.6386,-2.6386,-2.6386,-2.6386,-2.6386,-2.6386,-2.6386,-2.6346,0.0,-2.6306,-2.6266,-2.6226,-2.6226,-2.6226,-2.6226,-2.6226,-2.6226,-2.6226,-2.6226,-2.6226,-2.6226,-2.6226,-2.6226,-2.6226,-2.6226,-2.5785,-2.5424,-2.5424,-2.5424,-2.5424,-2.5424,-2.5478,-2.5491,-2.5438,-2.5424,-2.5411,-2.5344,-2.5344,-2.5344,-2.5344,-2.5344,-2.5237,-2.4997,-2.3769,-2.2979,-2.2682,-2.14,-2.0564,-2.0263,-1.8981,-1.8006,-1.7407,-1.7702,-1.7169,0.0,0.0,0.0,0.0,0.0,0.0,0.0,0.0,0.0,0.0,0.0,-2.6648,-2.5859,0.0,-2.4636,-2.4636,-2.4636,-2.4636,-2.4636,-2.4636,-2.4636,-2.4636,-2.4636,-2.4636,-2.4636,-2.4636,-2.4636,-2.4636,-2.4636,-2.4636,-2.4636,-2.4636,-2.4703,-2.485,-2.4997,-2.5144,-2.5291,-2.5585,-2.5732,-2.5732,-2.6039,-2.6172,-2.6172,-2.6319,-2.6386,-2.6386,-2.6386,-2.6386,-2.6386,-2.6386,-2.6386,-2.6386,-2.6386,-2.6386,-2.6386,-2.6386,-2.6386,-2.6386,-2.6386,-2.6386,-2.6386,-2.6386,-2.6386,-2.6386,-2.6386,-2.6386,-2.6386,-2.6149,-2.607,-2.607,-2.5832,-2.5766,-2.5766,-2.5766,-2.5766,-2.5766,-2.5766,-2.5766,-2.5832,-2.607,-2.607,-2.6149,-2.6386,-2.6146,-2.5905,-2.5758,-2.5732,-2.5732,-2.5732,-2.5865,-2.5892,-2.5745,-2.5732,-2.5678,-2.5518,-2.5518,-2.5122,-2.4252,-2.5045,-2.5056,-2.4049,-2.3197,-2.2283,-2.1238,-2.0473,-1.9629,-1.8859,-1.8019,-1.7253,-1.6485,-1.6485,-1.5915,0.0,0.0,0.0,0.0,0.0,0.0,0.0,-2.8285,-2.7924,-2.6721,-2.643,-2.6078,-2.4857,-2.4636,-2.4636,-2.4636,-2.4636,-2.4636,-2.4636,-2.4636,-2.4636,-2.4636,-2.4636,-2.4636,-2.4636,-2.4636,-2.4636,-2.4636,-2.4636,-2.4636,-2.4636,-2.469,-2.4836,-2.5077,-2.5184,-2.5358,-2.5598,-2.5892,-2.6117,-2.6039,-2.6279,-2.6386,-2.6386,-2.6386,-2.6386,-2.6386,-2.6386,-2.6386,-2.6307,-2.6307,-2.6228,-2.6149,-2.6149,-2.6149,-2.6149,-2.6228,-2.6228,-2.6149,-2.6149,-2.6149,-2.6149,-2.6149,-2.6149,-2.6149,-2.6149,-2.6149,-2.607,-2.5753,-2.5673,-2.5594,-2.5209,-2.513,-2.513,-2.513,-2.513,-2.513,-2.513,-2.513,-2.5209,-2.5594,-2.5673,-2.5832,-2.6228,-2.6228,-2.6148,-2.6079,-2.6117,-2.6117,-2.6117,-2.6239,-2.6306,-2.6066,-2.6117,-2.5868,-2.5229,-2.5139,-2.4418,-2.2685,-2.3863,-2.3993,-2.2447,-2.2136,-2.1257,-1.9651,-1.9338,-1.8553,-1.7153,-1.7153,-1.6528,-1.5273,-1.5353,-1.5279,-2.9392,-2.9488,-2.9059,-2.7505,-2.7157,-2.6794,0.0,-2.5139,-2.5065,-2.4918,-2.4857,-2.4784,-2.4636,-2.4636,-2.4636,-2.4636,-2.4636,-2.4636,-2.4636,-2.4636,-2.4636,-2.4636,-2.4636,-2.4636,-2.4636,-2.4636,-2.4636,-2.4636,-2.4636,-2.4636,-2.4636,-2.489,-2.505,-2.5077,-2.5585,-2.5879,-2.5905,-2.6199,-2.6346,-2.6346,-2.6373,-2.6386,-2.6386,-2.6386,-2.6386,-2.6386,-2.6386,-2.6228,-2.5832,-2.5832,-2.5594,-2.5289,-2.5289,-2.5289,-2.5289,-2.5673,-2.5594,-2.5289,-2.5289,-2.5289,-2.5289,-2.5289,-2.5289,-2.5289,-2.5289,-2.5289,-2.5209,-2.5209,-2.5209,-2.513,-2.513,-2.513,-2.513,-2.513,-2.513,-2.513,-2.513,-2.513,-2.513,-2.513,-2.5209,-2.5289,-2.5753,-2.5527,-2.5514,-2.6267,-2.6346,-2.6346,-2.6346,-2.6373,-2.6373,-2.6346,-2.6346,-2.5687,-2.4129,-2.397,-2.3241,-2.1537,-2.1537,-2.1279,-2.0417,-1.9473,-1.8271,-1.7047,-1.5964,-1.5178,-1.462,-1.462,-1.4548,-1.4388,-1.4707,-1.509,-2.7452,-2.6858,-2.6157,-2.552,-2.5316,-2.5212,-2.4743,-2.4636,-2.4636,-2.4636,-2.4636,-2.4636,-2.4636,-2.4636,-2.4636,-2.4636,-2.4636,-2.4636,-2.4636,-2.4636,-2.4636,-2.4636,-2.4636,-2.4636,-2.4636,-2.4636,-2.4636,-2.4636,-2.4636,-2.4716,-2.489,-2.4785,-2.4846,-2.5188,-2.5192,-2.5479,-2.5885,-2.6004,-2.6149,-2.6386,-2.6386,-2.6386,-2.6386,-2.6149,-2.5911,-2.5686,-2.5911,-2.5832,-2.5356,-2.5356,-2.5289,-2.513,-2.513,-2.497,-2.4811,-2.5209,-2.5289,-2.513,-2.513,-2.513,-2.513,-2.513,-2.513,-2.513,-2.513,-2.513,-2.505,-2.4811,-2.4731,-2.4652,-2.4412,-2.4332,-2.4332,-2.4332,-2.4332,-2.4332,-2.4332,-2.4332,-2.4412,-2.4731,-2.4731,-2.4891,-2.5289,-2.5337,-2.5452,-2.5853,-2.5937,-2.607,-2.607,-2.6228,-2.6386,-2.6386,-2.6386,-2.5263,-2.251,-2.3244,-2.2522,-1.9521,-2.0322,-2.0109,-1.8565,-1.8008,-1.708,-1.5553,-1.4992,-1.4675,-1.4512,-1.4512,-1.4512,-1.4512,-1.4675,-1.4837,-2.5621,-2.4745,-2.4102,-2.4182,-2.4209,-2.4275,-2.4569,-2.4636,-2.4636,-2.4636,-2.4636,-2.4636,-2.4636,-2.4636,-2.4636,-2.4636,-2.4636,-2.4636,-2.4636,-2.4636,-2.4636,-2.4636,-2.4636,-2.4636,-2.4636,-2.4636,-2.4676,-2.4756,-2.4756,-2.4815,-2.5033,-2.4809,-2.4815,-2.5153,-2.4931,-2.5071,-2.5594,-2.5753,-2.5911,-2.607,-2.6307,-2.6307,-2.6228,-2.5911,-2.5514,-2.513,-2.5448,-2.5368,-2.4891,-2.4891,-2.4891,-2.4731,-2.4731,-2.4572,-2.4332,-2.4652,-2.4731,-2.4731,-2.4731,-2.4731,-2.4731,-2.4731,-2.4731,-2.4731,-2.4731,-2.4731,-2.4652,-2.4412,-2.4332,-2.4252,-2.392,-2.376,-2.376,-2.376,-2.376,-2.376,-2.376,-2.39,-2.4029,-2.4363,-2.4505,-2.4634,-2.5118,-2.52,-2.5326,-2.5407,-2.5567,-2.5747,-2.5987,-2.6387,-2.6627,-2.648,-2.656,-2.524,-2.166,-2.2391,-2.1497,-1.7652,-1.8467,-1.8348,-1.6575,-1.6575,-1.5899,-1.439,-1.4473,-1.4473,-1.43,-1.43,-1.43,-1.43,-1.4473,-1.4555,-2.391,-2.3852,-2.3848,-2.4142,-2.4209,-2.4275,-2.4569,-2.4636,-2.4636,-2.4636,-2.4636,-2.4636,-2.4636,-2.4636,-2.4636,-2.4636,-2.4636,-2.4636,-2.4636,-2.4636,-2.4636,-2.4636,-2.4636,-2.4636,-2.4636,-2.4636,-2.4756,-2.5037,-2.5064,-2.5046,-2.4943,-2.514,-2.5062,-2.4763,-2.4964,-2.5117,-2.513,-2.5594,-2.5594,-2.513,-2.6004,-2.6228,-2.5832,-2.5832,-2.5514,-2.513,-2.513,-2.4891,-2.4492,-2.4492,-2.4252,-2.384,-2.384,-2.384,-2.384,-2.384,-2.384,-2.384,-2.384,-2.384,-2.384,-2.384,-2.384,-2.384,-2.384,-2.384,-2.384,-2.384,-2.384,-2.384,-2.376,-2.376,-2.376,-2.376,-2.376,-2.376,-2.376,-2.3965,-2.4226,-2.4226,-2.4432,-2.4766,-2.519,-2.4943,-2.4778,-2.5203,-2.5273,-2.5602,-2.6436,-2.6996,-2.7078,-2.66,-2.6996,-2.5823,-2.2161,-2.1483,-1.9716,-1.6212,-1.5624,-1.5038,-1.4455,-1.4784,-1.4467,-1.3486,-1.3901,-1.3901,-1.3403,-1.3403,-1.3403,-1.3486,-1.3901,-1.4149,-2.322,-2.3531,-2.3794,-2.3888,-2.4062,-2.4275,-2.4569,-2.4636,-2.4636,-2.4636,-2.4636,-2.4636,-2.4636,-2.4636,-2.4636,-2.4636,-2.4636,-2.4636,-2.4636,-2.4636,-2.4636,-2.4636,-2.481,-2.493,-2.493,-2.493,-2.497,-2.5077,-2.5251,-2.5338,-2.5166,-2.5037,-2.4786,-2.4581,-2.4363,-2.4412,-2.4731,-2.4891,-2.497,-2.513,-2.5368,-2.5368,-2.497,-2.5209,-2.4958,-2.4252,-2.4572,-2.4412,-2.4012,-2.4012,-2.392,-2.376,-2.376,-2.376,-2.376,-2.376,-2.376,-2.376,-2.376,-2.376,-2.376,-2.376,-2.376,-2.376,-2.376,-2.376,-2.376,-2.376,-2.376,-2.376,-2.376,-2.376,-2.376,-2.376,-2.376,-2.3808,-2.4069,-2.4178,-2.4287,-2.4456,-2.4564,-2.4625,-2.479,-2.4865,-2.4963,-2.5313,-2.5367,-2.5462,-2.6039,-2.6285,-2.6285,-2.6121,-2.6285,-2.4931,-2.1254,-2.0825,-1.9063,-1.5205,-1.4785,-1.4508,-1.4025,-1.4103,-1.3998,-1.3695,-1.378,-1.378,-1.3695,-1.3695,-1.3695,-1.3695,-1.3865,-1.3865,-2.3046,-2.3313,-2.3661,-2.3875,-2.4062,-2.4275,-2.4569,-2.4636,-2.4636,-2.4636,-2.4636,-2.4636,-2.4636,-2.4636,-2.4636,-2.4636,-2.4636,-2.4636,-2.4636,-2.473,-2.4796,-2.4796,-2.505,-2.5237,-2.5237,-2.5331,-2.5398,-2.5398,-2.5571,-2.5644,-2.5453,-2.5086,-2.4781,-2.4492,-2.4012,-2.392,-2.4252,-2.4572,-2.4891,-2.5368,-2.505,-2.4731,-2.4492,-2.4731,-2.4492,-2.3852,-2.4092,-2.4092,-2.376,-2.376,-2.376,-2.376,-2.376,-2.376,-2.376,-2.376,-2.376,-2.376,-2.376,-2.376,-2.376,-2.376,-2.376,-2.376,-2.376,-2.376,-2.376,-2.376,-2.376,-2.376,-2.376,-2.376,-2.3784,-2.388,-2.3904,-2.4057,-2.4323,-2.4456,-2.4576,-2.4745,-2.4854,-2.4914,-2.4914,-2.5071,-2.524,-2.5409,-2.5397,-2.5416,-2.5678,-2.5999,-2.6166,-2.5999,-2.6082,-2.4723,-2.1071,-2.0637,-1.8861,-1.4952,-1.4527,-1.4239,-1.3926,-1.3926,-1.3899,-1.3844,-1.3838,-1.3838,-1.3838,-1.3838,-1.3838,-1.3838,-1.3838,-1.3838,-2.3247,-2.334,-2.3487,-2.4062,-2.4209,-2.4302,-2.4569,-2.4636,-2.4636,-2.4636,-2.4636,-2.4636,-2.4636,-2.4636,-2.4636,-2.4636,-2.4636,-2.4636,-2.4589,-2.4903,-2.509,-2.5104,-2.5358,-2.5531,-2.5531,-2.5798,-2.605,-2.605,-2.605,-2.5936,-2.574,-2.5368,-2.4891,-2.4492,-2.4,-2.376,-2.376,-2.4652,-2.5289,-2.5673,-2.4891,-2.4492,-2.4492,-2.4492,-2.4252,-2.376,-2.376,-2.376,-2.376,-2.376,-2.376,-2.376,-2.376,-2.376,-2.376,-2.376,-2.376,-2.376,-2.376,-2.376,-2.376,-2.376,-2.376,-2.376,-2.376,-2.376,-2.384,-2.384,-2.384,-2.384,-2.384,-2.3852,-2.3844,-2.4178,-2.4251,-2.4323,-2.4589,-2.4854,-2.4963,-2.4975,-2.5264,-2.5433,-2.5433,-2.5433,-2.5433,-2.5433,-2.5433,-2.5433,-2.5433,-2.6201,-2.6528,-2.6103,-2.6443,-2.5227,-2.1587,-2.0799,-1.8976,-1.5344,-1.4564,-1.4238,-1.4089,-1.4082,-1.4014,-1.3865,-1.3865,-1.3865,-1.3865,-1.3865,-1.3865,-1.3865,-1.3865,-1.3865,-2.3247,-2.3487,-2.3741,-2.4115,-2.4369,-2.4543,-2.4549,-2.4636,-2.4636,-2.4636,-2.4636,-2.4636,-2.4636,-2.4636,-2.4636,-2.4636,-2.4636,-2.4716,-2.493,-2.5037,-2.5157,-2.5371,-2.5665,-2.5838,-2.5838,-2.6106,-2.6279,-2.6279,-2.6279,-2.6004,-2.5289,-2.513,-2.4731,-2.4,-2.384,-2.376,-2.376,-2.4,-2.416,-2.432,-2.408,-2.4012,-2.4012,-2.4012,-2.392,-2.376,-2.376,-2.376,-2.376,-2.376,-2.376,-2.376,-2.376,-2.376,-2.376,-2.376,-2.376,-2.376,-2.376,-2.376,-2.376,-2.376,-2.376,-2.376,-2.376,-2.376,-2.384,-2.4252,-2.4092,-2.384,-2.4252,-2.4239,-2.4154,-2.4214,-2.4383,-2.4601,-2.4878,-2.4915,-2.5023,-2.5301,-2.5397,-2.5433,-2.5433,-2.5433,-2.5433,-2.5433,-2.5433,-2.5433,-2.5433,-2.5604,-2.569,-2.5604,-2.569,-2.4823,-2.2471,-2.0905,-1.9081,-1.6737,-1.5175,-1.4285,-1.4245,-1.4245,-1.4224,-1.4183,-1.4183,-1.4183,-1.4183,-1.4183,-1.4183,-1.4183,-1.4183,-1.4183,-2.3434,-2.3741,-2.4035,-2.4329,-2.4516,-2.4636,-2.4636,-2.4636,-2.4636,-2.4636,-2.4636,-2.4636,-2.4636,-2.4636,-2.4636,-2.4636,-2.4636,-2.4743,-2.5037,-2.5184,-2.5384,-2.5678,-2.5972,-2.6146,-2.6146,-2.6293,-2.6386,-2.6386,-2.6386,-2.6149,-2.5686,-2.5289,-2.4891,-2.4412,-2.4,-2.392,-2.4092,-2.392,-2.392,-2.4092,-2.4092,-2.4,-2.384,-2.4012,-2.4,-2.376,-2.376,-2.376,-2.376,-2.376,-2.376,-2.376,-2.376,-2.376,-2.376,-2.376,-2.376,-2.376,-2.376,-2.376,-2.376,-2.376,-2.376,-2.376,-2.376,-2.376,-2.384,-2.4092,-2.4097,-2.4021,-2.4263,-2.4377,-2.4432,-2.4482,-2.4709,-2.489,-2.5156,-2.5216,-2.5264,-2.5409,-2.5433,-2.5433,-2.5433,-2.5433,-2.5433,-2.5433,-2.5433,-2.5433,-2.5433,-2.5433,-2.5433,-2.5433,-2.5433,-2.4652,-2.2826,-2.1694,-1.996,-1.7263,-1.613,-1.5175,-1.4299,-1.4299,-1.4299,-1.4299,-1.4299,-1.4299,-1.4299,-1.4299,-1.4299,-1.4299,-1.4299,-1.4299,-2.3688,-2.3981,-2.4275,-2.4569,-2.4636,-2.4636,-2.4636,-2.4636,-2.4636,-2.4636,-2.4636,-2.4636,-2.4636,-2.4636,-2.4636,-2.4636,-2.4636,-2.4756,-2.509,-2.5358,-2.5638,-2.5972,-2.6239,-2.6386,-2.6386,-2.6386,-2.6386,-2.6386,-2.6386,-2.6307,-2.6228,-2.5527,-2.505,-2.4891,-2.4252,-2.4092,-2.4492,-2.4,-2.4012,-2.4492,-2.4492,-2.4252,-2.3852,-2.4252,-2.4252,-2.376,-2.376,-2.376,-2.376,-2.376,-2.376,-2.376,-2.376,-2.376,-2.384,-2.384,-2.392,-2.392,-2.392,-2.392,-2.392,-2.392,-2.3852,-2.384,-2.384,-2.3852,-2.3852,-2.3888,-2.4057,-2.4238,-2.4356,-2.448,-2.4745,-2.4903,-2.4987,-2.5156,-2.5385,-2.5433,-2.5433,-2.5433,-2.5433,-2.5433,-2.5433,-2.5433,-2.5433,-2.5433,-2.5433,-2.5446,-2.5482,-2.5458,-2.5433,-2.5433,-2.5433,-2.4738,-2.3181,-2.274,-2.1175,-1.7701,-1.7263,-1.6217,-1.4387,-1.4299,-1.4299,-1.4299,-1.4299,-1.4299,-1.4299,-1.4299,-1.4299,-1.4299,-1.4299,-1.4299,-2.3688,-2.3981,-2.4275,-2.4569,-2.4636,-2.4636,-2.4636,-2.4636,-2.4636,-2.4636,-2.4636,-2.4636,-2.4636,-2.4636,-2.4636,-2.4636,-2.4636,-2.4823,-2.5358,-2.5478,-2.5718,-2.6253,-2.636,-2.6386,-2.6386,-2.6386,-2.6386,-2.6386,-2.6386,-2.607,-2.5368,-2.5209,-2.4811,-2.408,-2.4252,-2.4412,-2.4492,-2.4,-2.4012,-2.4492,-2.4492,-2.4252,-2.3852,-2.4252,-2.4252,-2.376,-2.376,-2.376,-2.376,-2.376,-2.376,-2.376,-2.376,-2.376,-2.3852,-2.4252,-2.4412,-2.4412,-2.4731,-2.4652,-2.4412,-2.4412,-2.4092,-2.384,-2.4252,-2.4092,-2.3888,-2.4522,-2.4446,-2.4368,-2.4915,-2.5019,-2.4903,-2.4951,-2.5132,-2.5385,-2.5421,-2.5433,-2.5433,-2.5433,-2.5433,-2.5433,-2.5433,-2.5433,-2.5433,-2.5433,-2.5433,-2.5518,-2.5735,-2.5566,-2.5433,-2.5433,-2.5433,-2.5263,-2.5006,-2.3525,-2.1694,-1.9525,-1.7964,-1.6217,-1.4387,-1.4299,-1.4299,-1.4299,-1.4299,-1.4299,-1.4299,-1.4299,-1.4299,-1.4299,-1.4299,-1.4299,-2.3728,-2.4088,-2.4462,-2.4596,-2.4636,-2.4636,-2.4636,-2.4636,-2.4636,-2.4636,-2.4636,-2.4636,-2.4636,-2.4636,-2.4636,-2.4636,-2.4636,-2.4783,-2.5224,-2.5424,-2.5678,-2.6106,-2.6306,-2.6386,-2.6386,-2.6386,-2.6386,-2.6386,-2.6386,-2.6149,-2.5514,-2.505,-2.4492,-2.384,-2.4252,-2.4492,-2.4492,-2.4492,-2.4572,-2.4811,-2.505,-2.4958,-2.4492,-2.4731,-2.4572,-2.4172,-2.392,-2.376,-2.376,-2.376,-2.376,-2.384,-2.4092,-2.4172,-2.4252,-2.4652,-2.4811,-2.4811,-2.505,-2.4811,-2.4492,-2.4731,-2.4332,-2.3876,-2.4251,-2.4207,-2.4106,-2.4617,-2.4705,-2.4685,-2.5068,-2.5215,-2.5252,-2.5252,-2.5349,-2.5433,-2.5433,-2.5433,-2.5433,-2.5433,-2.5433,-2.5433,-2.5433,-2.5433,-2.5433,-2.5433,-2.5554,-2.5687,-2.5808,-2.5832,-2.5844,-2.5844,-2.5844,-2.5844,-2.5844,-2.4963,-2.3283,-2.0371,-1.9399,-1.7542,-1.4619,-1.4455,-1.4407,-1.4407,-1.434,-1.4299,-1.4299,-1.4299,-1.4299,-1.4299,-1.4299,-1.4299,-2.3674,-2.4048,-2.4449,-2.4449,-2.4449,-2.4449,-2.4449,-2.4449,-2.4462,-2.4529,-2.4543,-2.4569,-2.4623,-2.4636,-2.4636,-2.4636,-2.4636,-2.4743,-2.5037,-2.5331,-2.5625,-2.5996,-2.6213,-2.6386,-2.6386,-2.6386,-2.6386,-2.6386,-2.6307,-2.607,-2.5673,-2.497,-2.4412,-2.392,-2.4412,-2.4652,-2.4811,-2.497,-2.513,-2.5289,-2.5594,-2.5514,-2.513,-2.513,-2.4891,-2.4492,-2.4,-2.376,-2.384,-2.392,-2.3932,-2.4,-2.4412,-2.4652,-2.4652,-2.513,-2.5289,-2.5289,-2.5368,-2.505,-2.4652,-2.497,-2.4492,-2.3888,-2.4235,-2.432,-2.4299,-2.4625,-2.4878,-2.4975,-2.5035,-2.5204,-2.5433,-2.5433,-2.5433,-2.5433,-2.5433,-2.5433,-2.5433,-2.5433,-2.5433,-2.5433,-2.5433,-2.5433,-2.5458,-2.5518,-2.5699,-2.5868,-2.5989,-2.6182,-2.6327,-2.6387,-2.6291,-2.6218,-2.6218,-2.6218,-2.4783,-2.1293,-2.1115,-1.941,-1.5462,-1.525,-1.5007,-1.4563,-1.4448,-1.4394,-1.4394,-1.436,-1.4346,-1.4346,-1.4312,-1.4299,-2.3367,-2.3607,-2.3848,-2.3848,-2.3848,-2.3848,-2.3848,-2.3848,-2.3928,-2.4195,-2.4249,-2.4329,-2.4596,-2.4636,-2.4636,-2.4636,-2.4636,-2.4743,-2.5037,-2.5331,-2.5625,-2.5996,-2.6213,-2.6386,-2.6386,-2.6386,-2.6386,-2.6386,-2.607,-2.5673,-2.5209,-2.505,-2.4891,-2.4412,-2.4811,-2.5289,-2.5673,-2.5289,-2.5289,-2.5753,-2.5753,-2.5514,-2.513,-2.513,-2.4891,-2.4492,-2.4,-2.376,-2.384,-2.4252,-2.4412,-2.4492,-2.4891,-2.505,-2.513,-2.5594,-2.5753,-2.5753,-2.6149,-2.5766,-2.505,-2.505,-2.4492,-2.39,-2.4652,-2.4564,-2.4347,-2.4866,-2.4939,-2.5108,-2.5337,-2.5421,-2.5433,-2.5433,-2.5433,-2.5433,-2.5433,-2.5433,-2.5433,-2.5433,-2.5433,-2.5433,-2.5433,-2.5433,-2.5518,-2.5759,-2.5808,-2.6013,-2.6496,-2.658,-2.6689,-2.693,-2.652,-2.6218,-2.6218,-2.6218,-2.5325,-2.3254,-2.3165,-2.1383,-1.7624,-1.7427,-1.6522,-1.4719,-1.4706,-1.4699,-1.4699,-1.4563,-1.4489,-1.4489,-1.436,-1.4299,-2.3327,-2.3541,-2.3768,-2.3768,-2.3768,-2.3768,-2.3768,-2.3768,-2.3808,-2.3915,-2.4075,-2.4235,-2.4356,-2.4516,-2.4636,-2.4636,-2.4636,-2.4676,-2.4796,-2.5211,-2.5558,-2.5678,-2.6106,-2.6386,-2.6386,-2.6386,-2.6386,-2.6386,-2.6228,-2.599,-2.5514,-2.505,-2.4652,-2.4492,-2.4891,-2.5209,-2.5368,-2.5686,-2.599,-2.6149,-2.6149,-2.607,-2.5845,-2.5368,-2.497,-2.4811,-2.4412,-2.4252,-2.4252,-2.4652,-2.4891,-2.4891,-2.5368,-2.5514,-2.5594,-2.599,-2.6149,-2.6149,-2.6307,-2.599,-2.5514,-2.5514,-2.5244,-2.487,-2.4723,-2.4671,-2.4806,-2.518,-2.5277,-2.5313,-2.5409,-2.5433,-2.5433,-2.5433,-2.5433,-2.5433,-2.5433,-2.5433,-2.5433,-2.5433,-2.5433,-2.5433,-2.5433,-2.5433,-2.553,-2.5784,-2.5965,-2.6206,-2.6592,-2.6773,-2.6918,-2.7015,-2.6834,-2.6701,-2.6701,-2.6701,-2.5881,-2.3954,-2.3774,-2.2596,-1.986,-1.8475,-1.7413,-1.6598,-1.5329,-1.474,-1.474,-1.4679,-1.4652,-1.4645,-1.459,-1.4563,-2.3193,-2.334,-2.35,-2.35,-2.35,-2.35,-2.35,-2.35,-2.3527,-2.3621,-2.3808,-2.3995,-2.4168,-2.4369,-2.4529,-2.4623,-2.4636,-2.4636,-2.4636,-2.5064,-2.5411,-2.5504,-2.5959,-2.6293,-2.6386,-2.6386,-2.6386,-2.6386,-2.6386,-2.6307,-2.599,-2.5276,-2.4891,-2.4891,-2.513,-2.5368,-2.5448,-2.607,-2.6386,-2.6386,-2.6386,-2.6386,-2.6386,-2.5607,-2.5289,-2.5289,-2.4891,-2.4652,-2.4731,-2.513,-2.5289,-2.5368,-2.5832,-2.599,-2.599,-2.6307,-2.6386,-2.6386,-2.6386,-2.6149,-2.5832,-2.5832,-2.5773,-2.5633,-2.5153,-2.5246,-2.5432,-2.5701,-2.5775,-2.5775,-2.5775,-2.569,-2.5604,-2.5604,-2.5519,-2.5433,-2.5433,-2.5433,-2.5433,-2.5433,-2.5433,-2.5433,-2.5433,-2.5433,-2.5554,-2.5892,-2.6097,-2.6351,-2.6713,-2.6918,-2.7027,-2.7027,-2.7027,-2.7027,-2.7027,-2.7027,-2.6379,-2.5081,-2.499,-2.4064,-2.2034,-2.0501,-1.942,-1.8877,-1.6743,-1.5689,-1.5689,-1.5103,-1.4808,-1.4808,-1.476,-1.474,-2.2928,-2.2941,-2.2941,-2.2941,-2.2941,-2.2941,-2.2941,-2.2941,-2.2953,-2.326,-2.334,-2.3514,-2.4102,-2.4209,-2.4302,-2.4596,-2.4636,-2.4636,-2.4636,-2.489,-2.5197,-2.5478,-2.5785,-2.6079,-2.636,-2.6386,-2.6386,-2.6386,-2.6386,-2.6386,-2.6386,-2.599,-2.5753,-2.5753,-2.5832,-2.599,-2.6386,-2.6386,-2.6386,-2.6386,-2.6386,-2.6386,-2.6386,-2.599,-2.5832,-2.5753,-2.5289,-2.505,-2.513,-2.5594,-2.5832,-2.5832,-2.6228,-2.6386,-2.6386,-2.6386,-2.6386,-2.6386,-2.6386,-2.6149,-2.5832,-2.5832,-2.5902,-2.5956,-2.5969,-2.616,-2.644,-2.6707,-2.6796,-2.6796,-2.6796,-2.6443,-2.6103,-2.6103,-2.5775,-2.5433,-2.5433,-2.5433,-2.5433,-2.5433,-2.5433,-2.5433,-2.5433,-2.5433,-2.5615,-2.6134,-2.6218,-2.6411,-2.6954,-2.7027,-2.7027,-2.7027,-2.7027,-2.7027,-2.7027,-2.7027,-2.7027,-2.6936,-2.6936,-2.6106,-2.4156,-2.4054,-2.3137,-2.1111,-1.9074,-1.805,-1.805,-1.5953,-1.497,-1.4964,-1.4808,-1.474,-2.2928,-2.2928,-2.2928,-2.2928,-2.2928,-2.2928,-2.2928,-2.2928,-2.2886,-2.2993,-2.318,-2.3447,-2.3834,-2.4075,-2.4302,-2.4596,-2.4636,-2.4636,-2.4636,-2.489,-2.5117,-2.5211,-2.5651,-2.6079,-2.636,-2.6386,-2.6386,-2.6386,-2.6386,-2.6386,-2.6386,-2.6307,-2.607,-2.5832,-2.5832,-2.5832,-2.599,-2.6228,-2.6386,-2.6386,-2.6386,-2.6386,-2.6386,-2.599,-2.5832,-2.5832,-2.5673,-2.5594,-2.5594,-2.607,-2.6228,-2.6228,-2.6307,-2.6386,-2.6386,-2.6386,-2.6386,-2.6386,-2.6386,-2.6307,-2.6228,-2.6228,-2.6546,-2.6859,-2.6859,-2.6786,-2.6681,-2.677,-2.6796,-2.6796,-2.6796,-2.6698,-2.6613,-2.6613,-2.6443,-2.6371,-2.6371,-2.6103,-2.5848,-2.5848,-2.5604,-2.5433,-2.5433,-2.559,-2.582,-2.617,-2.6387,-2.6629,-2.6979,-2.7027,-2.7027,-2.7027,-2.7027,-2.7027,-2.7027,-2.7027,-2.7027,-2.7027,-2.7027,-2.6755,-2.6106,-2.4807,-2.379,-2.3137,-2.1204,-2.0187,-2.0187,-1.8095,-1.6413,-1.5113,-1.5065,-1.5045,-2.2928,-2.2928,-2.2928,-2.2928,-2.2928,-2.2928,-2.2928,-2.2928,-2.2928,-2.2928,-2.302,-2.3273,-2.3688,-2.3915,-2.4168,-2.4569,-2.4636,-2.4636,-2.4636,-2.4796,-2.4957,-2.5064,-2.5598,-2.6104,-2.6213,-2.6319,-2.6386,-2.6386,-2.6386,-2.6386,-2.6386,-2.6386,-2.6307,-2.607,-2.607,-2.607,-2.607,-2.6307,-2.6386,-2.6386,-2.6386,-2.6386,-2.6386,-2.6149,-2.607,-2.607,-2.607,-2.607,0.0,-2.6307,-2.6386,-2.6386,-2.6386,-2.6386,-2.6386,-2.6386,-2.6386,-2.6386,-2.6386,-2.6386,-2.6386,-2.6386,-2.6787,-2.7308,-2.7535,-2.7522,-2.7292,-2.7292,-2.7292,-2.7292,-2.7292,-2.722,-2.705,-2.705,-2.6965,-2.6796,-2.6796,-2.6528,-2.6273,-2.6103,-2.5848,-2.5604,-2.5433,-2.5651,-2.5916,-2.6182,-2.646,-2.6737,-2.7003,-2.7027,-2.7027,-2.7027,-2.7027,-2.7027,-2.7027,-2.7027,-2.7027,-2.7027,-2.7027,-2.7027,-2.7027,-2.5822,-2.5172,-2.5172,-2.3239,-2.2218,-2.2218,-2.0187,-1.8245,-1.6299,-1.6299,-1.5924,0.0,-2.2928,-2.2928,-2.2928,-2.2928,-2.2928,-2.2928,-2.2928,0.0,-2.2928,-2.2928,-2.3046,-2.3661,-2.3768,-2.3968,-2.4543,-2.4636,-2.4636,-2.4636,-2.4636,-2.4743,-2.5037,-2.5558,-2.5905,-2.5919,-2.6172,-2.6333,-2.636,-2.636,-2.6373,-2.6386,-2.6386,-2.6386,-2.6386,-2.6386,-2.6386,-2.6386,-2.6386,-2.6386,-2.6386,-2.6386,-2.6386,-2.6386,-2.6386,-2.6386,-2.6386,-2.6386,-2.6386,-2.6386,-2.6386,-2.6386,-2.6386,-2.6386,-2.6386,-2.6386,-2.6386,-2.6386,-2.6386,-2.6386,-2.6386,-2.64,-2.644,-2.6814,-2.7375,-2.8047,-2.8221,-2.8221,-2.8221,-2.8221,-2.8221,-2.8221,-2.7897,-2.7571,-2.7571,-2.722,-2.6868,-2.6868,-2.6881,-2.6698,-2.6273,-2.6188,-2.6018,-2.5604,-2.5675,-2.594,-2.6182,-2.6472,-2.6761,-2.7003,-2.7027,-2.7027,-2.7027,-2.7027,-2.7027,-2.7027,-2.7027,-2.7027,-2.7027,-2.7027,-2.7027,-2.7027,-2.7027,-2.7027,-2.7027,-2.5263,-2.4247,-2.4064,-2.2034,-2.0094,-1.8338,-1.8058,-1.704,-2.2806,0.0,-2.2928,-2.2928,-2.2928,-2.2928,0.0,-2.2928,-2.2928,-2.2928,-2.2928,-2.3046,-2.3661,-2.3768,-2.3968,-2.4543,-2.4636,-2.4636,-2.4636,-2.4636,-2.4743,-2.5037,-2.5197,-2.5371,-2.5598,-2.5678,-2.5812,-2.6039,-2.6052,-2.6159,-2.6373,-2.6386,-2.6386,-2.6386,-2.6386,-2.6386,-2.6386,-2.6386,-2.6386,-2.6386,-2.6386,-2.6386,-2.6386,-2.6386,-2.6386,-2.6386,-2.6386,-2.6386,-2.6386,-2.6386,-2.6386,-2.6386,-2.6386,-2.6386,-2.6386,-2.6386,-2.6386,-2.6386,-2.6386,-2.6386,-2.6466,-2.6921,-2.7148,-2.7375,-2.8047,-2.8221,-2.8221,-2.8221,-2.8221,-2.8221,-2.8221,-2.815,-2.8065,-2.8065,-2.7968,-2.7883,-2.7883,-2.7558,-2.7304,-2.722,-2.6881,-2.6613,-2.6456,-2.6599,-2.6684,-2.6746,-2.6807,-2.6966,-2.7027,-2.7027,-2.7027,-2.7027,-2.7027,-2.7027,-2.7027,-2.7027,-2.7027,-2.7027,-2.7027,-2.7027,-2.7027,-2.7027,-2.7027,-2.7027,-2.6561,-2.5548,-2.4064,-2.2034,-2.0844,-2.0279,-1.732,-1.6385,-2.2779,-2.2928,-2.2928,-2.2928,-2.2928,-2.2928,-2.2928,-2.2928,-2.2928,-2.2928,-2.2928,-2.3046,-2.3661,-2.3768,-2.3968,-2.4543,-2.4636,-2.4636,-2.4636,-2.4636,-2.469,-2.4863,-2.4997,-2.5144,-2.5304,-2.5438,-2.5585,-2.5745,-2.5758,-2.5879,-2.6172,-2.6186,-2.6253,-2.6386,-2.6386,-2.6386,-2.6386,-2.6386,-2.6386,-2.6386,-2.6386,-2.6386,-2.6386,-2.6386,-2.6386,-2.6386,-2.6386,-2.6386,-2.6386,-2.6386,-2.6386,-2.6386,-2.6386,-2.6386,-2.6386,-2.6386,-2.6386,-2.6386,-2.6386,-2.6386,-2.6466,-2.6921,-2.7148,-2.7348,-2.7802,-2.8114,-2.8221,-2.8221,-2.8221,-2.8221,-2.8221,-2.8221,-2.8221,-2.8221,-2.8221,-2.8221,-2.8221,-2.7981,-2.7728,-2.7558,-2.7304,-2.705,-2.6881,-2.6821,-2.6934,-2.6934,-2.6958,-2.7027,-2.7027,-2.7027,-2.7027,-2.7027,-2.7027,-2.7027,-2.7027,-2.7027,-2.7027,-2.7027,-2.7027,-2.7027,-2.7027,-2.7027,-2.7027,-2.7027,-2.7027,-2.6004,-2.4064,-2.3045,-2.1573,-1.963,-1.7499,-1.6572,-2.2712,-2.2832,-2.2928,-2.2928,-2.2928,-2.2928,-2.2928,-2.2928,-2.2928,-2.2928,-2.2899,-2.31,-2.3674,-2.3808,-2.4008,-2.4556,-2.4636,-2.4636,-2.4636,-2.4636,-2.4636,-2.4636,-2.4863,-2.501,-2.501,-2.5237,-2.5398,-2.5451,-2.5451,-2.5571,-2.5879,-2.601,-2.6066,-2.6319,-2.6373,-2.6386,-2.6386,-2.6386,-2.6386,-2.6386,-2.6386,-2.6386,-2.6386,-2.6386,-2.6386,-2.6386,-2.6386,-2.6386,-2.6386,-2.6386,-2.6386,-2.6386,-2.6386,-2.6386,-2.6386,-2.6386,-2.6386,-2.6386,-2.6386,-2.6386,-2.644,-2.6734,-2.7028,-2.7321,-2.7615,-2.7909,-2.8221,-2.8221,-2.8221,-2.8221,-2.8221,-2.8221,-2.8221,-2.8221,-2.8221,-2.8221,-2.8221,-2.8221,-2.8065,-2.7643,-2.7643,-2.7474,-2.7037,-2.7081,-2.7109,-2.7109,-2.7226,-2.7208,-2.7208,-2.7118,-2.7118,-2.7118,-2.7027,-2.7027,-2.7027,-2.7027,-2.7027,-2.7027,-2.7027,-2.7027,-2.7027,-2.7027,-2.7027,-2.7027,-2.7027,-2.6197,-2.4522,-2.4247,-2.231,-1.8981,-1.8431,-1.7227,-2.2405,-2.2672,-2.2928,-2.2928,-2.2928,-2.2928,-2.2928,-2.2928,-2.2928,-2.2928,-2.3073,-2.3367,-2.3714,-2.3968,-2.4249,-2.4583,-2.4636,-2.4636,-2.4636,-2.4636,-2.4636,-2.4636,-2.4676,-2.4703,-2.4703,-2.4743,-2.4877,-2.513,-2.5144,-2.5277,-2.5558,-2.5825,-2.605,-2.6026,-2.6266,-2.6386,-2.6386,-2.6386,-2.6386,-2.6386,-2.6386,-2.6386,-2.6386,-2.6386,-2.6386,-2.6386,-2.6386,-2.6386,-2.6386,-2.6386,-2.6386,-2.6386,-2.6386,-2.6386,-2.6386,-2.6386,-2.6386,-2.6386,-2.6386,-2.6386,-2.644,-2.6734,-2.7028,-2.7321,-2.7615,-2.7909,-2.8221,-2.8221,-2.8221,-2.8221,-2.8221,-2.8221,-2.8221,-2.8221,-2.8221,-2.8221,-2.8221,-2.8221,-2.815,-2.815,-2.8065,-2.8065,-2.7968,-2.8029,-2.8072,-2.8072,-2.8207,-2.8294,-2.8294,-2.783,-2.7558,-2.7558,-2.7208,-2.7027,-2.7027,-2.7027,-2.7027,-2.7027,-2.7027,-2.7027,-2.7027,-2.7027,-2.7027,-2.7027,-2.7027,-2.6845,-2.6561,-2.4898,-2.3779,-2.3137,-1.9723,-1.7965,-2.2338,-2.2632,-2.2928,-2.2928,-2.2928,-2.2928,-2.2928,-2.2928,-2.2928,-2.2928,-2.3113,-2.342,-2.3714,-2.4008,-2.4302,-2.4596,-2.4636,-2.4636,-2.4636,-2.4636,-2.4636,-2.4636,-2.4636,-2.4636,-2.4636,-2.4636,-2.469,-2.4823,-2.4836,-2.497,-2.5264,-2.5558,-2.5785,-2.5959,-2.6239,-2.6386,-2.6386,-2.6386,-2.6386,-2.6386,-2.6386,-2.6386,-2.6386,-2.6386,-2.6386,-2.6386,-2.6386,-2.6386,-2.6386,-2.6386,-2.6386,-2.6386,-2.6386,-2.6386,-2.6386,-2.6386,-2.6386,-2.6386,-2.6386,-2.6386,-2.6413,-2.6547,-2.6894,-2.7295,-2.7428,-2.7789,-2.8221,-2.8221,-2.8221,-2.8221,-2.8221,-2.8221,-2.8221,-2.8221,-2.8221,-2.8221,-2.8221,-2.8221,-2.8221,-2.8221,-2.8221,-2.8274,-2.8364,-2.8307,-2.8374,-2.853,-2.8297,-2.8101,-2.8101,-2.7649,-2.7287,-2.7287,-2.7118,-2.7027,-2.7027,-2.7027,-2.7027,-2.7027,-2.7027,-2.7027,-2.7027,-2.7027,-2.7027,-2.7027,-2.7027,-2.647,-2.5446,-2.4522,-2.3504,-2.2402,-1.9445,-1.8058,-2.2258,-2.2579,-2.2928,-2.2928,-2.2928,-2.2928,-2.2928,-2.2928,-2.2928,-2.2928,-2.3166,-2.35,-2.3728,-2.4062,-2.4382,-2.4596,-2.4636,-2.4636,-2.4636,-2.4636,-2.4636,-2.4636,-2.4636,-2.4636,-2.4636,-2.4636,-2.4636,-2.4636,-2.4636,-2.473,-2.497,-2.5317,-2.5611,-2.5838,-2.6199,-2.6386,-2.6386,-2.6386,-2.6386,-2.6386,-2.6386,-2.6386,-2.6386,-2.6386,-2.6386,-2.6386,-2.6386,-2.6386,-2.6386,-2.6386,-2.6386,-2.6386,-2.6386,-2.6386,-2.6386,-2.6386,-2.6386,-2.6386,-2.6386,-2.6386,-2.6386,-2.6386,-2.6787,-2.7268,-2.7268,-2.7752,-2.8221,-2.8221,-2.8221,-2.8221,-2.8221,-2.8221,-2.8221,-2.8221,-2.8221,-2.8221,-2.8221,-2.8221,-2.8221,-2.8221,-2.8221,-2.8328,-2.8551,-2.8498,-2.8601,-2.8889,-2.8463,-2.8101,-2.8101,-2.7558,-2.7118,-2.7118,-2.7027,-2.7027,-2.7027,-2.7027,-2.7027,-2.7027,-2.7027,-2.7027,-2.7027,-2.7027,-2.7027,-2.7027,-2.7027,-2.6288,-2.4807,-2.4807,-2.379,-2.1757,-2.0187,-1.8981,-2.2004,-2.2432,-2.2928,-2.2928,-2.2928,-2.2928,-2.2928,-2.2928,-2.2928,-2.2928,-2.3327,-2.3741,-2.3768,-2.4222,-2.4609,-2.4636,-2.4636,-2.4636,-2.4636,-2.4636,-2.4636,-2.4636,-2.4636,-2.4636,-2.4636,-2.4636,-2.4636,-2.4636,-2.4636,-2.4649,-2.4663,-2.5211,-2.5518,-2.5545,-2.6092,-2.6386,-2.6386,-2.6386,-2.6386,-2.6386,-2.6386,-2.6386,-2.6386,-2.6386,-2.6386,-2.6386,-2.6386,-2.6386,-2.6386,-2.6386,-2.6386,-2.6386,-2.6386,-2.6386,-2.6386,-2.6386,-2.6386,-2.6386,-2.6386,-2.6386,-2.6386,-2.6386,-2.6787,-2.7268,-2.7268,-2.7752,-2.8221,-2.8221,-2.8221,-2.8221,-2.8221,-2.8221,-2.8221,-2.8221,-2.8221,-2.8221,-2.8221,-2.8221,-2.8221,-2.8221,-2.8221,-2.8328,-2.8551,-2.8758,-2.9051,-2.9432,-2.928,-2.9092,-2.9092,-2.8281,-2.7649,-2.7649,-2.7299,-2.7027,-2.7027,-2.7027,-2.7027,-2.7027,-2.7027,-2.7027,-2.7027,-2.7027,-2.7027,-2.7027,-2.7027,-2.6936,-2.6755,-2.6755,-2.5822,-2.3881,-2.3779,-2.1655,-2.1991,-2.2418,-2.2928,-2.2928,-2.2928,-2.2928,-2.2928,-2.2928,-2.2913,-2.3113,-2.3487,-2.3888,-2.4249,-2.4489,-2.4636,-2.4636,-2.4636,-2.4636,-2.4636,-2.4636,-2.4636,-2.4636,-2.4636,-2.4636,-2.4636,-2.4636,-2.4636,-2.4636,-2.4636,-2.4636,-2.4636,-2.5024,-2.5331,-2.5504,-2.5905,-2.6199,-2.6386,-2.6386,-2.6386,-2.6386,-2.6386,-2.6386,-2.6386,-2.6386,-2.6386,-2.6386,-2.6386,-2.6386,-2.6386,-2.6386,-2.6386,-2.6386,-2.6386,-2.6386,-2.6386,-2.6386,-2.6386,-2.6386,-2.6386,-2.6386,-2.6386,-2.6386,-2.6787,-2.7268,-2.7268,-2.7752,-2.8221,-2.8221,-2.8221,-2.8221,-2.8221,-2.8221,-2.8221,-2.8221,-2.8221,-2.8221,-2.8221,-2.8221,-2.8221,-2.8221,-2.8221,-2.8297,-2.8791,-2.8704,-2.8754,-2.9228,-2.8758,-2.8281,-2.8281,-2.7649,-2.7299,-2.7299,-2.7118,-2.7027,-2.7027,-2.7027,-2.7027,-2.7027,-2.7027,-2.7027,-2.7027,-2.7027,-2.7027,-2.7027,-2.7027,-2.7027,-2.7027,-2.7027,-2.6652,-2.5913,-2.4613,-2.2586,-2.1991,-2.2418,-2.2928,-2.2928,-2.2928,-2.2928,-2.2928,-2.2928,-2.2953,-2.326,-2.3634,-2.4062,-2.4543,-2.4636,-2.4636,-2.4636,-2.4636,-2.4636,-2.4636,-2.4636,-2.4636,-2.4636,-2.4636,-2.4636,-2.4636,-2.4636,-2.4636,-2.4636,-2.4636,-2.4636,-2.4636,-2.4917,-2.5211,-2.5504,-2.5798,-2.6092,-2.6386,-2.6386,-2.6386,-2.6386,-2.6386,-2.6386,-2.6386,-2.6386,-2.6386,-2.6386,-2.6386,-2.6386,-2.6386,-2.6386,-2.6386,-2.6386,-2.6386,-2.6386,-2.6386,-2.6386,-2.6386,-2.6386,-2.6386,-2.6386,-2.6386,-2.6386,-2.6787,-2.7268,-2.7268,-2.7752,-2.8221,-2.8221,-2.8221,-2.8221,-2.8221,-2.8221,-2.8221,-2.8221,-2.8221,-2.8221,-2.8221,-2.8221,-2.8221,-2.8221,-2.8065,-2.8167,-2.8678,-2.8409,-2.8253,-2.8924,-2.8281,-2.7739,-2.7739,-2.7299,-2.7027,-2.7027,-2.7027,-2.7027,-2.7027,-2.7027,-2.7027,-2.7027,-2.7027,-2.7027,-2.7027,-2.7027,-2.7027,-2.7027,-2.7027,-2.7027,-2.7027,-2.7027,-2.7027,-2.6936,-2.5639,-2.3973,-2.1991,-2.2418,-2.2928,-2.2928,-2.2928,-2.2928,-2.2928,-2.2928,-2.2953,-2.326,-2.3794,-2.4289,-2.4583,-2.4636,-2.4636,-2.4636,-2.4636,-2.4636,-2.4636,-2.4636,-2.4636,-2.4636,-2.4636,-2.4636,-2.4636,-2.4636,-2.4636,-2.4636,-2.4636,-2.4636,-2.4636,-2.4917,-2.5211,-2.5504,-2.5798,-2.6092,-2.6386,-2.6386,-2.6386,-2.6386,-2.6386,-2.6386,-2.6386,-2.6386,-2.6386,-2.6386,-2.6386,-2.6386,-2.6386,-2.6386,-2.6386,-2.6386,-2.6386,-2.6386,-2.6386,-2.6386,-2.6386,-2.6386,-2.6386,-2.6386,-2.6386,-2.6386,-2.6787,-2.7268,-2.7268,-2.7752,-2.8221,-2.8221,-2.8221,-2.8221,-2.8221,-2.8221,-2.8221,-2.8221,-2.8221,-2.8221,-2.8221,-2.8221,-2.8221,-2.8221,-2.7812,-2.7656,-2.823,-2.7885,-2.7813,-2.8385,-2.801,-2.7727,-2.7727,-2.7299,-2.7027,-2.7027,-2.7027,-2.7027,-2.7027,-2.7027,-2.7027,-2.7027,-2.7027,-2.7027,-2.7027,-2.7027,-2.7027,-2.7027,-2.7027,-2.7027,-2.7027,-2.7027,-2.7027,-2.7027,-2.7027,-2.5913,-2.1991,-2.2418,-2.2928,-2.2928,-2.2928,-2.2859,-2.2516,-2.2722,-2.3006,-2.3527,-2.4102,-2.4529,-2.4623,-2.4636,-2.4636,-2.4636,-2.4636,-2.4636,-2.4636,-2.4636,-2.4636,-2.4636,-2.4636,-2.4636,-2.4636,-2.4636,-2.4636,-2.4636,-2.4636,-2.4636,-2.4636,-2.4716,-2.4997,-2.5491,-2.5598,-2.5879,-2.6386,-2.6386,-2.6386,-2.6386,-2.6386,-2.6386,-2.6386,-2.6386,-2.6386,-2.6386,-2.6386,-2.6386,-2.6386,-2.6386,-2.6386,-2.6386,-2.6386,-2.6386,-2.6386,-2.6386,-2.6386,-2.6386,-2.6386,-2.6386,-2.6386,-2.6386,-2.6787,-2.7268,-2.7268,-2.7752,-2.8221,-2.8221,-2.8221,-2.8221,-2.8221,-2.8221,-2.8221,-2.8221,-2.8221,-2.8221,-2.8221,-2.8221,-2.8065,-2.7728,-2.7571,-2.7571,-2.7782,-2.7447,-2.7284,-2.7845,-2.7558,-2.7208,-2.7208,-2.7118,-2.7027,-2.7027,-2.7027,-2.7027,-2.7027,-2.7027,-2.7027,-2.7027,-2.7027,-2.7027,-2.7027,-2.7027,-2.7027,-2.7027,-2.7027,-2.7027,-2.7027,-2.7027,-2.7027,-2.7027,-2.7027,-2.5913,-2.1991,-2.2418,-2.2859,-2.2722,-2.2654,-2.2585,-2.2173,-2.2423,-2.2907,-2.3474,-2.3859,-2.4119,-2.4119,-2.4119,-2.4119,-2.4119,-2.4119,-2.4193,-2.4341,-2.4341,-2.4414,-2.4562,-2.4636,-2.4636,-2.4636,-2.4636,-2.4636,-2.4636,-2.4636,-2.4636,-2.4636,-2.4636,-2.485,-2.5331,-2.5451,-2.5745,-2.6213,-2.6333,-2.6386,-2.6386,-2.6386,-2.6386,-2.6386,-2.6386,-2.6386,-2.6386,-2.6386,-2.6386,-2.6386,-2.6386,-2.6386,-2.6386,-2.6386,-2.6386,-2.6386,-2.6386,-2.6386,-2.6386,-2.6386,-2.6386,-2.6386,-2.6386,-2.6787,-2.7268,-2.7268,-2.7752,-2.8221,-2.8221,-2.8221,-2.8221,-2.8221,-2.8221,-2.8221,-2.8221,-2.8221,-2.8221,-2.8221,-2.8221,-2.8065,-2.7558,-2.7304,-2.723,-2.7346,-2.6921,-2.6753,-2.7304,-2.7208,-2.7027,-2.7027,-2.7027,-2.7027,-2.7027,-2.7027,-2.7027,-2.7027,-2.7027,-2.7027,-2.7027,-2.7027,-2.7027,-2.7027,-2.7027,-2.7027,-2.7027,-2.7027,-2.7027,-2.7027,-2.7027,-2.7027,-2.7027,-2.7027,-2.6379,-2.1991,-2.2418,-2.2722,-2.2379,-2.2242,-2.2104,-2.1829,-2.2134,-2.2624,-2.3054,-2.3276,-2.3364,-2.3364,-2.3364,-2.3364,-2.3364,-2.3364,-2.3513,-2.397,-2.397,-2.4119,-2.4562,-2.4636,-2.4636,-2.4636,-2.4636,-2.4636,-2.4636,-2.4636,-2.4636,-2.4636,-2.4636,-2.477,-2.5064,-2.5358,-2.5651,-2.6037,-2.6239,-2.6386,-2.6386,-2.6386,-2.6386,-2.6386,-2.6386,-2.6386,-2.6386,-2.6386,-2.6386,-2.6386,-2.6386,-2.6386,-2.6386,-2.6386,-2.6386,-2.6386,-2.6386,-2.6386,-2.6386,-2.6386,-2.6386,-2.6386,-2.6386,-2.6787,-2.7268,-2.7268,-2.7752,-2.8221,-2.8221,-2.8221,-2.8221,-2.8221,-2.8221,-2.8221,-2.8221,-2.8221,-2.8221,-2.8221,-2.8221,-2.8065,-2.7558,-2.7135,-2.6803,-2.6922,-2.6482,-2.6399,-2.6954,-2.7027,-2.7027,-2.7027,-2.7027,-2.7027,-2.7027,-2.7027,-2.7027,-2.7027,-2.7027,-2.7027,-2.7027,-2.7027,-2.7027,-2.7027,-2.7027,-2.7027,-2.7027,-2.7027,-2.7027,-2.7027,-2.7027,-2.7027,-2.7027,-2.7027,-2.7027,-2.1582,-2.1934,-2.2379,-2.1966,-2.1691,-2.1484,-2.176,-2.1795,-2.1906,-2.2624,-2.3057,-2.3364,-2.3364,-2.3364,-2.3364,-2.3364,-2.3364,-2.3513,-2.397,-2.397,-2.4119,-2.4562,-2.4636,-2.4636,-2.4636,-2.4636,-2.4636,-2.4636,-2.4636,-2.4636,-2.4636,-2.4636,-2.477,-2.5064,-2.5358,-2.5651,-2.6037,-2.6239,-2.6386,-2.6386,-2.6386,-2.6386,-2.6386,-2.6386,-2.6386,-2.6386,-2.6386,-2.6386,-2.6386,-2.6386,-2.6386,-2.6386,-2.6386,-2.6386,-2.6386,-2.6386,-2.6386,-2.6386,-2.6386,-2.6386,-2.6386,-2.6386,-2.6787,-2.7268,-2.7268,-2.7752,-2.8221,-2.8221,-2.8221,-2.8221,-2.8221,-2.8221,-2.8221,-2.8221,-2.8221,-2.8221,-2.8221,-2.8221,-2.8065,-2.7558,-2.7135,-2.6803,-2.6922,-2.6482,-2.6399,-2.6954,-2.7027,-2.7027,-2.7027,-2.7027,-2.7027,-2.7027,-2.7027,-2.7027,-2.7027,-2.7027,-2.7027,-2.7027,-2.7027,-2.7027,-2.7027,-2.7027,-2.7027,-2.7027,-2.7027,-2.7027,-2.7027,-2.7027,-2.7027,-2.7027,-2.7027,-2.7027,-2.145,-2.1732,-2.1966,-2.1622,-2.122,-2.1012,-2.122,-2.1371,-2.1618,-2.1978,-2.2472,-2.2856,-2.2856,-2.2856,-2.2856,-2.2856,-2.2856,-2.3005,-2.3451,-2.36,-2.3896,-2.4267,-2.4488,-2.4636,-2.4636,-2.4636,-2.4636,-2.4636,-2.4636,-2.4636,-2.4636,-2.4636,-2.4703,-2.4863,-2.5157,-2.5451,-2.5745,-2.6039,-2.6253,-2.6386,-2.6386,-2.6386,-2.6386,-2.6386,-2.6386,-2.6386,-2.6386,-2.6386,-2.6386,-2.6386,-2.6386,-2.6386,-2.6386,-2.6386,-2.6386,-2.6386,-2.6386,-2.6386,-2.6386,-2.6386,-2.6386,-2.6386,-2.6787,-2.7268,-2.7268,-2.7752,-2.8221,-2.8221,-2.8221,-2.8221,-2.8221,-2.8221,-2.8221,-2.8221,-2.8221,-2.8221,-2.8221,-2.8221,-2.7981,-2.7304,-2.6965,-2.6717,-2.6572,-2.6613,-2.6701,-2.6991,-2.7027,-2.7027,-2.7027,-2.7027,-2.7027,-2.7027,-2.7027,-2.7027,-2.7027,-2.7027,-2.7027,-2.7027,-2.7027,-2.7027,-2.7027,-2.7027,-2.7027,-2.7027,-2.7027,-2.7027,-2.7027,-2.7027,-2.7027,-2.7027,-2.7027,-2.7027,-2.1317,-2.1475,-2.1565,-2.122,-2.0943,-2.0665,-2.0665,-2.1088,-2.1474,-2.1474,-2.1897,-2.2334,-2.2334,-2.2334,-2.2334,-2.2334,-2.2334,-2.2408,-2.2856,-2.3154,-2.3451,-2.397,-2.4267,-2.4488,-2.4562,-2.4636,-2.4636,-2.4636,-2.4636,-2.4636,-2.4636,-2.4636,-2.4636,-2.4636,-2.493,-2.5224,-2.5504,-2.5812,-2.6106,-2.6386,-2.6386,-2.6386,-2.6386,-2.6386,-2.6386,-2.6386,-2.6386,-2.6386,-2.6386,-2.6386,-2.6386,-2.6386,-2.6386,-2.6386,-2.6386,-2.6386,-2.6386,-2.6386,-2.6386,-2.6386,-2.64,-2.6453,-2.6827,-2.7281,-2.7321,-2.7792,-2.8221,-2.8221,-2.8221,-2.8221,-2.8221,-2.8221,-2.8221,-2.8221,-2.8221,-2.8221,-2.8221,-2.815,-2.7897,-2.705,-2.6872,-2.6646,-2.6233,-2.6665,-2.7027,-2.7027,-2.7027,-2.7027,-2.7027,-2.7027,-2.7027,-2.7027,-2.7027,-2.7027,-2.7027,-2.7027,-2.7027,-2.7027,-2.7027,-2.7027,-2.7027,-2.7027,-2.7027,-2.7027,-2.7027,-2.7027,-2.7027,-2.7027,-2.7027,-2.7027,-2.7027,-2.7027,-2.1132,-2.0934,-2.0804,-2.0804,-2.0735,-2.0665,-2.0665,-2.1088,-2.1474,-2.1474,-2.1897,-2.2334,-2.2334,-2.2334,-2.2334,-2.2334,-2.2334,-2.2408,-2.2856,-2.293,-2.3228,-2.3896,-2.4044,-2.4193,-2.4562,-2.4636,-2.4636,-2.4636,-2.4636,-2.4636,-2.4636,-2.4636,-2.4636,-2.4636,-2.493,-2.5224,-2.5504,-2.5812,-2.6106,-2.6386,-2.6386,-2.6386,-2.6386,-2.6386,-2.6386,-2.6386,-2.6386,-2.6386,-2.6386,-2.6386,-2.6386,-2.6386,-2.6386,-2.6386,-2.6386,-2.6386,-2.6386,-2.6386,-2.6386,-2.6386,-2.6426,-2.668,-2.6987,-2.7308,-2.7562,-2.7883,-2.8221,-2.8221,-2.8221,-2.8221,-2.8221,-2.8221,-2.8221,-2.8221,-2.8221,-2.8221,-2.8221,-2.7897,-2.7558,-2.7389,-2.7104,-2.6759,-2.6294,-2.6665,-2.7027,-2.7027,-2.7027,-2.7027,-2.7027,-2.7027,-2.7027,-2.7027,-2.7027,-2.7027,-2.7027,-2.7027,-2.7027,-2.7027,-2.7027,-2.7027,-2.7027,-2.7027,-2.7027,-2.7027,-2.7027,-2.7027,-2.7027,-2.7027,-2.7027,-2.7027,-2.7027,-2.7027,-2.1179,-2.0897,-2.0665,-2.0665,-2.0665,-2.0665,-2.0665,-2.1088,-2.1474,-2.1474,-2.1897,-2.2334,-2.2334,-2.2334,-2.2334,-2.2334,-2.2334,-2.2334,-2.2558,-2.2781,-2.3079,-2.36,-2.3896,-2.4193,-2.4562,-2.4636,-2.4636,-2.4636,-2.4636,-2.4636,-2.4636,-2.4636,-2.4636,-2.4636,-2.4756,-2.505,-2.5504,-2.5638,-2.5932,-2.6386,-2.6386,-2.6386,-2.6386,-2.6386,-2.6386,-2.6386,-2.6386,-2.6386,-2.6386,-2.6386,-2.6386,-2.6386,-2.6386,-2.6386,-2.6386,-2.6386,-2.6386,-2.6386,-2.6386,-2.6386,-2.644,-2.6734,-2.7028,-2.7321,-2.7615,-2.7909,-2.8221,-2.8221,-2.8221,-2.8221,-2.8221,-2.8221,-2.8221,-2.8221,-2.8221,-2.8221,-2.8221,-2.8065,-2.7728,-2.722,-2.6809,-2.6394,-2.6218,-2.6665,-2.7027,-2.7027,-2.7027,-2.7027,-2.7027,-2.7027,-2.7027,-2.7027,-2.7027,-2.7027,-2.7027,-2.7027,-2.7027,-2.7027,-2.7027,-2.7027,-2.7027,-2.7027,-2.7027,-2.7027,-2.7027,-2.7027,-2.7027,-2.7027,-2.7027,-2.7027,-2.7027,-2.7027,-2.1245,-2.0963,-2.0665,-2.0665,-2.0665,-2.0665,-2.0665,-2.1088,-2.1474,-2.1474,-2.1897,-2.2334,-2.2334,-2.2334,-2.2334,-2.2334,-2.2334,-2.2334,-2.2334,-2.2558,-2.293,-2.3364,-2.3661,-2.4044,-2.4562,-2.4636,-2.4636,-2.4636,-2.4636,-2.4636,-2.4636,-2.4636,-2.4636,-2.4636,-2.4636,-2.4917,-2.5504,-2.5665,-2.5959,-2.6386,-2.6386,-2.6386,-2.6386,-2.6386,-2.6386,-2.6386,-2.6386,-2.6386,-2.6386,-2.6386,-2.6386,-2.6386,-2.6386,-2.6386,-2.6386,-2.6386,-2.6386,-2.6386,-2.6386,-2.6386,-2.6453,-2.6814,-2.7081,-2.7335,-2.7696,-2.7963,-2.8221,-2.8221,-2.8221,-2.8221,-2.8221,-2.8221,-2.8221,-2.8221,-2.8221,-2.8136,-2.7883,-2.7799,-2.7571,-2.6714,-2.6339,-2.6242,-2.6315,-2.6713,-2.7027,-2.7027,-2.7027,-2.7027,-2.7027,-2.7027,-2.7027,-2.7027,-2.7027,-2.7027,-2.7027,-2.7027,-2.7027,-2.7027,-2.7027,-2.7027,-2.7027,-2.7027,-2.7027,-2.7027,-2.7027,-2.7027,-2.7027,-2.7027,-2.7027,-2.7027,-2.7027,-2.7027,-2.1222,-2.1021,-2.0665,-2.0665,-2.0665,-2.0665,-2.0665,-2.1088,-2.1474,-2.1474,-2.1897,-2.2334,-2.2334,-2.2334,-2.2334,-2.2334,-2.2334,-2.2334,-2.2334,-2.2334,-2.2632,-2.329,-2.3438,-2.3748,-2.4488,-2.4636,-2.4636,-2.4636,-2.4636,-2.4636,-2.4636,-2.4636,-2.4636,-2.4636,-2.4636,-2.4917,-2.5504,-2.6066,-2.636,-2.6386,-2.6386,-2.6386,-2.6386,-2.6386,-2.6386,-2.6386,-2.6386,-2.6386,-2.6386,-2.6386,-2.6386,-2.6386,-2.6386,-2.6386,-2.6386,-2.6386,-2.6386,-2.6386,-2.6386,-2.6386,-2.648,-2.7054,-2.7255,-2.7375,-2.8033,-2.8221,-2.8221,-2.8221,-2.8221,-2.8221,-2.8221,-2.8221,-2.8221,-2.8221,-2.8221,-2.7981,-2.705,-2.6868,-2.6702,-2.6019,-2.6025,-2.6303,-2.6568,-2.6846,-2.7027,-2.7027,-2.7027,-2.7027,-2.7027,-2.7027,-2.7027,-2.7027,-2.7027,-2.7027,-2.7027,-2.7027,-2.7027,-2.7027,-2.7027,-2.7027,-2.7027,-2.7027,-2.7027,-2.7027,-2.7027,-2.7027,-2.7027,-2.7027,-2.7027,-2.7027,-2.7027,-2.7027,-2.0939,-2.0872,-2.0665,-2.0665,-2.0665,-2.0665,-2.0665,-2.1088,-2.1474,-2.1474,-2.1897,-2.2334,-2.2334,-2.2334,-2.2334,-2.2334,-2.2334,-2.2334,-2.2334,-2.2334,-2.2483,-2.3005,-2.3302,-2.3587,-2.4193,-2.4488,-2.4636,-2.4636,-2.4636,-2.4636,-2.4636,-2.4636,-2.4636,-2.4636,-2.4636,-2.4917,-2.5504,-2.6092,-2.6386,-2.6386,-2.6386,-2.6386,-2.6386,-2.6386,-2.6386,-2.6386,-2.6386,-2.6386,-2.6386,-2.6386,-2.6386,-2.6386,-2.6386,-2.6386,-2.6386,-2.6386,-2.6386,-2.6386,-2.6386,-2.6386,-2.6493,-2.7081,-2.7268,-2.7375,-2.8047,-2.8221,-2.8221,-2.8221,-2.8221,-2.8221,-2.8221,-2.8221,-2.8221,-2.8221,-2.7981,-2.7558,-2.6965,-2.6528,-2.6361,-2.6302,-2.6212,-2.6315,-2.6592,-2.6858,-2.7027,-2.7027,-2.7027,-2.7027,-2.7027,-2.7027,-2.7027,-2.7027,-2.7027,-2.7027,-2.7027,-2.7027,-2.7027,-2.7027,-2.7027,-2.7027,-2.7027,-2.7027,-2.7027,-2.7027,-2.7027,-2.7027,-2.7027,-2.7027,-2.7027,-2.7027,-2.7027,-2.7027,-2.0939,-2.0872,-2.0665,-2.0665,-2.0665,-2.0665,-2.0665,-2.1088,-2.1474,-2.1474,-2.1897,-2.2334,-2.2334,-2.2334,-2.2334,-2.2334,-2.2334,-2.2334,-2.2334,-2.2334,-2.2483,-2.2856,-2.3079,-2.3364,-2.3748,-2.4044,-2.4267,-2.4414,-2.4414,-2.4488,-2.4562,-2.4636,-2.4636,-2.4636,-2.4823,-2.5117,-2.5504,-2.6092,-2.6386,-2.6386,-2.6386,-2.6386,-2.6386,-2.6386,-2.6386,-2.6386,-2.6386,-2.6386,-2.6386,-2.6386,-2.6386,-2.6386,-2.6386,-2.6386,-2.6386,-2.6386,-2.6386,-2.6386,-2.6386,-2.6386,-2.6493,-2.7081,-2.7268,-2.7375,-2.8047,-2.8221,-2.8221,-2.8221,-2.8221,-2.8221,-2.8221,-2.8221,-2.8221,-2.8221,-2.7728,-2.722,-2.6881,-2.6443,-2.6129,-2.6326,-2.6273,-2.6339,-2.6713,-2.6918,-2.7027,-2.7027,-2.7027,-2.7027,-2.7027,-2.7027,-2.7027,-2.7027,-2.7027,-2.7027,-2.7027,-2.7027,-2.7027,-2.7027,-2.7027,-2.7027,-2.7027,-2.7027,-2.7027,-2.7027,-2.7027,-2.7027,-2.7027,-2.7027,-2.7027,-2.7027,-2.7027,-2.7027,0.0,0.0,0.0,-2.0665,-2.0665,-2.0665,-2.0665,-2.1088,-2.1474,-2.1474,-2.1897,-2.2334,-2.2334,-2.2334,-2.2334,-2.2334,-2.2334,-2.2334,-2.2334,-2.2334,-2.2408,-2.2856,-2.2856,-2.3005,-2.3364,-2.3364,-2.36,-2.397,-2.397,-2.4193,-2.4562,-2.4562,-2.4636,-2.4636,-2.5211,-2.5518,-2.5518,-2.6092,-2.6386,-2.6386,-2.6386,-2.6386,-2.6386,-2.6386,-2.6386,-2.6386,-2.6386,-2.6386,-2.6386,-2.6386,-2.6386,-2.6386,-2.6386,-2.6386,-2.6386,-2.6386,-2.6386,-2.6386,-2.6386,-2.6386,-2.6493,-2.7081,-2.7268,-2.7375,-2.8047,-2.8221,-2.8221,-2.8221,-2.8221,-2.8221,-2.8221,-2.8221,-2.8221,-2.8221,-2.7461,-2.6796,-2.6796,-2.6443,-2.6093,-2.6197,-2.6218,-2.6387,-2.693,-2.7027,-2.7027,-2.7027,-2.7027,-2.7027,-2.7027,-2.7027,-2.7027,-2.7027,-2.7027,-2.7027,-2.7027,-2.7027,-2.7027,-2.7027,-2.7027,-2.7027,-2.7027,-2.7027,-2.7027,-2.7027,-2.7027,-2.7027,-2.7027,-2.7027,-2.7027,-2.7027,-2.7027,-2.7027,-2.1057,0.0,0.0,0.0,0.0,0.0,-2.0665,-2.1088,-2.1474,-2.1474,-2.1897,-2.2334,-2.2334,-2.2334,-2.2334,-2.2334,-2.2334,-2.2334,-2.2334,-2.2334,-2.2334,-2.2483,-2.2707,-2.293,-2.3005,-2.3228,-2.3438,-2.36,-2.3809,-2.4044,-2.4193,-2.4414,-2.4636,-2.4636,-2.5211,-2.5518,-2.5518,-2.6092,-2.6386,-2.6386,-2.6386,-2.6386,-2.6386,-2.6386,-2.6386,-2.6386,-2.6386,-2.6386,-2.6386,-2.6386,-2.6386,-2.6386,-2.6386,-2.6386,-2.6386,-2.6386,-2.6386,-2.6386,-2.6386,-2.6386,-2.6493,-2.7081,-2.7268,-2.7375,-2.8047,-2.8221,-2.8221,-2.8221,-2.8221,-2.8221,-2.8221,-2.8221,-2.8221,-2.8221,-2.7461,-2.6796,-2.6796,-2.6201,-2.5676,-2.6122,-2.6218,-2.6387,-2.693,-2.7027,-2.7027,-2.7027,-2.7027,-2.7027,-2.7027,-2.7027,-2.7027,-2.7027,-2.7027,-2.7027,-2.7027,-2.7027,-2.7027,-2.7027,-2.7027,-2.7027,-2.7027,-2.7027,-2.7027,-2.7027,-2.7027,-2.7027,-2.7027,-2.7027,-2.7027,-2.7027,-2.7027,-2.7027,-2.1493,-2.1302,-2.1138,-2.0943,0.0,0.0,-2.0665,-2.1088,-2.1474,-2.1474,-2.1897,-2.2334,-2.2334,-2.2334,-2.2334,-2.2334,-2.2334,-2.2334,-2.2334,-2.2334,-2.2334,-2.2334,-2.2483,-2.2632,-2.2632,-2.2856,-2.3005,-2.3154,-2.3377,-2.3674,-2.397,-2.4414,-2.4636,-2.4636,-2.5211,-2.5518,-2.5518,-2.6092,-2.6386,-2.6386,-2.6386,-2.6386,-2.6386,-2.6386,-2.6386,-2.6386,-2.6386,-2.6386,-2.6386,-2.6386,-2.6386,-2.6386,-2.6386,-2.6386,-2.6386,-2.6386,-2.6386,-2.6386,-2.6386,-2.6386,-2.6493,-2.7081,-2.7268,-2.7375,-2.8047,-2.8221,-2.8221,-2.8221,-2.8221,-2.8221,-2.8221,-2.8221,-2.8221,-2.8221,-2.7461,-2.6796,-2.6796,-2.6117,-2.5723,-2.6134,-2.6218,-2.6387,-2.693,-2.7027,-2.7027,-2.7027,-2.7027,-2.7027,-2.7027,-2.7027,-2.7027,-2.7027,-2.7027,-2.7027,-2.7027,-2.7027,-2.7027,-2.7027,-2.7027,-2.7027,-2.7027,-2.7027,-2.7027,-2.7027,-2.7027,-2.7027,-2.7027,-2.7027,-2.7027,-2.7027,-2.7027,-2.7027,-2.2506,-2.1966,-2.1276,-2.1276,-2.1012,0.0,-2.0735,-2.1159,-2.1474,-2.1474,-2.1897,-2.2334,-2.2334,-2.2334,-2.2334,-2.2334,-2.2334,-2.2334,-2.2334,-2.2334,-2.2334,-2.2334,-2.2334,-2.2334,-2.2334,-2.2334,-2.2483,-2.2781,-2.293,-2.3228,-2.397,-2.4414,-2.4649,-2.469,-2.5224,-2.5531,-2.5558,-2.6106,-2.6386,-2.6386,-2.6386,-2.6386,-2.6386,-2.6386,-2.6386,-2.6386,-2.6386,-2.6386,-2.6386,-2.6386,-2.6386,-2.6386,-2.6386,-2.6386,-2.6386,-2.6386,-2.6386,-2.6386,-2.6386,-2.6386,-2.6493,-2.7081,-2.7268,-2.7375,-2.8047,-2.8221,-2.8221,-2.8221,-2.8221,-2.8221,-2.8221,-2.8221,-2.8221,-2.8221,-2.7461,-2.6796,-2.6796,-2.624,-2.5904,-2.617,-2.6242,-2.6435,-2.6942,-2.7027,-2.7027,-2.7027,-2.7027,-2.7027,-2.7027,-2.7027,-2.7027,-2.7027,-2.7027,-2.7027,-2.7027,-2.7027,-2.7027,-2.7027,-2.7027,-2.7027,-2.7027,-2.7027,-2.7027,-2.7027,-2.7027,-2.7027,-2.7027,-2.7027,-2.7027,-2.7027,-2.7027,-2.7027,-2.4114,-2.3119,-2.2035,-2.176,-2.1415,0.0,-2.1081,-2.13,-2.1474,-2.1474,-2.1897,-2.2334,-2.2334,-2.2334,-2.2334,-2.2334,-2.2334,-2.2334,-2.2334,-2.2334,-2.2334,-2.2334,-2.2334,-2.2334,-2.2334,-2.2334,-2.2334,-2.2408,-2.3005,-2.3525,-2.397,-2.4414,-2.4743,-2.4983,-2.5331,-2.5625,-2.5865,-2.6213,-2.6386,-2.6386,-2.6386,-2.6386,-2.6386,-2.6386,-2.6386,-2.6386,-2.6386,-2.6386,-2.6386,-2.6386,-2.6386,-2.6386,-2.6386,-2.6386,-2.6386,-2.6386,-2.6386,-2.6386,-2.6386,-2.6386,-2.6493,-2.7081,-2.7268,-2.7375,-2.8047,-2.8221,-2.8221,-2.8221,-2.8221,-2.8221,-2.8221,-2.8221,-2.8221,-2.8221,-2.7461,-2.6796,-2.6796,-2.624,-2.5904,-2.617,-2.6399,-2.6665,-2.6979,-2.7027,-2.7027,-2.7027,-2.7027,-2.7027,-2.7027,-2.7027,-2.7027,-2.7027,-2.7027,-2.7027,-2.7027,-2.7027,-2.7027,-2.7027,-2.7027,-2.7027,-2.7027,-2.7027,-2.7027,-2.7027,-2.7027,-2.7027,-2.7027,-2.7027,-2.7027,-2.7027,-2.7027,-2.7027,-2.5853,-2.4588,-2.3393,-2.3188,-2.231,0.0,0.0,-2.15,-2.169,-2.1546,-2.1897,-2.2334,-2.2334,-2.2334,-2.2334,-2.2334,-2.2334,-2.2334,-2.2334,-2.2334,-2.2334,-2.2334,-2.2334,-2.2334,-2.2334,-2.2334,-2.2334,-2.2334,-2.2856,-2.3302,-2.3674,-2.4119,-2.4547,-2.5077,-2.5358,-2.5651,-2.6037,-2.6239,-2.6386,-2.6386,-2.6386,-2.6386,-2.6386,-2.6386,-2.6386,-2.6386,-2.6386,-2.6386,-2.6386,-2.6386,-2.6386,-2.6386,-2.6386,-2.6386,-2.6386,-2.6386,-2.6386,-2.6386,-2.6386,-2.6386,-2.6493,-2.7081,-2.7268,-2.7375,-2.8047,-2.8221,-2.8221,-2.8221,-2.8221,-2.8221,-2.8221,-2.8221,-2.815,-2.7897,-2.7304,-2.6711,-2.6528,-2.6167,-2.6061,-2.6194,-2.6556,-2.6882,-2.7003,-2.7027,-2.7027,-2.7027,-2.7027,-2.7027,-2.7027,-2.7027,-2.7027,-2.7027,-2.7027,-2.7027,-2.7027,-2.7027,-2.7027,-2.7027,-2.7027,-2.7027,-2.7027,-2.7027,-2.7027,-2.7027,-2.7027,-2.7027,-2.7027,-2.7027,-2.7027,-2.7027,-2.7027,-2.7027,-2.7519,-2.6254,-2.4926,-2.467,-2.3461,-2.2186,0.0,0.0,0.0,-2.1764,-2.208,-2.2408,-2.2334,-2.2334,-2.2247,-2.2273,-2.2309,-2.2247,-2.2273,-2.2309,-2.2334,-2.2334,-2.2334,-2.2334,-2.2334,-2.2334,-2.2334,-2.2334,-2.2632,-2.3079,-2.3364,-2.3874,-2.4402,-2.5157,-2.5451,-2.5745,-2.6039,-2.6279,-2.6386,-2.6386,-2.6386,-2.6386,-2.6386,-2.6386,-2.6386,-2.6386,-2.6386,-2.6386,-2.6386,-2.6386,-2.6386,-2.6386,-2.6386,-2.6386,-2.6386,-2.6386,-2.6386,-2.6386,-2.6386,-2.6426,-2.656,-2.7094,-2.7348,-2.7522,-2.8087,-2.8221,-2.8221,-2.8221,-2.8221,-2.8221,-2.8221,-2.8221,-2.8065,-2.7643,-2.7135,-2.6723,-2.6263,-2.6227,-2.623,-2.6291,-2.6701,-2.7027,-2.7027,-2.7027,-2.7027,-2.7027,-2.7027,-2.7027,-2.7027,-2.7027,-2.7027,-2.7027,-2.7027,-2.7027,-2.7027,-2.7027,-2.7027,-2.7027,-2.7027,-2.7027,-2.7027,-2.7027,-2.7027,-2.7027,-2.7027,-2.7027,-2.7027,-2.7027,-2.7027,-2.7027,-2.7027,-2.7027,-2.9068,-2.7916,-2.6522,-2.5263,-2.4535,-2.394,-2.2832,0.0,-2.2472,-2.2433,0.0,-2.2707,-2.2334,0.0,0.0,-2.1957,-2.2102,-2.2249,-2.1945,-2.2114,-2.2334,-2.2334,-2.2334,-2.2334,-2.2334,-2.2334,-2.2334,-2.2334,-2.2632,-2.3079,-2.3364,-2.4055,-2.478,-2.5451,-2.5745,-2.6052,-2.6333,-2.6373,-2.6386,-2.6386,-2.6386,-2.6386,-2.6386,-2.6386,-2.6386,-2.6386,-2.6386,-2.6386,-2.6386,-2.6386,-2.6386,-2.6386,-2.6386,-2.6386,-2.6386,-2.6386,-2.6386,-2.6386,-2.6386,-2.656,-2.6827,-2.7161,-2.7698,-2.814,-2.8207,-2.8221,-2.8221,-2.8221,-2.8221,-2.8221,-2.8221,-2.8221,-2.8065,-2.7643,-2.7135,-2.6774,-2.6512,-2.6275,-2.6291,-2.6544,-2.6834,-2.7027,-2.7027,-2.7027,-2.7027,-2.7027,-2.7027,-2.7027,-2.7027,-2.7027,-2.7027,-2.7027,-2.7027,-2.7027,-2.7027,-2.7027,-2.7027,-2.7027,-2.7027,-2.7027,-2.7027,-2.7027,-2.7027,-2.7027,-2.7027,-2.7027,-2.7027,-2.7027,-2.7027,-2.7027,-2.7027,-2.7027,-3.052,-2.9461,-2.8312,-2.7927,-2.6427,-2.4893,-2.4442,-2.3781,-2.3109,-2.286,0.0,0.0,0.0,0.0,0.0,0.0,-2.241,-2.2297,-2.2188,-2.2273,-2.2334,-2.2334,-2.2334,-2.2334,-2.2334,-2.2483,-2.2632,-2.2632,-2.3005,-2.3377,-2.3748,-2.4243,-2.4832,-2.5504,-2.5798,-2.6092,-2.6386,-2.6149,-2.6149,-2.6386,-2.6149,-2.6149,-2.6386,-2.6386,-2.6386,-2.6386,-2.6386,-2.6386,-2.6386,-2.6386,-2.6386,-2.6386,-2.6386,-2.6386,-2.6386,-2.6386,-2.6386,-2.6386,-2.6386,-2.6587,-2.6894,-2.7362,-2.7802,-2.8221,-2.8221,-2.8221,-2.8221,-2.8221,-2.8221,-2.8221,-2.8221,-2.8221,-2.7968,-2.7304,-2.6965,-2.6702,-2.6204,-2.6124,-2.6303,-2.658,-2.6846,-2.7027,-2.7027,-2.7027,-2.7027,-2.7027,-2.7027,-2.7027,-2.7027,-2.7027,-2.7027,-2.7027,-2.7027,-2.7027,-2.7027,-2.7027,-2.7027,-2.7027,-2.7027,-2.7027,-2.7027,-2.7027,-2.7027,-2.7027,-2.7027,-2.7027,-2.7027,-2.7027,-2.7027,-2.7027,-2.7027,-2.7027,-3.1543,-3.09,-3.0171,-3.0116,-2.8416,-2.6718,-2.6494,-2.5356,-2.4268,-2.3984,-2.3741,0.0,0.0,0.0,-2.298,0.0,0.0,-2.2608,-2.2534,-2.2583,-2.2558,-2.2334,-2.2408,-2.2483,-2.2483,-2.2781,-2.3005,-2.293,-2.3228,-2.3551,-2.3925,-2.436,-2.4951,-2.5625,-2.5919,-2.6172,-2.6386,-2.599,-2.599,-2.6386,-2.599,-2.599,-2.6386,-2.6386,-2.6386,-2.6386,-2.6386,-2.6386,-2.6386,-2.6386,-2.6386,-2.6386,-2.6307,-2.6307,-2.6386,-2.6386,-2.6386,-2.6386,-2.6386,-2.6627,-2.7041,-2.7629,-2.7963,-2.8221,-2.8221,-2.8221,-2.8221,-2.8221,-2.8221,-2.8221,-2.8221,-2.8221,-2.7968,-2.7037,-2.6847,-2.6717,-2.6054,-2.6146,-2.6411,-2.6689,-2.6894,-2.7027,-2.7027,-2.7027,-2.7027,-2.7027,-2.7027,-2.7027,-2.7027,-2.7027,-2.7027,-2.7027,-2.7027,-2.7027,-2.7027,-2.7027,-2.7027,-2.7027,-2.7027,-2.7027,-2.7027,-2.7027,-2.7027,-2.7027,-2.7027,-2.7027,-2.7027,-2.7027,-2.7027,-2.7027,-2.7027,-2.7027,-3.1983,-3.2192,-3.215,-3.0802,-3.0395,-3.0071,-2.8949,-2.7479,-2.6386,-2.6198,-2.5038,-2.3896,-2.3451,0.0,0.0,0.0,0.0,0.0,0.0,-2.3199,-2.3079,-2.2408,-2.2632,-2.2856,-2.2856,-2.3228,-2.3228,-2.293,-2.3228,-2.3565,-2.3908,-2.4494,-2.524,-2.5932,-2.6226,-2.6373,-2.6386,-2.599,-2.599,-2.6386,-2.599,-2.599,-2.6386,-2.6386,-2.6386,-2.6386,-2.6386,-2.6386,-2.6386,-2.6386,-2.6386,-2.6386,-2.599,-2.607,-2.6386,-2.6386,-2.6386,-2.6386,-2.6386,-2.6774,-2.7348,-2.802,-2.8221,-2.8221,-2.8221,-2.8221,-2.8221,-2.8221,-2.8221,-2.8221,-2.8221,-2.8221,-2.7968,-2.7037,-2.6986,-2.7007,-2.6321,-2.6423,-2.6701,-2.6966,-2.7027,-2.7027,-2.7027,-2.7027,-2.7027,-2.7027,-2.7027,-2.7027,-2.7027,-2.7027,-2.7027,-2.7027,-2.7027,-2.7027,-2.7027,-2.7027,-2.7027,-2.7027,-2.7027,-2.7027,-2.7027,-2.7027,-2.7027,-2.7027,-2.7027,-2.7027,-2.7027,-2.7027,-2.7027,-2.7027,-2.7027,-2.7027,-3.2404,-3.2496,-3.2527,-3.2327,-3.1544,-3.0719,-3.0587,-2.9383,-2.8003,-2.691,-2.6284,-2.5566,0.0,0.0,0.0,0.0,0.0,0.0,0.0,-2.3313,-2.3366,-2.333,-2.3267,-2.3304,-2.3555,-2.3702,-2.3748,-2.3674,-2.4214,-2.4596,-2.4701,-2.5315,-2.5774,-2.5959,-2.6239,-2.6307,-2.599,-2.5514,-2.5514,-2.599,-2.5514,-2.5686,-2.6386,-2.6386,-2.6386,-2.6386,-2.6386,-2.6386,-2.6386,-2.6386,-2.6386,-2.6386,-2.6228,-2.6307,-2.6386,-2.607,-2.6149,-2.644,-2.6841,-2.7094,-2.7362,-2.8033,-2.8221,-2.8221,-2.8221,-2.8221,-2.8221,-2.8221,-2.8221,-2.8221,-2.8221,-2.8221,-2.7968,-2.7037,-2.6999,-2.702,-2.6333,-2.6435,-2.6713,-2.6979,-2.7027,-2.7027,-2.7027,-2.7027,-2.7027,-2.7027,-2.7027,-2.7027,-2.7027,-2.7027,-2.7027,-2.7027,-2.7027,-2.7027,-2.7027,-2.7027,-2.7027,-2.7027,-2.7027,-2.7027,-2.7027,-2.7027,-2.7027,-2.7027,-2.7027,-2.7027,-2.7027,-2.7027,-2.7027,-2.7027,-2.7027,-2.7027,-3.2826,-3.2918,-3.3101,-3.3358,-3.2657,-3.2,-3.2246,-3.1138,-2.9576,-2.8012,-2.7722,0.0,0.0,0.0,0.0,0.0,0.0,0.0,0.0,-2.39,-2.4142,-2.4441,-2.398,-2.3776,-2.4072,-2.4065,-2.4084,-2.4188,-2.4596,-2.4944,-2.5232,-2.5668,-2.5999,-2.6106,-2.6135,-2.607,-2.5832,-2.5209,-2.5209,-2.5832,-2.5289,-2.5527,-2.6386,-2.6386,-2.6386,-2.6386,-2.6386,-2.6386,-2.6386,-2.6386,-2.6307,-2.6149,-2.599,-2.607,-2.6149,-2.607,-2.6215,-2.6613,-2.7094,-2.7335,-2.7495,-2.8073,-2.8221,-2.8221,-2.8221,-2.8221,-2.8207,-2.81,-2.814,-2.8207,-2.8016,-2.8154,-2.7994,-2.7166,-2.7152,-2.7171,-2.6491,-2.658,-2.6834,-2.7003,-2.7027,-2.7027,-2.7027,-2.7027,-2.7027,-2.7027,-2.7027,-2.7027,-2.7027,-2.7027,-2.7027,-2.7027,-2.7027,-2.7027,-2.7027,-2.7027,-2.7027,-2.7027,-2.7027,-2.7027,-2.7027,-2.7027,-2.7027,-2.7027,-2.7027,-2.7027,-2.7027,-2.7027,-2.7027,-2.7027,-2.7027,-2.7027]},{"header":{"parameterUnit":"m.s-1","parameterCategory":1,"la1":30.6,"la2":29.2853,"lo1":-89.7004,"lo2":-87.6739,"dy":0.0162,"dx":0.0183,"nx":112,"ny":82,"refTime":"2023-10-22T06:00:00:Z","depth":0,"parameterNumber":3,"parameterNumberName":"V-component_of_WINDS"},"data":[0.0,0.0,0.0,0.0,0.0,0.0,0.0,0.0,0.0,0.0,0.0,0.0,0.0,0.0,0.0,0.0,0.0,0.0,0.0,0.0,0.0,0.0,0.0,0.0,0.0,0.0,0.0,0.0,0.0,0.0,0.0,0.0,0.0,0.0,0.0,0.0,0.0,0.0,0.0,0.0,0.0,0.0,0.0,0.0,0.0,0.0,0.0,0.0,0.0,0.0,0.0,0.0,0.0,0.0,0.0,0.0,0.0,0.0,0.0,0.0,0.0,0.0,0.0,0.0,0.0,0.0,0.0,0.0,0.0,0.0,0.0,0.0,0.0,0.0,0.0,0.0,0.0,0.0,0.0,0.0,0.0,0.0,0.0,0.0,0.0,0.0,0.0,0.0,0.0,0.0,5.0989,5.1285,5.1835,5.2266,5.2373,5.2409,5.2144,5.1514,0.0,0.0,0.0,0.0,0.0,0.0,0.0,0.0,0.0,0.0,0.0,0.0,0.0,0.0,0.0,0.0,0.0,0.0,0.0,0.0,0.0,0.0,0.0,0.0,0.0,0.0,0.0,0.0,0.0,0.0,0.0,0.0,0.0,0.0,0.0,0.0,0.0,0.0,0.0,0.0,0.0,0.0,0.0,0.0,0.0,0.0,0.0,0.0,0.0,0.0,0.0,0.0,0.0,0.0,0.0,0.0,0.0,0.0,0.0,0.0,0.0,0.0,0.0,0.0,0.0,0.0,0.0,0.0,0.0,0.0,0.0,0.0,0.0,0.0,0.0,0.0,0.0,0.0,0.0,0.0,0.0,0.0,0.0,0.0,0.0,0.0,0.0,0.0,0.0,0.0,0.0,0.0,0.0,0.0,0.0,0.0,0.0,0.0,0.0,0.0,0.0,0.0,0.0,0.0,5.0576,5.2053,5.1655,5.1582,5.2338,5.2409,5.2376,5.2243,0.0,0.0,0.0,0.0,0.0,0.0,0.0,0.0,0.0,0.0,0.0,0.0,0.0,0.0,0.0,0.0,0.0,0.0,0.0,0.0,0.0,0.0,0.0,0.0,0.0,0.0,0.0,0.0,0.0,0.0,0.0,0.0,0.0,0.0,0.0,0.0,0.0,0.0,0.0,0.0,0.0,0.0,0.0,0.0,0.0,0.0,0.0,0.0,0.0,0.0,0.0,0.0,0.0,0.0,0.0,0.0,0.0,0.0,0.0,0.0,0.0,0.0,0.0,0.0,0.0,0.0,0.0,0.0,0.0,0.0,0.0,0.0,0.0,0.0,0.0,0.0,0.0,0.0,0.0,0.0,0.0,0.0,0.0,0.0,0.0,0.0,0.0,0.0,0.0,0.0,0.0,0.0,0.0,0.0,0.0,0.0,0.0,0.0,0.0,0.0,0.0,0.0,0.0,5.1848,5.2486,5.2897,5.2576,5.2339,5.2407,5.248,5.248,5.2409,5.2254,0.0,0.0,0.0,0.0,0.0,0.0,0.0,0.0,0.0,0.0,0.0,0.0,0.0,0.0,0.0,0.0,0.0,0.0,0.0,0.0,0.0,0.0,0.0,0.0,0.0,0.0,0.0,0.0,0.0,0.0,0.0,0.0,0.0,0.0,0.0,0.0,0.0,0.0,0.0,0.0,0.0,0.0,0.0,0.0,0.0,0.0,0.0,0.0,0.0,0.0,0.0,0.0,0.0,0.0,0.0,0.0,0.0,0.0,0.0,0.0,0.0,0.0,0.0,0.0,0.0,0.0,0.0,0.0,0.0,0.0,0.0,0.0,0.0,0.0,0.0,0.0,0.0,0.0,0.0,0.0,0.0,0.0,0.0,0.0,0.0,0.0,0.0,0.0,0.0,0.0,0.0,0.0,0.0,0.0,0.0,0.0,0.0,0.0,0.0,0.0,0.0,0.0,5.3967,5.4258,5.3732,5.3665,5.3467,5.3009,5.305,5.3019,5.2746,5.2996,0.0,0.0,0.0,0.0,0.0,0.0,0.0,0.0,0.0,0.0,0.0,0.0,0.0,0.0,0.0,0.0,0.0,0.0,0.0,0.0,0.0,0.0,0.0,0.0,0.0,0.0,0.0,0.0,0.0,0.0,0.0,0.0,0.0,0.0,0.0,0.0,0.0,0.0,0.0,0.0,0.0,0.0,0.0,0.0,0.0,0.0,0.0,0.0,0.0,0.0,0.0,0.0,0.0,0.0,0.0,0.0,0.0,0.0,0.0,0.0,0.0,0.0,0.0,0.0,0.0,0.0,0.0,0.0,0.0,0.0,0.0,0.0,0.0,0.0,0.0,0.0,0.0,0.0,0.0,0.0,0.0,0.0,0.0,0.0,0.0,0.0,0.0,0.0,0.0,0.0,0.0,0.0,0.0,0.0,0.0,0.0,0.0,0.0,0.0,0.0,0.0,0.0,5.4005,5.4456,5.446,5.439,5.4501,5.4619,5.4655,5.4356,5.3656,5.3801,0.0,0.0,0.0,0.0,0.0,0.0,0.0,0.0,0.0,0.0,0.0,0.0,0.0,0.0,0.0,0.0,0.0,0.0,0.0,0.0,0.0,0.0,0.0,0.0,0.0,0.0,0.0,0.0,0.0,0.0,0.0,0.0,0.0,0.0,0.0,0.0,0.0,0.0,0.0,0.0,0.0,0.0,0.0,0.0,0.0,0.0,0.0,0.0,0.0,0.0,0.0,0.0,0.0,0.0,0.0,0.0,0.0,0.0,0.0,0.0,0.0,0.0,0.0,0.0,0.0,0.0,0.0,0.0,0.0,0.0,0.0,0.0,0.0,0.0,0.0,0.0,0.0,0.0,0.0,0.0,0.0,0.0,0.0,0.0,0.0,0.0,0.0,0.0,0.0,0.0,0.0,0.0,0.0,0.0,0.0,0.0,0.0,0.0,0.0,0.0,0.0,0.0,5.5512,5.5913,5.5592,5.5451,5.5285,5.5001,5.5113,5.5015,5.457,0.0,0.0,0.0,0.0,0.0,0.0,0.0,0.0,0.0,0.0,0.0,0.0,0.0,0.0,0.0,0.0,0.0,0.0,0.0,0.0,0.0,0.0,0.0,0.0,0.0,0.0,0.0,0.0,0.0,0.0,0.0,0.0,0.0,0.0,0.0,0.0,0.0,0.0,0.0,0.0,0.0,0.0,0.0,0.0,0.0,0.0,0.0,0.0,0.0,0.0,0.0,0.0,0.0,0.0,0.0,0.0,0.0,0.0,0.0,0.0,0.0,0.0,0.0,0.0,0.0,0.0,0.0,0.0,0.0,0.0,0.0,0.0,0.0,0.0,0.0,0.0,0.0,0.0,0.0,0.0,0.0,0.0,0.0,0.0,0.0,0.0,0.0,0.0,0.0,0.0,0.0,0.0,0.0,0.0,0.0,0.0,0.0,0.0,0.0,0.0,0.0,0.0,5.6231,5.6724,5.6938,5.662,5.6441,5.6241,5.5923,5.6001,5.5936,5.559,0.0,0.0,0.0,0.0,0.0,0.0,0.0,0.0,0.0,0.0,0.0,0.0,0.0,0.0,0.0,0.0,0.0,0.0,0.0,0.0,0.0,0.0,0.0,0.0,0.0,0.0,0.0,0.0,0.0,0.0,0.0,0.0,0.0,0.0,0.0,0.0,0.0,0.0,0.0,0.0,0.0,0.0,0.0,0.0,0.0,0.0,0.0,0.0,0.0,0.0,0.0,0.0,0.0,0.0,0.0,0.0,0.0,0.0,0.0,0.0,0.0,0.0,0.0,0.0,0.0,0.0,0.0,0.0,0.0,0.0,0.0,0.0,0.0,0.0,0.0,0.0,0.0,0.0,0.0,0.0,0.0,0.0,0.0,0.0,0.0,0.0,0.0,0.0,0.0,0.0,0.0,0.0,0.0,0.0,0.0,0.0,0.0,0.0,0.0,0.0,0.0,0.0,5.7289,5.7289,5.7289,5.7327,5.7289,5.7402,5.7588,5.7588,5.7285,0.0,0.0,0.0,0.0,0.0,0.0,0.0,0.0,0.0,0.0,0.0,0.0,0.0,0.0,0.0,0.0,0.0,0.0,0.0,0.0,0.0,0.0,0.0,0.0,0.0,0.0,0.0,0.0,0.0,0.0,0.0,0.0,0.0,0.0,0.0,0.0,0.0,0.0,0.0,0.0,0.0,0.0,0.0,0.0,0.0,0.0,0.0,0.0,0.0,0.0,0.0,0.0,0.0,0.0,0.0,0.0,0.0,0.0,0.0,0.0,0.0,0.0,0.0,0.0,0.0,0.0,0.0,0.0,0.0,0.0,0.0,0.0,0.0,0.0,0.0,0.0,0.0,0.0,0.0,0.0,0.0,0.0,0.0,0.0,0.0,0.0,0.0,0.0,0.0,0.0,0.0,0.0,0.0,0.0,0.0,0.0,0.0,0.0,0.0,0.0,0.0,0.0,0.0,5.7514,5.7514,5.7551,5.7698,5.7588,5.7588,5.7772,5.7808,5.7707,5.7504,0.0,0.0,0.0,0.0,0.0,0.0,0.0,0.0,0.0,0.0,0.0,0.0,0.0,0.0,0.0,0.0,0.0,0.0,0.0,0.0,0.0,0.0,0.0,0.0,0.0,0.0,0.0,0.0,0.0,0.0,0.0,0.0,0.0,0.0,0.0,0.0,0.0,0.0,0.0,0.0,0.0,0.0,0.0,0.0,0.0,0.0,0.0,0.0,0.0,0.0,0.0,0.0,0.0,0.0,0.0,0.0,0.0,0.0,0.0,0.0,0.0,0.0,0.0,0.0,0.0,0.0,0.0,0.0,0.0,0.0,0.0,0.0,0.0,0.0,0.0,0.0,0.0,0.0,0.0,0.0,0.0,0.0,0.0,0.0,0.0,0.0,0.0,0.0,0.0,0.0,0.0,0.0,0.0,0.0,0.0,0.0,0.0,0.0,0.0,0.0,0.0,0.0,5.8575,5.8575,5.865,5.8761,5.865,5.865,5.8761,5.849,5.8355,5.8355,0.0,0.0,0.0,0.0,0.0,0.0,0.0,0.0,0.0,0.0,0.0,0.0,0.0,0.0,0.0,0.0,0.0,0.0,0.0,0.0,0.0,0.0,0.0,0.0,0.0,0.0,0.0,0.0,0.0,0.0,0.0,0.0,0.0,0.0,0.0,0.0,0.0,0.0,0.0,0.0,0.0,0.0,0.0,0.0,0.0,0.0,0.0,0.0,0.0,0.0,0.0,0.0,0.0,0.0,0.0,0.0,0.0,0.0,0.0,0.0,0.0,0.0,0.0,0.0,0.0,0.0,0.0,0.0,0.0,0.0,0.0,0.0,0.0,0.0,0.0,0.0,0.0,0.0,0.0,0.0,0.0,0.0,0.0,0.0,0.0,0.0,0.0,0.0,0.0,0.0,0.0,0.0,0.0,0.0,0.0,0.0,0.0,0.0,0.0,0.0,0.0,0.0,6.0114,6.0114,6.0114,6.0114,6.0114,6.0114,6.0114,5.9505,5.9099,5.9211,0.0,0.0,0.0,0.0,0.0,0.0,0.0,0.0,0.0,0.0,0.0,0.0,0.0,0.0,0.0,0.0,0.0,0.0,0.0,0.0,0.0,0.0,0.0,0.0,0.0,0.0,0.0,0.0,0.0,0.0,0.0,0.0,0.0,0.0,0.0,0.0,0.0,0.0,0.0,0.0,0.0,0.0,0.0,0.0,0.0,0.0,0.0,0.0,0.0,0.0,0.0,0.0,0.0,0.0,0.0,0.0,0.0,0.0,0.0,0.0,6.2719,6.2381,0.0,0.0,0.0,0.0,0.0,0.0,0.0,0.0,0.0,0.0,0.0,0.0,0.0,0.0,0.0,0.0,0.0,0.0,0.0,0.0,0.0,0.0,0.0,0.0,0.0,0.0,0.0,0.0,0.0,0.0,0.0,0.0,0.0,0.0,0.0,0.0,0.0,0.0,0.0,0.0,6.0114,6.0114,6.0114,6.0114,6.0114,6.0114,6.0114,5.9945,6.0106,6.0659,6.0593,0.0,0.0,0.0,0.0,0.0,0.0,0.0,0.0,0.0,0.0,0.0,0.0,0.0,0.0,0.0,0.0,0.0,0.0,0.0,0.0,0.0,0.0,0.0,0.0,0.0,0.0,0.0,0.0,0.0,0.0,0.0,0.0,0.0,0.0,0.0,0.0,0.0,0.0,0.0,0.0,0.0,0.0,0.0,0.0,0.0,0.0,0.0,0.0,0.0,0.0,0.0,0.0,0.0,0.0,0.0,0.0,0.0,0.0,0.0,6.2867,6.2736,0.0,0.0,0.0,0.0,0.0,0.0,0.0,0.0,0.0,0.0,0.0,0.0,0.0,0.0,0.0,0.0,0.0,0.0,0.0,0.0,0.0,0.0,0.0,0.0,0.0,0.0,0.0,0.0,0.0,0.0,0.0,0.0,0.0,0.0,0.0,0.0,0.0,0.0,0.0,0.0,6.1698,6.2034,6.2253,6.2253,6.2253,6.2253,6.2253,6.1943,6.188,6.2266,6.2021,0.0,0.0,0.0,0.0,0.0,0.0,0.0,0.0,0.0,0.0,0.0,0.0,0.0,0.0,0.0,0.0,0.0,0.0,0.0,0.0,0.0,0.0,0.0,0.0,0.0,0.0,0.0,0.0,0.0,0.0,0.0,0.0,0.0,0.0,0.0,0.0,0.0,0.0,0.0,0.0,0.0,0.0,0.0,0.0,0.0,0.0,0.0,0.0,0.0,0.0,0.0,0.0,0.0,6.3608,6.3645,6.4183,6.4323,6.4393,6.4358,6.3841,6.3807,6.4142,6.4346,0.0,0.0,0.0,0.0,0.0,0.0,0.0,0.0,0.0,0.0,0.0,0.0,0.0,0.0,0.0,0.0,0.0,0.0,0.0,0.0,0.0,0.0,6.8651,6.8005,6.8331,6.8259,6.6328,0.0,0.0,0.0,0.0,0.0,0.0,0.0,0.0,0.0,0.0,0.0,6.3752,6.4288,6.4634,6.4601,6.4634,6.4634,6.4669,6.4106,6.3821,6.3954,6.3483,6.3254,0.0,0.0,0.0,0.0,0.0,0.0,0.0,0.0,0.0,0.0,0.0,0.0,0.0,0.0,0.0,0.0,0.0,0.0,0.0,0.0,0.0,0.0,0.0,0.0,0.0,0.0,0.0,0.0,0.0,0.0,0.0,0.0,6.2923,6.2923,0.0,0.0,0.0,0.0,0.0,0.0,0.0,0.0,0.0,0.0,0.0,0.0,0.0,6.4698,6.4767,6.4767,6.4766,6.4866,6.4766,6.4766,6.4902,6.5573,6.5925,6.596,6.6701,0.0,6.5928,6.6635,0.0,0.0,0.0,0.0,0.0,0.0,0.0,0.0,0.0,0.0,0.0,0.0,0.0,0.0,0.0,0.0,0.0,0.0,0.0,0.0,0.0,0.0,6.984,6.9783,6.9811,6.9803,6.949,6.7662,6.6059,6.6026,6.5426,6.4902,0.0,0.0,0.0,0.0,0.0,0.0,6.4633,6.4801,6.4835,6.4635,6.4803,6.4902,6.4769,6.4762,6.509,6.5699,6.5653,6.5929,6.6562,6.6022,0.0,0.0,0.0,0.0,0.0,0.0,0.0,0.0,0.0,0.0,0.0,0.0,0.0,0.0,0.0,0.0,0.0,0.0,0.0,0.0,0.0,0.0,0.0,0.0,0.0,0.0,0.0,0.0,0.0,6.2962,6.3,6.3,6.3,6.2962,0.0,0.0,0.0,0.0,0.0,0.0,0.0,0.0,0.0,6.4735,6.5001,6.5232,6.5329,6.5329,6.5558,6.5935,6.5986,6.6232,6.6684,6.7474,6.7832,6.79,6.9168,6.9466,6.9018,6.8478,6.8451,6.8786,0.0,0.0,0.0,0.0,6.8753,6.8812,6.8831,6.9056,6.9391,6.9391,0.0,0.0,0.0,0.0,0.0,0.0,0.0,7.1382,7.1382,7.1374,7.1468,7.1468,7.1468,7.1468,7.1468,7.0178,6.8904,6.8378,6.7986,6.758,6.6971,6.6874,0.0,0.0,0.0,6.6731,6.6271,6.6612,6.6685,6.6136,6.6156,6.6217,6.6156,6.6217,6.6368,6.6707,6.6823,6.7032,6.7359,6.7021,6.6866,0.0,0.0,0.0,0.0,0.0,0.0,0.0,0.0,0.0,0.0,0.0,0.0,0.0,0.0,0.0,0.0,0.0,0.0,0.0,0.0,0.0,0.0,0.0,0.0,0.0,0.0,0.0,0.0,6.3268,6.3383,6.3383,6.3533,6.3643,0.0,0.0,0.0,0.0,0.0,0.0,6.5131,6.5361,6.549,6.5653,6.5811,6.5966,6.6156,6.6156,6.6434,6.6975,6.7198,6.7625,6.8182,6.9193,6.9666,6.9732,7.1048,7.1615,7.1529,7.0329,7.0102,7.0553,7.0452,7.04,7.0396,7.0418,7.0485,7.0568,7.0566,7.0649,7.0697,7.0697,7.0697,7.0844,7.1431,0.0,0.0,0.0,0.0,7.2496,7.2496,7.2496,7.2496,7.2496,7.2496,7.2496,7.2496,7.2055,7.1338,7.0446,7.0088,6.9733,6.8965,6.8873,0.0,6.8138,6.8526,6.8656,6.8047,6.8277,6.8244,6.7575,6.7404,6.7322,6.7266,6.7294,6.7322,6.7322,6.7652,6.7744,6.7561,6.7744,6.7799,6.7687,0.0,0.0,0.0,0.0,0.0,0.0,0.0,0.0,0.0,0.0,0.0,0.0,0.0,0.0,0.0,0.0,0.0,0.0,0.0,0.0,0.0,0.0,0.0,0.0,0.0,0.0,0.0,0.0,0.0,6.4532,6.5105,0.0,0.0,0.0,0.0,6.5267,6.5462,6.5558,6.5558,6.6217,6.6618,6.6618,6.723,6.7569,6.7569,6.7569,6.7596,6.766,6.8413,6.8816,6.888,7.0457,7.1191,7.1228,7.2063,7.2459,7.2422,7.2336,7.2336,7.2365,7.2343,7.238,7.2343,7.2372,7.2365,7.2365,7.2357,7.2386,7.2386,7.2386,7.2386,7.2386,7.2422,7.2459,0.0,0.0,7.2496,7.2496,7.2496,7.2496,7.2496,7.2496,7.2496,7.2496,7.2496,7.2459,7.2202,7.1366,7.0596,7.0054,6.9884,0.0,6.9827,6.9762,6.9827,6.9791,6.9754,6.9237,6.8724,6.8398,6.7964,6.7633,6.747,6.7606,6.7687,6.7687,6.8394,6.8495,6.7724,6.8421,6.8495,6.7687,6.7687,0.0,0.0,0.0,0.0,0.0,0.0,0.0,0.0,0.0,0.0,0.0,0.0,0.0,0.0,0.0,0.0,0.0,0.0,0.0,0.0,0.0,0.0,0.0,0.0,0.0,0.0,0.0,0.0,6.5234,6.5429,0.0,6.5494,6.6002,6.6283,6.6222,6.6671,6.6967,6.6967,6.7202,6.735,6.735,6.7579,6.7687,6.7687,6.7687,6.7944,6.8495,6.9302,6.9926,7.0477,7.1578,7.2092,7.2092,7.2386,7.2496,7.2496,7.2496,7.2496,7.2496,7.2496,7.2496,7.2496,7.2496,7.2496,7.2496,7.2496,7.2496,7.2496,7.2496,7.2496,7.2496,7.2496,7.2496,7.2496,7.2496,7.2496,7.2496,7.2496,7.2129,7.1725,7.1725,7.1321,7.0954,7.0954,7.0954,7.0881,7.0587,7.0734,7.0852,7.0796,7.0356,7.0026,7.0026,7.0026,6.9843,6.9329,6.9054,6.866,6.8028,6.778,6.7687,6.7633,6.766,6.7687,6.7687,6.7944,6.7981,6.7714,6.7981,6.7981,6.7714,6.7687,6.7687,0.0,0.0,0.0,0.0,0.0,0.0,0.0,0.0,0.0,0.0,0.0,0.0,0.0,0.0,0.0,0.0,0.0,0.0,0.0,0.0,0.0,0.0,0.0,0.0,0.0,6.5529,6.5971,6.5971,6.6156,6.6307,6.6307,6.6765,6.7032,6.7032,6.7433,6.7687,6.7687,6.7687,6.7687,6.7687,6.7687,6.7687,6.7687,6.7687,6.8091,6.8898,6.9706,7.0513,7.1329,7.2129,7.2496,7.2496,7.2496,7.2496,7.2496,7.2496,7.2496,7.2496,7.2496,7.2496,7.2496,7.2496,7.2496,7.2496,7.2496,7.2496,7.2496,7.2496,7.2496,7.2496,7.2496,7.2312,7.2092,7.2092,7.1908,7.1688,7.1688,7.1284,7.0917,7.0917,7.0477,7.011,7.011,7.011,7.011,7.011,7.055,7.0917,7.0917,7.044,7.011,7.011,7.011,6.9926,6.9376,6.9082,6.8715,6.8164,6.7834,6.7687,6.7687,6.7687,6.7687,6.7687,6.7944,6.7981,6.7714,6.7944,6.7981,6.7714,6.7687,6.7687,6.7687,0.0,0.0,0.0,0.0,0.0,0.0,0.0,0.0,0.0,0.0,0.0,0.0,0.0,0.0,0.0,0.0,0.0,0.0,0.0,0.0,0.0,0.0,0.0,6.5716,6.6283,6.6736,6.6736,6.7286,6.7687,6.7687,6.7687,6.7687,6.7687,6.7687,6.7687,6.7687,6.7687,6.7687,6.7687,6.7687,6.7687,6.7687,6.7687,6.8091,6.8898,6.9706,7.0513,7.1329,7.2129,7.2496,7.2496,7.2496,7.2496,7.2496,7.2496,7.2496,7.2496,7.2496,7.2496,7.2496,7.2496,7.2496,7.2496,7.2496,7.2496,7.2496,7.2496,7.2496,7.2496,7.2496,7.1982,7.1329,7.1329,7.077,7.0183,7.0183,7.0146,7.0146,7.0146,7.011,7.011,7.011,7.011,7.011,7.011,7.011,7.0073,7.0073,7.0036,7.0036,7.0036,7.0036,0.0,7.0036,6.9339,6.8862,6.8862,6.8164,6.7687,6.7687,6.7687,6.7687,6.7687,6.8421,6.8495,6.7724,6.8458,6.8495,6.7724,6.7687,6.7687,6.7687,0.0,0.0,0.0,0.0,0.0,0.0,0.0,0.0,0.0,0.0,0.0,0.0,0.0,0.0,0.0,0.0,0.0,0.0,0.0,0.0,0.0,6.6589,6.6618,6.6434,6.6967,6.7433,6.7433,6.7606,6.7687,6.7687,6.7687,6.7687,6.7687,6.7687,6.7687,6.7687,6.7687,6.7687,6.7687,6.7687,6.7687,6.7687,6.7687,6.8091,6.8898,6.9706,7.0513,7.1329,7.2129,7.2496,7.2496,7.2496,7.2496,7.2496,7.2496,7.2496,7.2496,7.2496,7.2496,7.2496,7.2496,7.2496,7.2496,7.2496,7.2496,7.2496,7.2496,7.2496,7.2496,7.2496,7.2349,7.2165,7.2165,7.2018,7.1835,7.1835,7.1431,7.0991,7.0991,7.0513,7.011,7.011,7.011,7.011,7.011,7.011,6.9926,6.9339,6.8752,6.8348,6.8348,6.8348,6.8348,6.8348,6.8164,6.8017,6.8017,6.7834,6.7687,6.7687,6.7687,6.7687,6.7687,6.7907,6.7907,6.7714,6.7907,6.7907,6.7687,6.7687,6.7687,0.0,0.0,0.0,0.0,0.0,0.0,0.0,0.0,0.0,0.0,0.0,0.0,0.0,0.0,0.0,0.0,0.0,0.0,0.0,0.0,0.0,0.0,6.7117,6.7117,6.7117,6.746,6.7687,6.7687,6.7687,6.7687,6.7687,6.7687,6.7687,6.7687,6.7687,6.7687,6.7687,6.7687,6.7687,6.7687,6.7687,6.7687,6.7687,6.8017,6.8605,6.9412,7.022,7.1027,7.1835,7.2312,7.2496,7.2496,7.2496,7.2496,7.2496,7.2496,7.2496,7.2496,0.0,0.0,0.0,0.0,7.2496,7.2496,7.2496,7.2496,7.2496,7.2496,7.2496,7.2496,7.2496,7.2275,7.2018,7.2018,7.1762,7.1505,7.1505,7.1138,7.0807,7.0807,7.044,7.011,7.011,7.011,7.011,7.011,7.011,0.0,6.9486,6.8752,6.8201,6.8201,6.8201,6.8201,6.8201,6.8495,6.8568,6.8238,6.8201,6.8054,6.7724,6.7687,0.0,0.0,0.0,6.7687,6.7687,6.7687,0.0,0.0,0.0,6.782,6.7982,6.8247,0.0,0.0,6.878,6.8825,0.0,0.0,0.0,0.0,0.0,0.0,0.0,0.0,0.0,0.0,0.0,0.0,0.0,0.0,0.0,0.0,6.7687,6.7687,6.7687,6.7687,6.7687,6.7687,6.7687,6.7687,6.7687,6.7687,6.7687,6.7687,6.7687,6.7687,6.7687,6.7687,0.0,0.0,0.0,6.7834,6.7834,6.8641,6.9376,7.011,7.0917,7.1688,7.2386,7.2459,7.2496,7.2496,7.2496,7.2496,7.2496,7.2496,7.2496,7.2496,7.2496,7.2496,7.2496,7.2496,7.2496,7.2496,7.2496,0.0,0.0,7.2496,7.2496,7.2496,7.2496,7.2018,7.1439,7.1439,7.0917,7.0367,7.0367,7.0367,7.0367,7.0367,7.0367,7.0367,7.0367,7.0367,7.0367,7.0367,7.0367,7.0367,7.0367,6.9633,6.9045,6.9045,6.9045,6.9045,6.9045,6.9669,6.9816,6.9119,6.9045,0.0,6.8017,6.7944,6.7944,6.7944,6.7944,6.7907,6.7834,6.7914,6.7867,6.7794,6.781,6.8058,6.849,6.8538,6.8981,6.9816,6.9365,6.9198,0.0,0.0,0.0,0.0,0.0,0.0,0.0,0.0,0.0,0.0,0.0,0.0,0.0,0.0,0.0,6.7687,6.7687,6.7687,6.7687,6.7687,6.7687,6.7687,6.7687,6.7687,6.7687,6.7687,6.7687,6.7687,6.7687,6.7687,6.7687,6.7687,6.7687,6.7687,6.8311,6.8678,6.8678,6.9486,6.9963,7.011,7.0917,0.0,7.1578,7.2202,7.2496,7.2496,7.2496,7.2496,7.2496,7.2496,7.2496,7.2496,7.2496,7.2496,7.2496,7.2496,7.2496,7.2496,7.2496,7.2496,7.2496,7.2496,7.2496,7.2496,7.2496,7.2386,0.0,7.2275,7.2165,7.2055,7.2055,7.2055,7.2055,7.2055,7.2055,7.2055,7.2055,7.2055,7.2055,7.2055,7.2055,7.2055,7.2055,7.0844,6.9853,6.9853,6.9853,6.9853,6.9853,7.0,7.0036,6.9889,6.9853,6.9816,6.9633,6.9633,6.9633,6.9633,6.9633,6.9339,6.8678,6.903,6.8927,6.8284,6.8656,6.887,6.8959,6.9323,6.9623,6.9816,6.9701,6.9834,0.0,0.0,0.0,0.0,0.0,0.0,0.0,0.0,0.0,0.0,0.0,6.6794,6.7146,0.0,6.7687,6.7687,6.7687,6.7687,6.7687,6.7687,6.7687,6.7687,6.7687,6.7687,6.7687,6.7687,6.7687,6.7687,6.7687,6.7687,6.7687,6.7687,6.7871,6.8274,6.8678,6.9082,6.9486,7.0293,7.0697,7.0697,7.1541,7.1908,7.1908,7.2312,7.2496,7.2496,7.2496,7.2496,7.2496,7.2496,7.2496,7.2496,7.2496,7.2496,7.2496,7.2496,7.2496,7.2496,7.2496,7.2496,7.2496,7.2496,7.2496,7.2496,7.2496,7.2496,7.2496,7.2582,7.261,7.261,7.2695,7.276,7.276,7.276,7.276,7.276,7.276,7.276,7.2695,7.261,7.261,7.2582,7.2496,7.1835,7.1174,7.077,7.0697,7.0697,7.0697,7.1064,7.1138,7.0734,7.0697,7.055,7.011,7.011,7.0211,7.0434,7.0238,7.0027,6.9843,7.0089,7.0139,7.0013,7.0241,7.0482,7.0692,7.0951,7.1181,7.1403,7.1403,7.1052,0.0,0.0,0.0,0.0,0.0,0.0,0.0,6.6033,6.6186,6.6765,6.6881,6.7061,6.7606,6.7687,6.7687,6.7687,6.7687,6.7687,6.7687,6.7687,6.7687,6.7687,6.7687,6.7687,6.7687,6.7687,6.7687,6.7687,6.7687,6.7687,6.7687,6.7834,6.8238,6.8898,6.9192,6.9669,7.033,7.1138,7.1513,7.1541,7.2202,7.2496,7.2496,7.2496,7.2496,7.2496,7.2496,7.2496,7.2524,7.2524,7.2553,7.2582,7.2582,7.2582,7.2582,7.2553,7.2553,7.2582,7.2582,7.2582,7.2582,7.2582,7.2582,7.2582,7.2582,7.2582,7.261,7.2723,7.2751,7.2779,7.2955,7.2982,7.2982,7.2982,7.2982,7.2982,7.2982,7.2982,7.2955,7.2779,7.2751,7.2695,7.2553,7.2553,7.2333,7.1651,7.1513,7.1513,7.1513,7.2092,7.2275,7.1615,7.1513,7.1313,7.0754,7.0744,7.0914,7.1405,7.1061,7.0935,7.1193,7.1291,7.1476,7.1772,7.1857,7.2064,7.249,7.249,7.2675,7.3029,7.3012,7.227,6.5248,6.5462,6.5653,6.6404,6.6589,6.6736,0.0,6.746,6.7488,6.7542,6.7606,6.7633,6.7687,6.7687,6.7687,6.7687,6.7687,6.7687,6.7687,6.7687,6.7687,6.7687,6.7687,6.7687,6.7687,6.7687,6.7687,6.7687,6.7687,6.7687,6.7687,6.8385,6.8825,6.8898,7.0293,7.1101,7.1174,7.1982,7.2386,7.2386,7.2459,7.2496,7.2496,7.2496,7.2496,7.2496,7.2496,7.2553,7.2695,7.2695,7.2779,7.2927,7.2927,7.2927,7.2927,7.2751,7.2779,7.2927,7.2927,7.2927,7.2927,7.2927,7.2927,7.2927,7.2927,7.2927,7.2955,7.2955,7.2955,7.2982,7.2982,7.2982,7.2982,7.2982,7.2982,7.2982,7.2982,7.2982,7.2982,7.2982,7.2955,7.2927,7.2723,7.2844,7.2807,7.2414,7.2386,7.2386,7.2386,7.2459,7.2459,7.2386,7.2386,7.2539,7.2907,7.296,7.3155,7.3593,7.3593,7.3302,7.2695,7.2994,7.2942,7.2395,7.2761,7.2969,7.3083,7.3083,7.3137,7.3169,7.3105,7.2948,6.4477,6.5445,6.6191,6.6481,6.6601,6.6765,6.7523,6.7687,6.7687,6.7687,6.7687,6.7687,6.7687,6.7687,6.7687,6.7687,6.7687,6.7687,6.7687,6.7687,6.7687,6.7687,6.7687,6.7687,6.7687,6.7687,6.7687,6.7687,6.7687,6.7907,6.8385,6.8796,6.9439,7.0395,7.114,7.1701,7.2095,7.2426,7.2582,7.2496,7.2496,7.2496,7.2496,7.2582,7.2667,7.2788,7.2667,7.2695,7.2863,7.2863,7.2927,7.2982,7.2982,7.3037,7.3091,7.2955,7.2927,7.2982,7.2982,7.2982,7.2982,7.2982,7.2982,7.2982,7.2982,7.2982,7.3009,7.3091,7.3118,7.3145,7.3225,7.3252,7.3252,7.3252,7.3252,7.3252,7.3252,7.3252,7.3225,7.3118,7.3118,7.3064,7.2927,7.3324,7.3656,7.3516,7.2989,7.261,7.261,7.2553,7.2496,7.2496,7.2496,7.2853,7.3628,7.3441,7.3665,7.4476,7.4221,7.4077,7.4116,7.4294,7.4352,7.4367,7.4522,7.4625,7.4657,7.4657,7.4657,7.4657,7.4625,7.4593,6.4218,6.5313,6.6219,6.6439,6.6512,6.6696,6.7504,6.7687,6.7687,6.7687,6.7687,6.7687,6.7687,6.7687,6.7687,6.7687,6.7687,6.7687,6.7687,6.7687,6.7687,6.7687,6.7687,6.7687,6.7687,6.7687,6.7797,6.8017,6.8017,6.8412,6.9247,6.9576,7.032,7.1526,7.1894,7.23,7.2779,7.2723,7.2667,7.261,7.2524,7.2524,7.2553,7.2667,7.2807,7.2982,7.2872,7.2899,7.3064,7.3064,7.3064,7.3118,7.3118,7.3172,7.3252,7.3145,7.3118,7.3118,7.3118,7.3118,7.3118,7.3118,7.3118,7.3118,7.3118,7.3118,7.3145,7.3225,7.3252,7.3278,7.3346,7.3398,7.3398,7.3398,7.3398,7.3398,7.3398,7.3558,7.3681,7.3612,7.3771,7.3892,7.3729,7.4238,7.4608,7.458,7.3988,7.3471,7.3386,7.3243,7.3156,7.3251,7.3222,7.3564,7.4615,7.4399,7.4662,7.5704,7.5469,7.5337,7.5547,7.5547,7.5612,7.5794,7.5779,7.5779,7.5772,7.5772,7.5772,7.5772,7.5779,7.5763,6.5249,6.5312,6.5521,6.6329,6.6512,6.6696,6.7504,6.7687,6.7687,6.7687,6.7687,6.7687,6.7687,6.7687,6.7687,6.7687,6.7687,6.7687,6.7687,6.7687,6.7687,6.7687,6.7687,6.7687,6.7687,6.7687,6.8017,6.8788,6.8862,6.9284,7.0192,7.0993,7.1517,7.1662,7.2502,7.2945,7.2982,7.2779,7.2779,7.2982,7.2675,7.2553,7.2695,7.2695,7.2807,7.2982,7.2982,7.3064,7.3199,7.3199,7.3278,7.3372,7.3372,7.3372,7.3372,7.3372,7.3372,7.3372,7.3372,7.3372,7.3372,7.3372,7.3372,7.3372,7.3372,7.3372,7.3372,7.3372,7.3372,7.3372,7.3398,7.3398,7.3398,7.3398,7.3398,7.3398,7.3398,7.403,7.4561,7.4561,7.5193,7.5659,7.556,7.5642,7.5696,7.5597,7.5532,7.5421,7.5174,7.4934,7.4904,7.5117,7.4934,7.5263,7.6341,7.6493,7.6928,7.7941,7.8101,7.7818,7.7054,7.6952,7.6654,7.6,7.5925,7.5925,7.6015,7.6015,7.6015,7.6,7.5925,7.5879,6.3796,6.4431,6.5375,6.5632,6.6109,6.6696,6.7504,6.7687,6.7687,6.7687,6.7687,6.7687,6.7687,6.7687,6.7687,6.7687,6.7687,6.7687,6.7687,6.7687,6.7687,6.7687,6.8164,6.8495,6.8495,6.8495,6.8605,6.8898,6.9376,7.0092,7.1066,7.1443,7.1985,7.2674,7.3077,7.3225,7.3118,7.3064,7.3037,7.2982,7.2899,7.2899,7.3037,7.2955,7.3,7.3278,7.3172,7.3225,7.3357,7.3357,7.3346,7.3398,7.3398,7.3398,7.3398,7.3398,7.3398,7.3398,7.3398,7.3398,7.3398,7.3398,7.3398,7.3398,7.3398,7.3398,7.3398,7.3398,7.3398,7.3398,7.3398,7.3398,7.3398,7.3398,7.3398,7.3547,7.4078,7.4413,7.4747,7.5267,7.5601,7.5787,7.5733,7.6243,7.6827,7.733,7.6366,7.5551,7.5354,7.5269,7.5269,7.5326,7.5269,7.5605,7.6639,7.6716,7.7173,7.8223,7.8343,7.8276,7.8047,7.7993,7.7893,7.7669,7.7654,7.7654,7.7669,7.7669,7.7669,7.7669,7.7639,7.7639,6.3319,6.4053,6.5007,6.5595,6.6109,6.6696,6.7504,6.7687,6.7687,6.7687,6.7687,6.7687,6.7687,6.7687,6.7687,6.7687,6.7687,6.7687,6.7687,6.7944,6.8128,6.8128,6.8825,6.9339,6.9339,6.9596,6.9779,6.9779,7.0257,7.0937,7.1876,7.2088,7.2482,7.3199,7.3357,7.3346,7.3278,7.3172,7.3064,7.2899,7.3009,7.3118,7.3199,7.3118,7.3199,7.341,7.3331,7.3331,7.3398,7.3398,7.3398,7.3398,7.3398,7.3398,7.3398,7.3398,7.3398,7.3398,7.3398,7.3398,7.3398,7.3398,7.3398,7.3398,7.3398,7.3398,7.3398,7.3398,7.3398,7.3398,7.3398,7.3398,7.3473,7.377,7.3844,7.4041,7.4858,7.5267,7.5639,7.6159,7.6493,7.6679,7.6679,7.7162,7.7682,7.8202,7.7302,7.6514,7.6467,7.6318,7.6261,7.6318,7.6289,7.6659,7.762,7.7696,7.8187,7.9226,7.9345,7.9238,7.8977,7.8977,7.8823,7.8515,7.8477,7.8477,7.8477,7.8477,7.8477,7.8477,7.8477,7.8477,6.387,6.4127,6.453,6.6109,6.6512,6.6769,6.7504,6.7687,6.7687,6.7687,6.7687,6.7687,6.7687,6.7687,6.7687,6.7687,6.7687,6.7687,6.7787,6.8421,6.8935,6.8972,6.9669,7.0146,7.0146,7.0881,7.1329,7.1329,7.1329,7.1745,7.2686,7.2899,7.3064,7.3199,7.332,7.3398,7.3398,7.3145,7.2927,7.2751,7.3064,7.3199,7.3199,7.3199,7.3278,7.3398,7.3398,7.3398,7.3398,7.3398,7.3398,7.3398,7.3398,7.3398,7.3398,7.3398,7.3398,7.3398,7.3398,7.3398,7.3398,7.3398,7.3398,7.3398,7.3398,7.3398,7.3372,7.3372,7.3372,7.3372,7.3372,7.341,7.3658,7.4413,7.4635,7.4858,7.5676,7.6493,7.7115,7.7152,7.7756,7.8276,7.8276,7.8276,7.8276,7.8276,7.8276,7.8276,7.8276,7.8023,7.7871,7.8014,7.79,7.822,7.918,7.9351,7.9806,8.0822,8.1045,8.0746,7.99,7.9862,7.9477,7.8631,7.8631,7.8631,7.8631,7.8631,7.8631,7.8631,7.8631,7.8631,6.387,6.453,6.5228,6.6256,6.6953,6.743,6.7677,6.7687,6.7687,6.7687,6.7687,6.7687,6.7687,6.7687,6.7687,6.7687,6.7687,6.7907,6.8495,6.8788,6.9119,6.9706,7.0513,7.0991,7.0991,7.1725,7.2202,7.2202,7.2202,7.2426,7.2927,7.2982,7.3118,7.332,7.3372,7.3398,7.3398,7.332,7.3268,7.3215,7.3294,7.3357,7.3357,7.3357,7.3346,7.3398,7.3398,7.3398,7.3398,7.3398,7.3398,7.3398,7.3398,7.3398,7.3398,7.3398,7.3398,7.3398,7.3398,7.3398,7.3398,7.3398,7.3398,7.3398,7.3398,7.3398,7.3372,7.3278,7.3331,7.3372,7.3278,7.3776,7.4338,7.4524,7.5044,7.5713,7.6567,7.6966,7.7301,7.7868,7.8165,7.8276,7.8276,7.8276,7.8276,7.8276,7.8276,7.8276,7.8276,7.8221,7.8193,7.8221,7.8193,7.8431,7.9015,7.9403,7.9861,8.0465,8.0893,8.1016,8.0785,8.0785,8.0669,8.0439,8.0439,8.0439,8.0439,8.0439,8.0439,8.0439,8.0439,8.0439,6.4383,6.5228,6.6035,6.6843,6.7357,6.7687,6.7687,6.7687,6.7687,6.7687,6.7687,6.7687,6.7687,6.7687,6.7687,6.7687,6.7687,6.7981,6.8788,6.9192,6.9743,7.055,7.1358,7.1835,7.1835,7.2239,7.2496,7.2496,7.2496,7.2582,7.2788,7.2927,7.3064,7.3225,7.332,7.3346,7.3331,7.3346,7.3346,7.3331,7.3331,7.332,7.3372,7.3357,7.332,7.3398,7.3398,7.3398,7.3398,7.3398,7.3398,7.3398,7.3398,7.3398,7.3398,7.3398,7.3398,7.3398,7.3398,7.3398,7.3398,7.3398,7.3398,7.3398,7.3398,7.3398,7.3372,7.3331,7.3617,7.393,7.3851,7.4471,7.5193,7.5628,7.6047,7.6604,7.7422,7.7608,7.7756,7.8202,7.8276,7.8276,7.8276,7.8276,7.8276,7.8276,7.8276,7.8276,7.8276,7.8276,7.8276,7.8276,7.8276,7.8485,7.8954,7.9232,7.9686,8.0354,8.0629,8.0893,8.1093,8.1093,8.1093,8.1093,8.1093,8.1093,8.1093,8.1093,8.1093,8.1093,8.1093,8.1093,6.5081,6.5888,6.6696,6.7504,6.7687,6.7687,6.7687,6.7687,6.7687,6.7687,6.7687,6.7687,6.7687,6.7687,6.7687,6.7687,6.7687,6.8017,6.8935,6.9669,7.044,7.1358,7.2092,7.2496,7.2496,7.2496,7.2496,7.2496,7.2496,7.2524,7.2553,7.2844,7.3009,7.3064,7.3278,7.3331,7.3199,7.332,7.3357,7.3199,7.3199,7.3278,7.341,7.3278,7.3278,7.3398,7.3398,7.3398,7.3398,7.3398,7.3398,7.3398,7.3398,7.3398,7.3372,7.3372,7.3346,7.3346,7.3346,7.3346,7.3346,7.3346,7.341,7.3372,7.3372,7.341,7.341,7.3521,7.4041,7.4598,7.4683,7.5341,7.6159,7.6929,7.7189,7.7422,7.8128,7.8276,7.8276,7.8276,7.8276,7.8276,7.8276,7.8276,7.8276,7.8276,7.8276,7.8313,7.8425,7.8351,7.8276,7.8276,7.8276,7.8458,7.8891,7.8979,7.9372,8.0258,8.0354,8.0611,8.1077,8.1093,8.1093,8.1093,8.1093,8.1093,8.1093,8.1093,8.1093,8.1093,8.1093,8.1093,6.5081,6.5888,6.6696,6.7504,6.7687,6.7687,6.7687,6.7687,6.7687,6.7687,6.7687,6.7687,6.7687,6.7687,6.7687,6.7687,6.7687,6.8201,6.9669,7.0,7.066,7.2129,7.2422,7.2496,7.2496,7.2496,7.2496,7.2496,7.2496,7.261,7.2899,7.2955,7.3091,7.3294,7.3278,7.3225,7.3199,7.332,7.3357,7.3199,7.3199,7.3278,7.341,7.3278,7.3278,7.3398,7.3398,7.3398,7.3398,7.3398,7.3398,7.3398,7.3398,7.3398,7.341,7.3278,7.3225,7.3225,7.3118,7.3145,7.3225,7.3225,7.3331,7.3372,7.3278,7.3331,7.3521,7.4094,7.4407,7.472,7.5281,7.6151,7.6929,7.7078,7.7635,7.8128,7.8239,7.8276,7.8276,7.8276,7.8276,7.8276,7.8276,7.8276,7.8276,7.8276,7.8276,7.8536,7.9205,7.8685,7.8276,7.8276,7.8276,7.8332,7.8414,7.8789,7.9232,7.9794,8.02,8.0611,8.1077,8.1093,8.1093,8.1093,8.1093,8.1093,8.1093,8.1093,8.1093,8.1093,8.1093,8.1093,6.5191,6.6182,6.721,6.7577,6.7687,6.7687,6.7687,6.7687,6.7687,6.7687,6.7687,6.7687,6.7687,6.7687,6.7687,6.7687,6.7687,6.8091,6.9302,6.9853,7.055,7.1725,7.2275,7.2496,7.2496,7.2496,7.2496,7.2496,7.2496,7.2582,7.2807,7.3009,7.3199,7.3372,7.3278,7.3199,7.3199,7.3199,7.3172,7.3091,7.3009,7.3,7.3199,7.3118,7.3172,7.3305,7.3346,7.3398,7.3398,7.3398,7.3398,7.3372,7.3331,7.3305,7.3278,7.3145,7.3091,7.3091,7.3009,7.3091,7.3199,7.3118,7.3252,7.3484,7.3813,7.3951,7.419,7.4927,7.5473,7.5973,7.63,7.7033,7.7719,7.7719,7.8016,7.8276,7.8276,7.8276,7.8276,7.8276,7.8276,7.8276,7.8276,7.8276,7.8276,7.8276,7.8648,7.9056,7.9428,7.9502,7.9539,7.9539,7.9539,7.9539,7.9539,7.9779,8.0204,8.0953,8.1191,8.1652,8.2385,8.1977,8.1708,8.1708,8.1323,8.1093,8.1093,8.1093,8.1093,8.1093,8.1093,8.1093,6.5044,6.6072,6.7173,6.7173,6.7173,6.7173,6.7173,6.7173,6.721,6.7393,6.743,6.7504,6.765,6.7687,6.7687,6.7687,6.7687,6.7981,6.8788,6.9596,7.0403,7.1183,7.2018,7.2496,7.2496,7.2496,7.2496,7.2496,7.2524,7.261,7.2751,7.3037,7.3225,7.3346,7.3225,7.3145,7.3091,7.3037,7.2982,7.2927,7.2779,7.2807,7.2982,7.2982,7.3064,7.3199,7.332,7.3398,7.3372,7.3346,7.3383,7.332,7.3225,7.3145,7.3145,7.2982,7.2927,7.2927,7.2899,7.3009,7.3145,7.3037,7.3199,7.3521,7.4312,7.4572,7.4784,7.5787,7.6567,7.7152,7.7338,7.7858,7.8276,7.8276,7.8276,7.8276,7.8276,7.8276,7.8276,7.8276,7.8276,7.8276,7.8276,7.8276,7.8351,7.8536,7.9094,7.9614,7.9985,8.058,8.1025,8.1211,8.0914,8.0691,8.0691,8.0691,8.1062,8.1967,8.2013,8.2433,8.3423,8.2787,8.2474,8.2593,8.1939,8.1631,8.1631,8.1439,8.1362,8.1362,8.117,8.1093,6.42,6.4861,6.5521,6.5521,6.5521,6.5521,6.5521,6.5521,6.5742,6.6476,6.6623,6.6843,6.7577,6.7687,6.7687,6.7687,6.7687,6.7981,6.8788,6.9596,7.0403,7.1183,7.2018,7.2496,7.2496,7.2496,7.2496,7.2496,7.261,7.2751,7.2955,7.3009,7.3064,7.3225,7.3091,7.2927,7.2751,7.2927,7.2927,7.2723,7.2723,7.2807,7.2982,7.2982,7.3064,7.3199,7.332,7.3398,7.3372,7.3278,7.3225,7.3199,7.3064,7.3009,7.2982,7.2779,7.2723,7.2723,7.2582,7.276,7.3009,7.3009,7.3199,7.3558,7.4216,7.4492,7.4933,7.653,7.704,7.7273,7.7979,7.8239,7.8276,7.8276,7.8276,7.8276,7.8276,7.8276,7.8276,7.8276,7.8276,7.8276,7.8276,7.8276,7.8536,7.9279,7.9428,8.0059,8.1545,8.1806,8.214,8.2883,8.162,8.0691,8.0691,8.0691,8.0935,8.1432,8.1457,8.1943,8.2913,8.2875,8.306,8.3478,8.3401,8.3362,8.3362,8.2593,8.217,8.217,8.1439,8.1093,6.409,6.4677,6.5301,6.5301,6.5301,6.5301,6.5301,6.5301,6.5411,6.5705,6.6145,6.6586,6.6916,6.7357,6.7687,6.7687,6.7687,6.7797,6.8128,6.9265,7.022,7.055,7.1725,7.2496,7.2496,7.2496,7.2496,7.2496,7.2553,7.2638,7.2807,7.3009,7.3145,7.3199,7.3064,7.2955,7.2899,7.2788,7.2638,7.2582,7.2582,7.261,7.2732,7.2899,7.3037,7.3091,7.3225,7.3278,7.3278,7.3145,7.3064,7.3064,7.2899,7.2807,7.2779,7.2638,7.2582,7.2582,7.2524,7.2638,7.2807,7.2807,7.3314,7.4061,7.4974,7.5649,7.6344,7.7496,7.7793,7.7905,7.8202,7.8276,7.8276,7.8276,7.8276,7.8276,7.8276,7.8276,7.8276,7.8276,7.8276,7.8276,7.8276,7.8276,7.8573,7.9354,7.9911,8.0654,8.1843,8.24,8.2846,8.3143,8.2586,8.2177,8.2177,8.2177,8.2398,8.2857,8.2909,8.3237,8.3932,8.3768,8.3716,8.3921,8.3725,8.3593,8.3593,8.3247,8.3093,8.3054,8.2747,8.2593,6.3723,6.4127,6.4567,6.4567,6.4567,6.4567,6.4567,6.4567,6.464,6.4897,6.5411,6.5925,6.6402,6.6953,6.7393,6.765,6.7687,6.7687,6.7687,6.8862,6.9816,7.0073,7.1321,7.2239,7.2496,7.2496,7.2496,7.2496,7.2496,7.2524,7.2638,7.289,7.3064,7.3064,7.2982,7.2899,7.2872,7.261,7.2496,7.2496,7.2496,7.2496,7.2496,7.2816,7.2927,7.2927,7.3064,7.3145,7.3118,7.2982,7.2927,7.2899,7.2695,7.2638,7.2638,7.2524,7.2496,7.2496,7.2496,7.2582,7.2695,7.2695,7.3544,7.4709,7.5449,7.6282,7.7126,7.7942,7.8165,7.8165,7.8165,7.8193,7.8221,7.8221,7.8248,7.8276,7.8276,7.8276,7.8276,7.8276,7.8276,7.8276,7.8276,7.8276,7.8648,7.9688,8.032,8.11,8.2214,8.2846,8.318,8.318,8.318,8.318,8.318,8.318,8.3347,8.3665,8.3692,8.3922,8.4438,8.418,8.4115,8.4279,8.4171,8.4136,8.4136,8.4044,8.3978,8.3978,8.3708,8.3593,6.278,6.2817,6.2817,6.2817,6.2817,6.2817,6.2817,6.2817,6.3062,6.3906,6.4127,6.4604,6.6219,6.6512,6.6769,6.7577,6.7687,6.7687,6.7687,6.8385,6.9229,7.0,7.0844,7.1651,7.2422,7.2496,7.2496,7.2496,7.2496,7.2496,7.2496,7.2638,7.2723,7.2723,7.2695,7.2638,7.2496,7.2496,7.2496,7.2496,7.2496,7.2496,7.2496,7.2638,7.2695,7.2723,7.2927,7.3009,7.2982,7.2779,7.2695,7.2695,7.2553,7.2496,7.2496,7.2496,7.2496,7.2496,7.2496,7.2582,7.2695,7.2695,7.3913,7.5383,7.542,7.5974,7.6786,7.7562,7.782,7.782,7.782,7.79,7.8014,7.8014,7.8165,7.8276,7.8276,7.8276,7.8276,7.8276,7.8276,7.8276,7.8276,7.8276,7.8833,8.0431,8.0691,8.1285,8.2957,8.318,8.318,8.318,8.318,8.318,8.318,8.318,8.318,8.321,8.321,8.3433,8.3896,8.3885,8.4142,8.4673,8.5155,8.5378,8.5378,8.504,8.4901,8.4863,8.3978,8.3593,6.278,6.278,6.278,6.278,6.278,6.278,6.278,6.278,6.2879,6.3172,6.3686,6.442,6.5485,6.6145,6.6769,6.7577,6.7687,6.7687,6.7687,6.8385,6.9009,6.9265,7.0477,7.1651,7.2422,7.2496,7.2496,7.2496,7.2496,7.2496,7.2496,7.2524,7.261,7.2695,7.2695,7.2695,7.2638,7.2553,7.2496,7.2496,7.2496,7.2496,7.2496,7.2638,7.2695,7.2695,7.2751,7.2779,7.2779,7.261,7.2553,7.2553,7.2524,7.2496,7.2496,7.2496,7.2496,7.2496,7.2496,7.2524,7.2553,7.2553,7.3684,7.5066,7.5066,7.6169,7.7488,7.7747,7.782,7.782,7.782,7.7813,7.7842,7.7842,7.79,7.7965,7.7965,7.8014,7.8099,7.8099,7.8221,7.8276,7.8276,7.8759,7.9465,8.0542,8.1211,8.1954,8.3032,8.318,8.318,8.318,8.318,8.318,8.318,8.318,8.318,8.318,8.318,8.3268,8.3433,8.3747,8.4001,8.4142,8.465,8.4899,8.4899,8.5129,8.543,8.5709,8.544,8.5324,6.278,6.278,6.278,6.278,6.278,6.278,6.278,6.278,6.278,6.278,6.3246,6.3943,6.5081,6.5705,6.6402,6.7504,6.7687,6.7687,6.7687,6.8128,6.8568,6.8862,7.033,7.1476,7.2018,7.2312,7.2496,7.2496,7.2496,7.2496,7.2496,7.2496,7.2524,7.261,7.261,7.261,7.261,7.2524,7.2496,7.2496,7.2496,7.2496,7.2496,7.2582,7.261,7.261,7.261,7.261,0.0,7.2524,7.2496,7.2496,7.2496,7.2496,7.2496,7.2496,7.2496,7.2496,7.2496,7.2496,7.2496,7.2496,7.3597,7.5028,7.5652,7.6654,7.7607,7.7607,7.7607,7.7607,7.7607,7.7673,7.7732,7.7732,7.7762,7.782,7.782,7.7871,7.7957,7.8014,7.8099,7.8221,7.8276,7.8945,7.9762,8.058,8.1434,8.2288,8.3106,8.318,8.318,8.318,8.318,8.318,8.318,8.318,8.318,8.318,8.318,8.318,8.318,8.348,8.3638,8.3638,8.4155,8.439,8.439,8.4899,8.5377,8.5849,8.5849,8.5919,0.0,6.278,6.278,6.278,6.278,6.278,6.278,6.278,0.0,6.278,6.278,6.3319,6.5007,6.5301,6.5852,6.743,6.7687,6.7687,6.7687,6.7687,6.7981,6.8788,7.022,7.1174,7.1211,7.1908,7.2349,7.2422,7.2422,7.2459,7.2496,7.2496,7.2496,7.2496,7.2496,7.2496,7.2496,7.2496,7.2496,7.2496,7.2496,7.2496,7.2496,7.2496,7.2496,7.2496,7.2496,7.2496,7.2496,7.2496,7.2496,7.2496,7.2496,7.2496,7.2496,7.2496,7.2496,7.2496,7.2496,7.2496,7.2532,7.2642,7.367,7.5212,7.6796,7.7273,7.7273,7.7273,7.7273,7.7273,7.7273,7.7433,7.759,7.759,7.7673,7.7754,7.7754,7.7791,7.7813,7.7957,7.7986,7.8043,7.8221,7.9019,7.9837,8.058,8.1471,8.2363,8.3106,8.318,8.318,8.318,8.318,8.318,8.318,8.318,8.318,8.318,8.318,8.318,8.318,8.318,8.318,8.318,8.361,8.387,8.3922,8.4438,8.492,8.5357,8.5416,8.5665,6.2658,0.0,6.278,6.278,6.278,6.278,0.0,6.278,6.278,6.278,6.278,6.3319,6.5007,6.5301,6.5852,6.743,6.7687,6.7687,6.7687,6.7687,6.7981,6.8788,6.9229,6.9706,7.033,7.055,7.0917,7.1541,7.1578,7.1872,7.2459,7.2496,7.2496,7.2496,7.2496,7.2496,7.2496,7.2496,7.2496,7.2496,7.2496,7.2496,7.2496,7.2496,7.2496,7.2496,7.2496,7.2496,7.2496,7.2496,7.2496,7.2496,7.2496,7.2496,7.2496,7.2496,7.2496,7.2496,7.2496,7.2496,7.2716,7.3964,7.4588,7.5212,7.6796,7.7273,7.7273,7.7273,7.7273,7.7273,7.7273,7.7341,7.7372,7.7372,7.7365,7.7396,7.7396,7.7554,7.7643,7.7673,7.7791,7.7842,7.7937,7.9208,8.0332,8.0518,8.1896,8.2994,8.318,8.318,8.318,8.318,8.318,8.318,8.318,8.318,8.318,8.318,8.318,8.318,8.318,8.318,8.318,8.318,8.3289,8.3564,8.3922,8.4438,8.478,8.4876,8.5609,8.5793,6.2585,6.278,6.278,6.278,6.278,6.278,6.278,6.278,6.278,6.278,6.278,6.3319,6.5007,6.5301,6.5852,6.743,6.7687,6.7687,6.7687,6.7687,6.7834,6.8311,6.8678,6.9082,6.9522,6.9889,7.0293,7.0734,7.077,7.1101,7.1908,7.1945,7.2129,7.2496,7.2496,7.2496,7.2496,7.2496,7.2496,7.2496,7.2496,7.2496,7.2496,7.2496,7.2496,7.2496,7.2496,7.2496,7.2496,7.2496,7.2496,7.2496,7.2496,7.2496,7.2496,7.2496,7.2496,7.2496,7.2496,7.2496,7.2716,7.3964,7.4588,7.5139,7.6387,7.698,7.7273,7.7273,7.7273,7.7273,7.7273,7.7273,7.7273,7.7273,7.7273,7.7273,7.7273,7.7402,7.7493,7.7554,7.7643,7.7732,7.7791,7.9298,8.0496,8.0496,8.2052,8.318,8.318,8.318,8.318,8.318,8.318,8.318,8.318,8.318,8.318,8.318,8.318,8.318,8.318,8.318,8.318,8.318,8.318,8.3424,8.3922,8.4167,8.4557,8.5029,8.5533,8.5757,6.2401,6.2732,6.278,6.278,6.278,6.278,6.278,6.278,6.278,6.278,6.2915,6.3466,6.5044,6.5411,6.5962,6.7467,6.7687,6.7687,6.7687,6.7687,6.7687,6.7687,6.8311,6.8715,6.8715,6.9339,6.9779,6.9926,6.9926,7.0257,7.1101,7.1219,7.1615,7.2312,7.2459,7.2496,7.2496,7.2496,7.2496,7.2496,7.2496,7.2496,7.2496,7.2496,7.2496,7.2496,7.2496,7.2496,7.2496,7.2496,7.2496,7.2496,7.2496,7.2496,7.2496,7.2496,7.2496,7.2496,7.2496,7.2496,7.2642,7.345,7.4258,7.5065,7.5873,7.668,7.7273,7.7273,7.7273,7.7273,7.7273,7.7273,7.7273,7.7273,7.7273,7.7273,7.7273,7.7273,7.7372,7.7524,7.7524,7.7584,7.7695,7.9209,8.0437,8.0437,8.1963,8.3121,8.3121,8.3151,8.3151,8.3151,8.318,8.318,8.318,8.318,8.318,8.318,8.318,8.318,8.318,8.318,8.318,8.318,8.318,8.3404,8.379,8.387,8.4365,8.5176,8.5337,8.5628,6.1557,6.2291,6.278,6.278,6.278,6.278,6.278,6.278,6.278,6.278,6.3392,6.42,6.5154,6.5852,6.6623,6.754,6.7687,6.7687,6.7687,6.7687,6.7687,6.7687,6.7797,6.7871,6.7871,6.7981,6.8348,6.9045,6.9082,6.9449,7.022,7.0954,7.1329,7.1505,7.2165,7.2496,7.2496,7.2496,7.2496,7.2496,7.2496,7.2496,7.2496,7.2496,7.2496,7.2496,7.2496,7.2496,7.2496,7.2496,7.2496,7.2496,7.2496,7.2496,7.2496,7.2496,7.2496,7.2496,7.2496,7.2496,7.2642,7.345,7.4258,7.5065,7.5873,7.668,7.7273,7.7273,7.7273,7.7273,7.7273,7.7273,7.7273,7.7273,7.7273,7.7273,7.7273,7.7273,7.7341,7.7341,7.7372,7.7372,7.7365,7.8879,8.0106,8.0106,8.1631,8.2758,8.2758,8.2874,8.2964,8.2964,8.3121,8.318,8.318,8.318,8.318,8.318,8.318,8.318,8.318,8.318,8.318,8.318,8.318,8.3239,8.3289,8.372,8.3963,8.4142,8.5007,8.5436,6.1374,6.2181,6.278,6.278,6.278,6.278,6.278,6.278,6.278,6.278,6.3503,6.4347,6.5154,6.5962,6.6769,6.7577,6.7687,6.7687,6.7687,6.7687,6.7687,6.7687,6.7687,6.7687,6.7687,6.7687,6.7834,6.8201,6.8238,6.8605,6.9412,7.022,7.0844,7.1321,7.2092,7.2496,7.2496,7.2496,7.2496,7.2496,7.2496,7.2496,7.2496,7.2496,7.2496,7.2496,7.2496,7.2496,7.2496,7.2496,7.2496,7.2496,7.2496,7.2496,7.2496,7.2496,7.2496,7.2496,7.2496,7.2496,7.2569,7.2936,7.3891,7.4992,7.5359,7.635,7.7273,7.7273,7.7273,7.7273,7.7273,7.7273,7.7273,7.7273,7.7273,7.7273,7.7273,7.7273,7.7273,7.7273,7.7273,7.742,7.7928,7.9112,8.0124,8.0566,8.1889,8.2782,8.2782,8.2934,8.3054,8.3054,8.3151,8.318,8.318,8.318,8.318,8.318,8.318,8.318,8.318,8.318,8.318,8.318,8.318,8.3318,8.3555,8.379,8.4041,8.4341,8.5071,8.5416,6.1153,6.2034,6.278,6.278,6.278,6.278,6.278,6.278,6.278,6.278,6.3649,6.4567,6.5191,6.6109,6.699,6.7577,6.7687,6.7687,6.7687,6.7687,6.7687,6.7687,6.7687,6.7687,6.7687,6.7687,6.7687,6.7687,6.7687,6.7944,6.8605,6.9559,7.0367,7.0991,7.1982,7.2496,7.2496,7.2496,7.2496,7.2496,7.2496,7.2496,7.2496,7.2496,7.2496,7.2496,7.2496,7.2496,7.2496,7.2496,7.2496,7.2496,7.2496,7.2496,7.2496,7.2496,7.2496,7.2496,7.2496,7.2496,7.2496,7.2496,7.3597,7.4918,7.4918,7.5989,7.7273,7.7273,7.7273,7.7273,7.7273,7.7273,7.7273,7.7273,7.7273,7.7273,7.7273,7.7273,7.7273,7.7273,7.7273,7.7567,7.8442,7.9375,8.0209,8.1019,8.208,8.2782,8.2782,8.2964,8.3151,8.3151,8.318,8.318,8.318,8.318,8.318,8.318,8.318,8.318,8.318,8.318,8.318,8.318,8.318,8.3376,8.3747,8.3747,8.4001,8.451,8.4899,8.5176,6.0456,6.163,6.278,6.278,6.278,6.278,6.278,6.278,6.278,6.278,6.409,6.5228,6.5301,6.6549,6.7614,6.7687,6.7687,6.7687,6.7687,6.7687,6.7687,6.7687,6.7687,6.7687,6.7687,6.7687,6.7687,6.7687,6.7687,6.7724,6.776,6.9265,7.011,7.0183,7.1688,7.2496,7.2496,7.2496,7.2496,7.2496,7.2496,7.2496,7.2496,7.2496,7.2496,7.2496,7.2496,7.2496,7.2496,7.2496,7.2496,7.2496,7.2496,7.2496,7.2496,7.2496,7.2496,7.2496,7.2496,7.2496,7.2496,7.2496,7.3597,7.4918,7.4918,7.5989,7.7273,7.7273,7.7273,7.7273,7.7273,7.7273,7.7273,7.7273,7.7273,7.7273,7.7273,7.7273,7.7273,7.7273,7.7273,7.7567,7.8442,7.9281,8.0089,8.0865,8.1833,8.2439,8.2439,8.2721,8.2934,8.2934,8.3091,8.318,8.318,8.318,8.318,8.318,8.318,8.318,8.318,8.318,8.318,8.318,8.318,8.321,8.3268,8.3268,8.348,8.3975,8.3963,8.4495,6.0419,6.1594,6.278,6.278,6.278,6.278,6.278,6.278,6.2952,6.3503,6.453,6.5632,6.6623,6.7283,6.7687,6.7687,6.7687,6.7687,6.7687,6.7687,6.7687,6.7687,6.7687,6.7687,6.7687,6.7687,6.7687,6.7687,6.7687,6.7687,6.7687,6.8752,6.9596,7.0073,7.1174,7.1982,7.2496,7.2496,7.2496,7.2496,7.2496,7.2496,7.2496,7.2496,7.2496,7.2496,7.2496,7.2496,7.2496,7.2496,7.2496,7.2496,7.2496,7.2496,7.2496,7.2496,7.2496,7.2496,7.2496,7.2496,7.2496,7.2496,7.3597,7.4918,7.4918,7.5989,7.7273,7.7273,7.7273,7.7273,7.7273,7.7273,7.7273,7.7273,7.7273,7.7273,7.7273,7.7273,7.7273,7.7273,7.7273,7.7745,7.9103,7.9674,8.0362,8.1686,8.2349,8.2721,8.2721,8.2934,8.3091,8.3091,8.3151,8.318,8.318,8.318,8.318,8.318,8.318,8.318,8.318,8.318,8.318,8.318,8.318,8.318,8.318,8.318,8.326,8.3452,8.3763,8.4292,6.0419,6.1594,6.278,6.278,6.278,6.278,6.278,6.278,6.3062,6.3906,6.4934,6.6109,6.743,6.7687,6.7687,6.7687,6.7687,6.7687,6.7687,6.7687,6.7687,6.7687,6.7687,6.7687,6.7687,6.7687,6.7687,6.7687,6.7687,6.7687,6.7687,6.8458,6.9265,7.0073,7.0881,7.1688,7.2496,7.2496,7.2496,7.2496,7.2496,7.2496,7.2496,7.2496,7.2496,7.2496,7.2496,7.2496,7.2496,7.2496,7.2496,7.2496,7.2496,7.2496,7.2496,7.2496,7.2496,7.2496,7.2496,7.2496,7.2496,7.2496,7.3597,7.4918,7.4918,7.5989,7.7273,7.7273,7.7273,7.7273,7.7273,7.7273,7.7273,7.7273,7.7273,7.7273,7.7273,7.7273,7.7273,7.7273,7.7372,7.7916,7.9601,7.9946,8.0622,8.225,8.2721,8.2904,8.2904,8.3091,8.318,8.318,8.318,8.318,8.318,8.318,8.318,8.318,8.318,8.318,8.318,8.318,8.318,8.318,8.318,8.318,8.318,8.318,8.318,8.321,8.3536,8.3949,6.0419,6.1594,6.278,6.278,6.278,6.278,6.278,6.278,6.3062,6.3906,6.5375,6.6733,6.754,6.7687,6.7687,6.7687,6.7687,6.7687,6.7687,6.7687,6.7687,6.7687,6.7687,6.7687,6.7687,6.7687,6.7687,6.7687,6.7687,6.7687,6.7687,6.8458,6.9265,7.0073,7.0881,7.1688,7.2496,7.2496,7.2496,7.2496,7.2496,7.2496,7.2496,7.2496,7.2496,7.2496,7.2496,7.2496,7.2496,7.2496,7.2496,7.2496,7.2496,7.2496,7.2496,7.2496,7.2496,7.2496,7.2496,7.2496,7.2496,7.2496,7.3597,7.4918,7.4918,7.5989,7.7273,7.7273,7.7273,7.7273,7.7273,7.7273,7.7273,7.7273,7.7273,7.7273,7.7273,7.7273,7.7273,7.7273,7.7463,7.8099,7.9719,8.013,8.0775,8.2437,8.2813,8.2867,8.2867,8.3091,8.318,8.318,8.318,8.318,8.318,8.318,8.318,8.318,8.318,8.318,8.318,8.318,8.318,8.318,8.318,8.318,8.318,8.318,8.318,8.318,8.318,8.3452,6.0419,6.1594,6.278,6.278,6.278,6.2805,6.2929,6.2855,6.3209,6.464,6.6219,6.7393,6.765,6.7687,6.7687,6.7687,6.7687,6.7687,6.7687,6.7687,6.7687,6.7687,6.7687,6.7687,6.7687,6.7687,6.7687,6.7687,6.7687,6.7687,6.7687,6.7907,6.8678,7.0036,7.033,7.1101,7.2496,7.2496,7.2496,7.2496,7.2496,7.2496,7.2496,7.2496,7.2496,7.2496,7.2496,7.2496,7.2496,7.2496,7.2496,7.2496,7.2496,7.2496,7.2496,7.2496,7.2496,7.2496,7.2496,7.2496,7.2496,7.2496,7.3597,7.4918,7.4918,7.5989,7.7273,7.7273,7.7273,7.7273,7.7273,7.7273,7.7273,7.7273,7.7273,7.7273,7.7273,7.7273,7.7372,7.7493,7.759,7.8129,7.9835,8.0281,8.0955,8.2621,8.2964,8.3121,8.3121,8.3151,8.318,8.318,8.318,8.318,8.318,8.318,8.318,8.318,8.318,8.318,8.318,8.318,8.318,8.318,8.318,8.318,8.318,8.318,8.318,8.318,8.318,8.3452,6.0419,6.1594,6.2805,6.2855,6.288,6.2904,6.3051,6.3542,6.4241,6.5158,6.668,6.7873,6.7873,6.7873,6.7873,6.7873,6.7873,6.7847,6.7794,6.7794,6.7767,6.7714,6.7687,6.7687,6.7687,6.7687,6.7687,6.7687,6.7687,6.7687,6.7687,6.7687,6.8274,6.9596,6.9926,7.0734,7.2018,7.2349,7.2496,7.2496,7.2496,7.2496,7.2496,7.2496,7.2496,7.2496,7.2496,7.2496,7.2496,7.2496,7.2496,7.2496,7.2496,7.2496,7.2496,7.2496,7.2496,7.2496,7.2496,7.2496,7.2496,7.2496,7.3597,7.4918,7.4918,7.5989,7.7273,7.7273,7.7273,7.7273,7.7273,7.7273,7.7273,7.7273,7.7273,7.7273,7.7273,7.7273,7.7372,7.7554,7.7643,7.8249,7.9986,8.0459,8.1132,8.2802,8.3121,8.318,8.318,8.318,8.318,8.318,8.318,8.318,8.318,8.318,8.318,8.318,8.318,8.318,8.318,8.318,8.318,8.318,8.318,8.318,8.318,8.318,8.318,8.318,8.318,8.3347,6.0419,6.1594,6.2855,6.2978,6.3026,6.3075,6.3171,6.4511,6.5706,6.5557,6.6886,6.8095,6.8095,6.8095,6.8095,6.8095,6.8095,6.8044,6.7926,6.7926,6.7873,6.7714,6.7687,6.7687,6.7687,6.7687,6.7687,6.7687,6.7687,6.7687,6.7687,6.7687,6.8054,6.8862,6.9669,7.0477,7.1293,7.2092,7.2496,7.2496,7.2496,7.2496,7.2496,7.2496,7.2496,7.2496,7.2496,7.2496,7.2496,7.2496,7.2496,7.2496,7.2496,7.2496,7.2496,7.2496,7.2496,7.2496,7.2496,7.2496,7.2496,7.2496,7.3597,7.4918,7.4918,7.5989,7.7273,7.7273,7.7273,7.7273,7.7273,7.7273,7.7273,7.7273,7.7273,7.7273,7.7273,7.7273,7.7372,7.7554,7.7703,7.8396,8.0171,8.0605,8.1248,8.2957,8.318,8.318,8.318,8.318,8.318,8.318,8.318,8.318,8.318,8.318,8.318,8.318,8.318,8.318,8.318,8.318,8.318,8.318,8.318,8.318,8.318,8.318,8.318,8.318,8.318,8.318,6.0525,6.1726,6.2978,6.3123,6.3218,6.3289,6.3194,6.4668,6.5949,6.5706,6.6962,6.8095,6.8095,6.8095,6.8095,6.8095,6.8095,6.8044,6.7926,6.7926,6.7873,6.7714,6.7687,6.7687,6.7687,6.7687,6.7687,6.7687,6.7687,6.7687,6.7687,6.7687,6.8054,6.8862,6.9669,7.0477,7.1293,7.2092,7.2496,7.2496,7.2496,7.2496,7.2496,7.2496,7.2496,7.2496,7.2496,7.2496,7.2496,7.2496,7.2496,7.2496,7.2496,7.2496,7.2496,7.2496,7.2496,7.2496,7.2496,7.2496,7.2496,7.2496,7.3597,7.4918,7.4918,7.5989,7.7273,7.7273,7.7273,7.7273,7.7273,7.7273,7.7273,7.7273,7.7273,7.7273,7.7273,7.7273,7.7372,7.7554,7.7703,7.8396,8.0171,8.0605,8.1248,8.2957,8.318,8.318,8.318,8.318,8.318,8.318,8.318,8.318,8.318,8.318,8.318,8.318,8.318,8.318,8.318,8.318,8.318,8.318,8.318,8.318,8.318,8.318,8.318,8.318,8.318,8.318,6.0572,6.1798,6.3123,6.3242,6.3419,6.3488,6.3419,6.4809,6.6044,6.5925,6.716,6.8309,6.8309,6.8309,6.8309,6.8309,6.8309,6.8259,6.8107,6.8055,6.7952,6.782,6.7741,6.7687,6.7687,6.7687,6.7687,6.7687,6.7687,6.7687,6.7687,6.7687,6.7871,6.8311,6.9119,6.9926,7.0734,7.1541,7.2129,7.2496,7.2496,7.2496,7.2496,7.2496,7.2496,7.2496,7.2496,7.2496,7.2496,7.2496,7.2496,7.2496,7.2496,7.2496,7.2496,7.2496,7.2496,7.2496,7.2496,7.2496,7.2496,7.2496,7.3597,7.4918,7.4918,7.5989,7.7273,7.7273,7.7273,7.7273,7.7273,7.7273,7.7273,7.7273,7.7273,7.7273,7.7273,7.7273,7.7402,7.7643,7.7762,7.8425,8.0287,8.1302,8.2177,8.3069,8.318,8.318,8.318,8.318,8.318,8.318,8.318,8.318,8.318,8.318,8.318,8.318,8.318,8.318,8.318,8.318,8.318,8.318,8.318,8.318,8.318,8.318,8.318,8.318,8.318,8.318,6.0619,6.1929,6.3302,6.3419,6.3511,6.3602,6.3602,6.4902,6.6091,6.6091,6.7391,6.8481,6.8481,6.8481,6.8481,6.8481,6.8481,6.8457,6.8309,6.8208,6.8107,6.7926,6.782,6.7741,6.7714,6.7687,6.7687,6.7687,6.7687,6.7687,6.7687,6.7687,6.7687,6.7687,6.8495,6.9302,7.0073,7.0917,7.1725,7.2496,7.2496,7.2496,7.2496,7.2496,7.2496,7.2496,7.2496,7.2496,7.2496,7.2496,7.2496,7.2496,7.2496,7.2496,7.2496,7.2496,7.2496,7.2496,7.2496,7.2496,7.2532,7.2679,7.3707,7.4955,7.5065,7.6099,7.7273,7.7273,7.7273,7.7273,7.7273,7.7273,7.7273,7.7273,7.7273,7.7273,7.7273,7.7341,7.7433,7.7732,7.8042,7.8779,8.044,8.2066,8.318,8.318,8.318,8.318,8.318,8.318,8.318,8.318,8.318,8.318,8.318,8.318,8.318,8.318,8.318,8.318,8.318,8.318,8.318,8.318,8.318,8.318,8.318,8.318,8.318,8.318,8.318,8.318,6.0725,6.2114,6.3557,6.3557,6.3579,6.3602,6.3602,6.4902,6.6091,6.6091,6.7391,6.8481,6.8481,6.8481,6.8481,6.8481,6.8481,6.8457,6.8309,6.8284,6.8183,6.7952,6.7899,6.7847,6.7714,6.7687,6.7687,6.7687,6.7687,6.7687,6.7687,6.7687,6.7687,6.7687,6.8495,6.9302,7.0073,7.0917,7.1725,7.2496,7.2496,7.2496,7.2496,7.2496,7.2496,7.2496,7.2496,7.2496,7.2496,7.2496,7.2496,7.2496,7.2496,7.2496,7.2496,7.2496,7.2496,7.2496,7.2496,7.2496,7.2606,7.3303,7.4147,7.5028,7.5726,7.6607,7.7273,7.7273,7.7273,7.7273,7.7273,7.7273,7.7273,7.7273,7.7273,7.7273,7.7273,7.7433,7.7554,7.7614,7.8995,8.0266,8.0625,8.2066,8.318,8.318,8.318,8.318,8.318,8.318,8.318,8.318,8.318,8.318,8.318,8.318,8.318,8.318,8.318,8.318,8.318,8.318,8.318,8.318,8.318,8.318,8.318,8.318,8.318,8.318,8.318,8.318,6.1948,6.2909,6.3602,6.3602,6.3602,6.3602,6.3602,6.4902,6.6091,6.6091,6.7391,6.8481,6.8481,6.8481,6.8481,6.8481,6.8481,6.8481,6.8408,6.8334,6.8234,6.8055,6.7952,6.7847,6.7714,6.7687,6.7687,6.7687,6.7687,6.7687,6.7687,6.7687,6.7687,6.7687,6.8017,6.8825,7.0073,7.044,7.1248,7.2496,7.2496,7.2496,7.2496,7.2496,7.2496,7.2496,7.2496,7.2496,7.2496,7.2496,7.2496,7.2496,7.2496,7.2496,7.2496,7.2496,7.2496,7.2496,7.2496,7.2496,7.2642,7.345,7.4258,7.5065,7.5873,7.668,7.7273,7.7273,7.7273,7.7273,7.7273,7.7273,7.7273,7.7273,7.7273,7.7273,7.7273,7.7372,7.7493,7.7673,7.9261,8.0634,8.0691,8.2066,8.318,8.318,8.318,8.318,8.318,8.318,8.318,8.318,8.318,8.318,8.318,8.318,8.318,8.318,8.318,8.318,8.318,8.318,8.318,8.318,8.318,8.318,8.318,8.318,8.318,8.318,8.318,8.318,6.2586,6.334,6.3602,6.3602,6.3602,6.3602,6.3602,6.4902,6.6091,6.6091,6.7391,6.8481,6.8481,6.8481,6.8481,6.8481,6.8481,6.8481,6.8481,6.8408,6.8284,6.8095,6.7993,6.7899,6.7714,6.7687,6.7687,6.7687,6.7687,6.7687,6.7687,6.7687,6.7687,6.7687,6.7687,6.8458,7.0073,7.0513,7.1321,7.2496,7.2496,7.2496,7.2496,7.2496,7.2496,7.2496,7.2496,7.2496,7.2496,7.2496,7.2496,7.2496,7.2496,7.2496,7.2496,7.2496,7.2496,7.2496,7.2496,7.2496,7.2679,7.367,7.4404,7.5102,7.6093,7.6827,7.7273,7.7273,7.7273,7.7273,7.7273,7.7273,7.7273,7.7273,7.7273,7.7304,7.7396,7.7426,7.759,7.8137,7.9583,8.0765,8.0988,8.2214,8.318,8.318,8.318,8.318,8.318,8.318,8.318,8.318,8.318,8.318,8.318,8.318,8.318,8.318,8.318,8.318,8.318,8.318,8.318,8.318,8.318,8.318,8.318,8.318,8.318,8.318,8.318,8.318,6.1851,6.2826,6.3602,6.3602,6.3602,6.3602,6.3602,6.4902,6.6091,6.6091,6.7391,6.8481,6.8481,6.8481,6.8481,6.8481,6.8481,6.8481,6.8481,6.8481,6.8383,6.8121,6.807,6.8004,6.7741,6.7687,6.7687,6.7687,6.7687,6.7687,6.7687,6.7687,6.7687,6.7687,6.7687,6.8458,7.0073,7.1615,7.2422,7.2496,7.2496,7.2496,7.2496,7.2496,7.2496,7.2496,7.2496,7.2496,7.2496,7.2496,7.2496,7.2496,7.2496,7.2496,7.2496,7.2496,7.2496,7.2496,7.2496,7.2496,7.2753,7.4331,7.4882,7.5212,7.676,7.7273,7.7273,7.7273,7.7273,7.7273,7.7273,7.7273,7.7273,7.7273,7.7273,7.7402,7.7732,7.7754,7.81,7.9195,8.0097,8.0951,8.1768,8.2623,8.318,8.318,8.318,8.318,8.318,8.318,8.318,8.318,8.318,8.318,8.318,8.318,8.318,8.318,8.318,8.318,8.318,8.318,8.318,8.318,8.318,8.318,8.318,8.318,8.318,8.318,8.318,8.318,6.1906,6.2835,6.3602,6.3602,6.3602,6.3602,6.3602,6.4902,6.6091,6.6091,6.7391,6.8481,6.8481,6.8481,6.8481,6.8481,6.8481,6.8481,6.8481,6.8481,6.8432,6.8259,6.8158,6.8018,6.7847,6.7741,6.7687,6.7687,6.7687,6.7687,6.7687,6.7687,6.7687,6.7687,6.7687,6.8458,7.0073,7.1688,7.2496,7.2496,7.2496,7.2496,7.2496,7.2496,7.2496,7.2496,7.2496,7.2496,7.2496,7.2496,7.2496,7.2496,7.2496,7.2496,7.2496,7.2496,7.2496,7.2496,7.2496,7.2496,7.2789,7.4404,7.4918,7.5212,7.6796,7.7273,7.7273,7.7273,7.7273,7.7273,7.7273,7.7273,7.7273,7.7273,7.7402,7.7554,7.7762,7.7871,7.8216,7.9183,8.0077,8.0988,8.1843,8.266,8.318,8.318,8.318,8.318,8.318,8.318,8.318,8.318,8.318,8.318,8.318,8.318,8.318,8.318,8.318,8.318,8.318,8.318,8.318,8.318,8.318,8.318,8.318,8.318,8.318,8.318,8.318,8.318,6.1906,6.2835,6.3602,6.3602,6.3602,6.3602,6.3602,6.4902,6.6091,6.6091,6.7391,6.8481,6.8481,6.8481,6.8481,6.8481,6.8481,6.8481,6.8481,6.8481,6.8432,6.8309,6.8234,6.8095,6.8004,6.7899,6.782,6.7767,6.7767,6.7741,6.7714,6.7687,6.7687,6.7687,6.8201,6.9009,7.0073,7.1688,7.2496,7.2496,7.2496,7.2496,7.2496,7.2496,7.2496,7.2496,7.2496,7.2496,7.2496,7.2496,7.2496,7.2496,7.2496,7.2496,7.2496,7.2496,7.2496,7.2496,7.2496,7.2496,7.2789,7.4404,7.4918,7.5212,7.6796,7.7273,7.7273,7.7273,7.7273,7.7273,7.7273,7.7273,7.7273,7.7273,7.7493,7.7673,7.7791,7.79,7.8376,7.9546,8.0262,8.1063,8.2214,8.2846,8.318,8.318,8.318,8.318,8.318,8.318,8.318,8.318,8.318,8.318,8.318,8.318,8.318,8.318,8.318,8.318,8.318,8.318,8.318,8.318,8.318,8.318,8.318,8.318,8.318,8.318,8.318,8.318,0.0,0.0,0.0,6.3602,6.3602,6.3602,6.3602,6.4902,6.6091,6.6091,6.7391,6.8481,6.8481,6.8481,6.8481,6.8481,6.8481,6.8481,6.8481,6.8481,6.8457,6.8309,6.8309,6.8259,6.8095,6.8095,6.8055,6.7926,6.7926,6.7847,6.7714,6.7714,6.7687,6.7687,6.9265,7.011,7.011,7.1688,7.2496,7.2496,7.2496,7.2496,7.2496,7.2496,7.2496,7.2496,7.2496,7.2496,7.2496,7.2496,7.2496,7.2496,7.2496,7.2496,7.2496,7.2496,7.2496,7.2496,7.2496,7.2496,7.2789,7.4404,7.4918,7.5212,7.6796,7.7273,7.7273,7.7273,7.7273,7.7273,7.7273,7.7273,7.7273,7.7273,7.7547,7.782,7.782,7.79,7.8553,8.0328,8.0691,8.1211,8.2883,8.318,8.318,8.318,8.318,8.318,8.318,8.318,8.318,8.318,8.318,8.318,8.318,8.318,8.318,8.318,8.318,8.318,8.318,8.318,8.318,8.318,8.318,8.318,8.318,8.318,8.318,8.318,8.318,8.318,6.2031,0.0,0.0,0.0,0.0,0.0,6.3602,6.4902,6.6091,6.6091,6.7391,6.8481,6.8481,6.8481,6.8481,6.8481,6.8481,6.8481,6.8481,6.8481,6.8481,6.8432,6.8358,6.8284,6.8259,6.8183,6.807,6.8055,6.7941,6.7899,6.7847,6.7767,6.7687,6.7687,6.9265,7.011,7.011,7.1688,7.2496,7.2496,7.2496,7.2496,7.2496,7.2496,7.2496,7.2496,7.2496,7.2496,7.2496,7.2496,7.2496,7.2496,7.2496,7.2496,7.2496,7.2496,7.2496,7.2496,7.2496,7.2496,7.2789,7.4404,7.4918,7.5212,7.6796,7.7273,7.7273,7.7273,7.7273,7.7273,7.7273,7.7273,7.7273,7.7273,7.7547,7.782,7.782,7.8023,7.8731,8.0394,8.0691,8.1211,8.2883,8.318,8.318,8.318,8.318,8.318,8.318,8.318,8.318,8.318,8.318,8.318,8.318,8.318,8.318,8.318,8.318,8.318,8.318,8.318,8.318,8.318,8.318,8.318,8.318,8.318,8.318,8.318,8.318,8.318,6.2419,6.2979,6.3405,6.3511,0.0,0.0,6.3602,6.4902,6.6091,6.6091,6.7391,6.8481,6.8481,6.8481,6.8481,6.8481,6.8481,6.8481,6.8481,6.8481,6.8481,6.8481,6.8432,6.8383,6.8383,6.8309,6.8259,6.8208,6.8132,6.803,6.7926,6.7767,6.7687,6.7687,6.9265,7.011,7.011,7.1688,7.2496,7.2496,7.2496,7.2496,7.2496,7.2496,7.2496,7.2496,7.2496,7.2496,7.2496,7.2496,7.2496,7.2496,7.2496,7.2496,7.2496,7.2496,7.2496,7.2496,7.2496,7.2496,7.2789,7.4404,7.4918,7.5212,7.6796,7.7273,7.7273,7.7273,7.7273,7.7273,7.7273,7.7273,7.7273,7.7273,7.7547,7.782,7.782,7.8339,7.9168,8.0431,8.0691,8.1211,8.2883,8.318,8.318,8.318,8.318,8.318,8.318,8.318,8.318,8.318,8.318,8.318,8.318,8.318,8.318,8.318,8.318,8.318,8.318,8.318,8.318,8.318,8.318,8.318,8.318,8.318,8.318,8.318,8.318,8.318,6.2684,6.3123,6.3359,6.3359,6.3488,0.0,6.3579,6.4879,6.6091,6.6091,6.7391,6.8481,6.8481,6.8481,6.8481,6.8481,6.8481,6.8481,6.8481,6.8481,6.8481,6.8481,6.8481,6.8481,6.8481,6.8481,6.8432,6.8334,6.8284,6.8183,6.7926,6.7767,6.7724,6.7834,6.9302,7.0146,7.022,7.1725,7.2496,7.2496,7.2496,7.2496,7.2496,7.2496,7.2496,7.2496,7.2496,7.2496,7.2496,7.2496,7.2496,7.2496,7.2496,7.2496,7.2496,7.2496,7.2496,7.2496,7.2496,7.2496,7.2789,7.4404,7.4918,7.5212,7.6796,7.7273,7.7273,7.7273,7.7273,7.7273,7.7273,7.7273,7.7273,7.7273,7.7547,7.782,7.782,7.871,7.9725,8.0542,8.0765,8.136,8.292,8.318,8.318,8.318,8.318,8.318,8.318,8.318,8.318,8.318,8.318,8.318,8.318,8.318,8.318,8.318,8.318,8.318,8.318,8.318,8.318,8.318,8.318,8.318,8.318,8.318,8.318,8.318,8.318,8.318,6.2209,6.2668,6.3099,6.3194,6.3312,0.0,6.3465,6.4833,6.6091,6.6091,6.7391,6.8481,6.8481,6.8481,6.8481,6.8481,6.8481,6.8481,6.8481,6.8481,6.8481,6.8481,6.8481,6.8481,6.8481,6.8481,6.8481,6.8457,6.8259,6.8081,6.7926,6.7767,6.7981,6.8641,6.9596,7.0403,7.1064,7.2018,7.2496,7.2496,7.2496,7.2496,7.2496,7.2496,7.2496,7.2496,7.2496,7.2496,7.2496,7.2496,7.2496,7.2496,7.2496,7.2496,7.2496,7.2496,7.2496,7.2496,7.2496,7.2496,7.2789,7.4404,7.4918,7.5212,7.6796,7.7273,7.7273,7.7273,7.7273,7.7273,7.7273,7.7273,7.7273,7.7273,7.7547,7.782,7.782,7.871,7.9725,8.0542,8.1248,8.2066,8.3032,8.318,8.318,8.318,8.318,8.318,8.318,8.318,8.318,8.318,8.318,8.318,8.318,8.318,8.318,8.318,8.318,8.318,8.318,8.318,8.318,8.318,8.318,8.318,8.318,8.318,8.318,8.318,8.318,8.318,6.1464,6.2023,6.2567,6.2643,6.3002,0.0,0.0,6.4726,6.602,6.6067,6.7391,6.8481,6.8481,6.8481,6.8481,6.8481,6.8481,6.8481,6.8481,6.8481,6.8481,6.8481,6.8481,6.8481,6.8481,6.8481,6.8481,6.8481,6.8309,6.8158,6.803,6.7873,6.8135,6.8898,6.9669,7.0477,7.1293,7.2092,7.2496,7.2496,7.2496,7.2496,7.2496,7.2496,7.2496,7.2496,7.2496,7.2496,7.2496,7.2496,7.2496,7.2496,7.2496,7.2496,7.2496,7.2496,7.2496,7.2496,7.2496,7.2496,7.2789,7.4404,7.4918,7.5212,7.6796,7.7273,7.7273,7.7273,7.7273,7.7273,7.7273,7.7273,7.7341,7.7433,7.7643,7.785,7.7871,7.9063,8.0208,8.0617,8.1731,8.2734,8.3106,8.318,8.318,8.318,8.318,8.318,8.318,8.318,8.318,8.318,8.318,8.318,8.318,8.318,8.318,8.318,8.318,8.318,8.318,8.318,8.318,8.318,8.318,8.318,8.318,8.318,8.318,8.318,8.318,8.318,6.0736,6.1293,6.1888,6.2032,6.2541,6.3088,0.0,0.0,0.0,6.6243,6.7455,6.8457,6.8481,6.8481,6.8468,6.8296,6.8407,6.8468,6.8296,6.8407,6.8481,6.8481,6.8481,6.8481,6.8481,6.8481,6.8481,6.8481,6.8383,6.8234,6.8095,6.8125,6.8436,6.9119,6.9926,7.0734,7.1541,7.2202,7.2496,7.2496,7.2496,7.2496,7.2496,7.2496,7.2496,7.2496,7.2496,7.2496,7.2496,7.2496,7.2496,7.2496,7.2496,7.2496,7.2496,7.2496,7.2496,7.2496,7.2496,7.2606,7.2973,7.4441,7.5139,7.5616,7.6907,7.7273,7.7273,7.7273,7.7273,7.7273,7.7273,7.7273,7.7372,7.7524,7.7703,7.7887,7.8208,7.9537,8.0728,8.0914,8.2177,8.318,8.318,8.318,8.318,8.318,8.318,8.318,8.318,8.318,8.318,8.318,8.318,8.318,8.318,8.318,8.318,8.318,8.318,8.318,8.318,8.318,8.318,8.318,8.318,8.318,8.318,8.318,8.318,8.318,8.318,8.318,6.0097,6.0555,6.1178,6.1751,6.2086,6.2569,6.3812,0.0,6.5965,6.6803,0.0,6.8358,6.8481,0.0,0.0,6.7577,6.8023,6.8221,6.754,6.806,6.8481,6.8481,6.8481,6.8481,6.8481,6.8481,6.8481,6.8481,6.8383,6.8234,6.8095,6.8641,6.9255,6.9926,7.0734,7.1578,7.2349,7.2459,7.2496,7.2496,7.2496,7.2496,7.2496,7.2496,7.2496,7.2496,7.2496,7.2496,7.2496,7.2496,7.2496,7.2496,7.2496,7.2496,7.2496,7.2496,7.2496,7.2496,7.2496,7.2973,7.3707,7.4625,7.5842,7.7053,7.7237,7.7273,7.7273,7.7273,7.7273,7.7273,7.7273,7.7273,7.7372,7.7524,7.7703,7.8034,7.8949,7.9974,8.0914,8.1694,8.2586,8.318,8.318,8.318,8.318,8.318,8.318,8.318,8.318,8.318,8.318,8.318,8.318,8.318,8.318,8.318,8.318,8.318,8.318,8.318,8.318,8.318,8.318,8.318,8.318,8.318,8.318,8.318,8.318,8.318,8.318,8.318,5.9417,5.9905,6.0543,6.128,6.2069,6.2994,6.4091,6.5338,6.6406,6.6864,0.0,0.0,0.0,0.0,0.0,0.0,6.821,6.837,6.8036,6.8296,6.8481,6.8481,6.8481,6.8481,6.8481,6.8432,6.8383,6.8383,6.8259,6.8132,6.8004,6.8699,6.9402,7.0073,7.0881,7.1688,7.2496,7.2582,7.2582,7.2496,7.2582,7.2582,7.2496,7.2496,7.2496,7.2496,7.2496,7.2496,7.2496,7.2496,7.2496,7.2496,7.2496,7.2496,7.2496,7.2496,7.2496,7.2496,7.2496,7.3046,7.3891,7.5175,7.6387,7.7273,7.7273,7.7273,7.7273,7.7273,7.7273,7.7273,7.7273,7.7273,7.7365,7.7643,7.7762,7.81,7.9175,8.0105,8.0951,8.1806,8.2623,8.318,8.318,8.318,8.318,8.318,8.318,8.318,8.318,8.318,8.318,8.318,8.318,8.318,8.318,8.318,8.318,8.318,8.318,8.318,8.318,8.318,8.318,8.318,8.318,8.318,8.318,8.318,8.318,8.318,8.318,8.318,5.9323,5.9836,6.0513,6.1237,6.2173,6.3134,6.4159,6.5414,6.6449,6.6801,6.751,0.0,0.0,0.0,6.8185,0.0,0.0,6.8309,6.8087,6.8235,6.8408,6.8481,6.8457,6.8432,6.8432,6.8334,6.8259,6.8284,6.8183,6.8155,6.8273,6.9031,6.9733,7.0403,7.1211,7.1908,7.2496,7.2638,7.2638,7.2496,7.2638,7.2638,7.2496,7.2496,7.2496,7.2496,7.2496,7.2496,7.2496,7.2496,7.2496,7.2496,7.2524,7.2524,7.2496,7.2496,7.2496,7.2496,7.2496,7.3156,7.4294,7.5909,7.6827,7.7273,7.7273,7.7273,7.7273,7.7273,7.7273,7.7273,7.7273,7.7273,7.7365,7.7695,7.7968,7.8425,7.9594,8.0468,8.1285,8.214,8.2771,8.318,8.318,8.318,8.318,8.318,8.318,8.318,8.318,8.318,8.318,8.318,8.318,8.318,8.318,8.318,8.318,8.318,8.318,8.318,8.318,8.318,8.318,8.318,8.318,8.318,8.318,8.318,8.318,8.318,8.318,8.318,6.0151,6.0703,6.1432,6.2118,6.2319,6.2692,6.4077,6.4933,6.5721,6.6721,6.7415,6.7952,6.8107,0.0,0.0,0.0,0.0,0.0,0.0,6.7615,6.8234,6.8457,6.8383,6.8309,6.8309,6.8183,6.8183,6.8284,6.8183,6.8439,6.9189,6.9895,7.0542,7.1248,7.2055,7.2459,7.2496,7.2638,7.2638,7.2496,7.2638,7.2638,7.2496,7.2496,7.2496,7.2496,7.2496,7.2496,7.2496,7.2496,7.2496,7.2496,7.2638,7.261,7.2496,7.2496,7.2496,7.2496,7.2496,7.356,7.5139,7.6723,7.7273,7.7273,7.7273,7.7273,7.7273,7.7273,7.7273,7.7273,7.7273,7.7273,7.7365,7.7695,7.8374,7.9276,8.0411,8.1323,8.2177,8.2994,8.318,8.318,8.318,8.318,8.318,8.318,8.318,8.318,8.318,8.318,8.318,8.318,8.318,8.318,8.318,8.318,8.318,8.318,8.318,8.318,8.318,8.318,8.318,8.318,8.318,8.318,8.318,8.318,8.318,8.318,8.318,8.318,6.0944,6.1116,6.1498,6.2265,6.2752,6.3334,6.4307,6.5038,6.5771,6.6605,6.6939,6.7258,0.0,0.0,0.0,0.0,0.0,0.0,0.0,6.7948,6.8343,6.8974,6.8541,6.8405,6.8897,6.8351,6.8004,6.803,6.8378,6.874,6.9034,7.0266,7.1056,7.1321,7.2092,7.2524,7.2638,7.2807,7.2807,7.2638,7.2807,7.2788,7.2496,7.2496,7.2496,7.2496,7.2496,7.2496,7.2496,7.2496,7.2496,7.2496,7.2553,7.2524,7.2496,7.261,7.2582,7.2642,7.3744,7.4441,7.5175,7.676,7.7273,7.7273,7.7273,7.7273,7.7273,7.7273,7.7273,7.7273,7.7273,7.7273,7.7365,7.7695,7.8411,7.9313,8.0448,8.136,8.2214,8.3032,8.318,8.318,8.318,8.318,8.318,8.318,8.318,8.318,8.318,8.318,8.318,8.318,8.318,8.318,8.318,8.318,8.318,8.318,8.318,8.318,8.318,8.318,8.318,8.318,8.318,8.318,8.318,8.318,8.318,8.318,8.318,8.318,6.1737,6.191,6.2255,6.2737,6.3237,6.366,6.4148,6.4736,6.5465,6.6192,6.6313,0.0,0.0,0.0,0.0,0.0,0.0,0.0,0.0,6.8199,6.8652,6.9499,6.8668,6.8325,6.9173,6.8431,6.801,6.8305,6.874,6.9237,6.9798,7.0762,7.1431,7.1725,7.2296,7.261,7.2695,7.2955,7.2955,7.2695,7.2927,7.2844,7.2496,7.2496,7.2496,7.2496,7.2496,7.2496,7.2496,7.2496,7.2524,7.2582,7.2638,7.261,7.2582,7.261,7.2765,7.312,7.4441,7.5102,7.5542,7.687,7.7273,7.7273,7.7273,7.7273,7.7237,7.6943,7.7053,7.7237,7.6974,7.709,7.7439,7.8064,7.8855,7.9756,8.0931,8.1806,8.2586,8.3106,8.318,8.318,8.318,8.318,8.318,8.318,8.318,8.318,8.318,8.318,8.318,8.318,8.318,8.318,8.318,8.318,8.318,8.318,8.318,8.318,8.318,8.318,8.318,8.318,8.318,8.318,8.318,8.318,8.318,8.318,8.318,8.318]}]]